GFSNGP_sfc_thetae_000.txt.gz
Theta_e
289 292 291 291 291 291 289 291 288 289 291 294 298 301 302 303 305 307 308 308 309 309 307 306 307 309 312 312 311 312 313 318 318 318 319 319 319 320 320 322 322 323 324 324
286 292 293 290 291 292 292 292 292 292 292 298 301 305 304 305 306 307 308 309 310 310 309 307 308 308 311 312 311 313 312 317 318 318 319 319 319 319 320 320 322 323 324 324
279 287 289 285 291 291 292 294 294 291 296 298 302 305 305 305 307 308 309 310 310 311 310 309 309 310 310 311 311 312 312 318 318 318 319 318 318 318 318 318 320 321 321 323
279 285 279 289 298 296 295 296 297 295 297 299 303 308 307 309 308 309 311 312 312 312 311 310 311 310 311 311 310 311 311 316 317 317 318 317 317 317 315 315 318 318 318 321
279 280 288 293 294 292 292 293 295 296 301 303 304 307 306 310 310 311 312 314 313 313 312 309 311 312 311 310 310 311 311 314 315 316 317 316 316 315 314 314 314 315 316 320
282 279 280 289 294 299 299 289 295 295 295 297 301 299 303 310 311 311 312 314 313 314 312 310 311 312 311 309 309 310 311 313 313 316 317 316 315 314 313 314 314 313 314 319
280 278 288 294 296 299 288 287 295 296 295 296 298 302 305 307 312 313 313 314 314 313 312 312 310 312 311 309 309 312 313 313 312 316 316 316 315 314 313 312 312 312 311 312
286 284 285 297 295 289 293 295 296 297 297 297 298 303 306 308 311 311 311 313 314 313 313 312 311 313 311 309 312 312 313 313 311 313 317 316 316 314 313 312 310 309 309 308
288 288 295 298 297 300 300 295 296 297 299 299 299 302 304 306 310 312 311 313 314 314 313 311 312 314 311 312 310 311 312 312 310 310 318 316 316 314 312 312 310 309 309 309
289 292 293 296 300 300 299 297 299 299 300 301 299 301 304 305 309 311 312 312 314 313 311 310 312 314 315 312 311 311 311 311 310 309 313 317 317 316 314 312 311 310 310 310
289 293 294 297 298 299 300 299 299 300 302 302 301 301 302 308 309 311 312 312 314 313 312 312 312 313 313 312 310 310 311 310 310 310 312 317 317 316 317 317 313 313 312 312
287 294 293 294 298 300 299 299 299 300 301 303 304 303 308 311 308 312 311 312 313 314 312 312 312 313 313 312 311 310 309 308 309 310 310 316 316 311 295 300 302 299 300 310
293 297 298 298 300 301 300 299 300 301 302 302 304 303 309 310 312 310 313 312 314 314 313 313 313 313 314 313 312 310 310 308 307 308 311 314 316 315 314 306 298 299 299 299
299 299 296 298 297 300 300 301 302 302 303 304 304 304 309 313 314 313 313 314 316 315 314 313 313 313 314 314 313 311 311 301 308 309 312 314 316 317 317 316 314 314 298 301
297 299 299 301 300 299 300 301 300 300 302 304 305 304 307 310 314 317 316 315 316 315 315 314 314 314 315 316 314 312 311 309 310 310 313 313 316 317 316 317 316 313 303 297
296 297 299 299 300 301 301 299 298 300 301 304 305 305 307 309 313 315 318 315 315 314 315 315 315 316 316 316 316 314 313 305 306 311 313 315 316 316 315 315 315 313 310 312
292 292 294 294 296 298 300 299 299 299 302 305 306 306 308 309 310 311 314 318 317 317 317 317 317 317 316 317 316 315 314 310 306 312 314 315 316 315 315 315 314 313 314 309
297 296 296 296 296 297 298 302 300 300 301 306 307 307 307 307 308 311 313 316 318 318 319 320 320 319 317 317 317 317 316 313 311 313 314 315 315 316 316 315 315 314 314 308
299 298 297 298 298 297 297 299 302 302 302 304 305 305 306 307 310 312 315 317 318 317 318 320 304 314 318 314 313 317 316 314 312 313 314 309 312 316 316 316 316 315 315 310
301 301 301 300 300 299 298 299 300 302 304 302 304 304 304 307 309 315 317 316 318 319 321 318 321 320 321 315 302 318 317 316 313 313 313 313 314 314 315 307 315 316 315 314
300 301 301 301 300 301 300 301 301 301 303 303 303 303 303 308 309 313 314 314 318 314 315 306 319 319 318 314 308 317 317 316 315 314 313 312 313 314 314 315 314 314 314 314
301 301 301 301 301 302 302 301 301 302 302 303 304 303 304 307 307 307 315 315 316 297 313 319 310 296 303 301 317 319 318 317 316 315 314 314 313 313 313 314 314 313 312 313
299 301 301 301 301 302 304 302 301 301 301 303 303 304 305 305 309 305 304 311 314 307 314 313 295 292 292 314 315 319 319 318 317 316 315 314 314 315 315 314 314 314 313 313
299 301 301 302 302 301 300 302 302 302 302 303 303 305 306 306 308 310 313 303 294 301 311 307 302 295 301 318 317 316 317 319 318 317 315 302 315 315 314 314 314 315 314 306
297 299 301 300 300 299 300 300 303 301 302 302 303 304 306 307 306 306 309 311 295 302 317 292 294 294 318 319 318 317 315 316 315 314 314 314 313 313 312 312 313 312 310 309
296 298 300 301 301 301 299 299 298 301 303 303 304 305 304 306 307 307 309 304 311 303 314 314 315 318 318 318 317 315 312 308 310 309 308 308 307 306 304 303 302 302 303 302
296 295 299 300 301 302 299 298 297 299 300 302 303 307 307 307 307 305 302 311 311 313 313 313 312 310 316 315 312 312 310 308 302 307 306 304 303 302 301 300 299 299 299 298

GFSNGP_sfc_thetae_003.txt.gz
Theta_e
292 293 296 294 294 294 294 295 291 296 296 300 306 308 311 313 314 315 315 316 317 318 319 320 321 322 322 322 324 325 325 327 329 330 329 330 329 329 330 331 330 331 331 330
289 293 295 293 295 295 295 295 295 297 297 305 308 310 311 312 313 314 315 316 317 319 320 320 320 320 321 322 323 325 325 327 327 327 327 329 329 330 330 330 331 331 330 329
287 291 293 290 295 296 296 297 297 294 300 305 305 309 313 314 314 316 317 317 318 319 320 320 320 321 321 323 323 323 324 327 326 327 326 328 328 329 329 329 331 331 330 330
288 292 285 295 300 300 297 297 298 300 302 304 307 310 312 317 316 317 318 318 319 320 322 322 322 322 322 324 322 321 322 326 326 326 326 327 328 327 328 329 330 330 330 331
287 290 295 294 295 294 297 294 298 298 300 302 305 310 313 317 318 320 321 321 322 323 324 323 321 322 321 322 321 321 320 325 325 326 326 326 327 327 326 328 329 328 328 330
289 287 286 292 297 300 302 293 299 300 300 301 303 305 311 309 314 319 323 323 322 324 324 323 323 323 321 321 321 320 320 323 325 325 327 327 329 327 326 329 328 325 327 331
287 287 289 296 299 302 294 292 300 301 301 302 301 305 307 310 315 319 323 324 324 323 322 323 324 323 321 321 320 322 322 322 325 326 328 329 329 327 326 326 325 324 325 327
289 287 285 298 297 292 296 301 301 302 303 302 304 306 308 310 313 318 321 322 323 322 323 324 323 323 322 321 323 324 322 321 323 326 326 326 328 327 325 327 324 323 323 323
288 288 296 300 298 301 301 300 300 301 303 305 305 306 308 309 312 317 321 322 323 322 323 323 323 324 323 323 324 322 322 322 323 323 326 327 327 326 323 325 323 322 321 322
291 293 295 298 301 301 301 301 303 303 303 305 305 306 307 310 314 316 320 322 323 323 322 321 322 323 325 324 322 322 322 323 323 322 324 326 326 325 324 322 321 319 320 321
291 294 297 298 299 299 300 302 302 303 303 305 306 307 307 308 315 318 320 322 322 323 322 321 322 323 325 324 322 322 323 322 322 321 323 325 326 325 324 326 321 322 321 321
290 295 295 295 299 301 299 299 301 302 302 304 308 307 308 311 316 320 319 321 322 322 323 322 321 322 323 323 322 324 322 321 320 319 320 323 325 322 296 302 302 299 304 315
295 299 299 300 301 302 299 300 302 303 303 303 307 309 308 313 318 318 320 320 321 322 323 323 321 322 323 323 322 324 324 324 320 316 319 319 323 324 322 311 300 299 300 300
298 300 298 299 298 303 301 303 304 304 303 304 306 310 309 310 316 320 322 321 322 323 322 322 321 322 323 322 322 323 325 307 320 319 319 319 320 321 322 323 323 323 302 306
297 298 299 301 303 303 304 303 302 302 302 303 306 308 310 308 311 317 321 324 323 323 322 321 321 322 323 322 323 323 323 319 321 320 319 316 320 320 320 321 323 324 324 303
297 298 299 299 299 300 301 302 302 303 303 303 304 306 309 310 311 317 322 323 321 321 321 321 322 323 322 323 323 323 322 309 313 320 319 318 319 320 320 320 320 321 322 322
297 296 298 298 298 299 299 300 301 302 305 304 305 307 309 308 310 313 320 324 325 324 324 324 324 324 322 323 324 322 321 318 310 319 319 319 319 319 320 321 321 320 321 319
300 300 300 300 300 300 300 301 301 301 303 306 307 307 306 307 308 313 318 325 326 325 326 326 325 324 322 323 324 323 322 321 317 319 320 319 322 321 321 320 321 320 321 318
303 302 302 302 302 302 302 302 302 303 303 305 306 306 307 307 310 312 317 324 325 324 326 327 307 316 325 320 319 323 322 321 318 320 321 314 319 321 321 321 321 321 322 320
303 304 303 303 304 303 303 304 305 304 304 305 306 306 307 308 310 311 314 321 327 328 330 328 321 325 326 318 306 323 322 322 320 320 320 320 321 322 323 312 321 321 322 322
303 303 303 302 302 303 303 305 305 304 305 305 305 305 307 308 309 310 313 319 326 324 319 312 324 327 327 317 314 323 322 322 321 321 320 320 321 321 322 324 322 323 323 323
303 303 303 303 302 302 303 303 305 305 305 305 306 306 307 308 309 312 316 315 322 300 321 328 323 309 317 299 322 322 322 323 323 321 320 320 321 321 322 323 322 322 322 323
303 303 303 301 302 302 303 303 302 303 303 305 305 306 306 307 309 310 310 318 321 310 324 325 302 288 288 323 326 323 321 325 324 322 321 320 320 321 322 323 323 323 323 323
303 303 302 303 303 302 300 303 302 302 302 305 307 308 307 307 309 314 319 309 298 300 318 320 301 290 291 325 326 324 324 325 324 323 323 303 322 322 322 323 322 323 323 318
303 304 303 302 302 302 302 301 301 300 300 301 304 307 309 310 308 310 314 315 300 303 319 300 290 290 316 326 325 323 324 323 321 320 321 321 321 321 322 323 324 323 323 322
303 303 303 303 302 304 302 302 298 298 298 298 299 301 307 311 311 310 311 305 312 306 317 323 326 326 326 328 327 325 323 319 318 317 315 319 319 320 320 321 320 319 321 319
303 296 303 302 301 301 302 300 298 296 297 296 296 299 302 309 311 309 304 313 313 315 318 323 324 319 326 325 324 322 320 313 303 312 312 314 316 317 316 316 316 315 314 314

GFSNGP_sfc_thetae_006.txt.gz
Theta_e
297 297 298 298 298 299 298 300 296 298 299 303 309 310 314 318 320 320 321 322 323 323 325 326 325 324 323 325 326 328 328 329 331 333 334 333 332 332 332 332 332 332 332 331
293 297 297 296 298 299 300 300 300 300 301 308 311 312 313 316 319 320 320 322 322 324 325 325 324 323 323 324 325 328 327 328 330 330 331 332 332 332 332 332 332 331 331 331
290 296 296 293 298 299 300 302 302 298 303 310 310 311 314 317 319 320 322 322 323 324 326 326 325 323 323 324 325 326 327 327 328 329 330 331 331 331 331 332 334 332 332 332
291 295 287 299 304 305 301 301 303 304 306 308 309 311 314 316 317 321 323 324 324 326 327 327 325 324 324 325 323 324 326 326 328 328 330 331 332 331 333 334 334 333 333 333
292 291 297 298 300 301 302 298 304 304 306 308 310 311 315 317 321 323 326 327 327 328 329 328 325 324 323 323 322 322 323 326 327 328 329 329 330 333 334 334 334 333 333 333
294 289 288 296 301 305 306 297 304 306 306 307 309 304 312 315 317 322 326 329 328 329 329 327 326 325 324 322 321 321 322 326 328 329 329 329 332 332 335 334 332 331 332 334
292 293 294 299 302 306 297 297 305 306 307 308 307 310 314 317 318 320 325 329 330 330 328 327 326 325 323 322 321 322 323 326 328 330 331 332 334 333 334 332 331 331 332 333
293 290 287 302 301 298 299 305 305 307 307 308 310 312 314 316 318 320 324 328 329 328 328 328 327 325 323 322 323 323 322 324 327 330 329 331 334 332 332 331 331 331 332 331
289 290 300 303 302 305 305 305 305 306 307 309 310 312 314 315 318 321 323 327 329 329 327 327 327 325 323 324 323 323 323 323 326 329 330 332 332 331 328 329 327 328 328 328
291 296 299 302 304 304 305 305 306 307 307 309 310 313 314 316 317 321 323 327 329 329 326 326 327 325 325 326 324 323 323 324 325 327 329 331 330 329 327 325 323 324 326 327
292 298 300 302 303 304 304 305 305 307 308 308 310 312 314 315 320 322 324 326 329 328 327 326 327 326 326 325 324 323 324 324 324 324 328 329 330 329 327 329 322 322 323 326
290 297 297 301 304 304 303 304 306 306 306 308 310 311 314 315 320 324 326 326 328 329 328 327 327 326 326 325 324 324 324 324 322 321 323 327 329 329 297 304 305 303 304 314
296 301 302 304 305 306 305 306 307 307 307 306 309 312 314 315 317 318 327 327 326 328 329 328 327 327 327 326 324 324 328 328 323 317 321 321 324 327 326 316 302 300 301 302
303 302 300 302 302 305 306 307 308 308 308 308 309 312 313 315 316 317 323 327 328 327 329 329 328 327 329 327 325 325 329 308 325 321 321 320 322 323 324 324 324 325 303 308
301 303 303 304 305 305 306 306 306 306 308 308 310 310 312 313 313 315 320 327 329 329 327 329 328 328 330 329 327 325 326 323 324 323 322 318 321 322 322 323 322 323 324 306
300 301 303 303 303 304 304 305 304 305 306 307 308 310 311 313 313 315 318 322 328 326 327 327 328 329 330 330 330 328 327 312 315 322 322 321 321 321 320 321 322 323 323 325
299 299 301 302 302 303 303 304 305 305 305 306 307 309 310 312 313 314 316 319 326 330 330 329 328 330 330 330 333 328 327 325 315 322 321 321 320 321 321 321 320 321 323 322
303 303 304 304 304 304 304 305 306 307 307 307 308 308 309 310 312 313 315 318 323 331 331 331 331 330 330 330 331 329 329 327 323 322 322 321 321 321 321 321 321 321 322 319
304 303 304 304 304 304 305 305 305 307 308 309 308 307 309 310 312 314 316 316 319 330 333 334 312 318 331 326 323 329 328 327 325 324 323 314 321 321 320 321 321 322 322 321
303 304 303 303 305 305 303 304 305 305 306 309 309 308 308 309 311 313 315 315 320 330 330 333 331 331 330 325 307 329 328 327 326 324 324 324 323 323 322 311 320 321 321 322
303 303 303 302 302 303 303 305 304 303 303 305 306 308 308 310 311 312 313 313 320 323 323 317 329 331 329 323 320 327 328 328 327 326 325 325 325 325 324 325 323 323 322 323
304 303 303 302 301 303 303 305 303 303 304 302 303 308 309 309 310 311 314 315 319 298 317 327 333 303 318 298 327 325 328 328 328 328 326 326 325 326 326 327 326 326 326 326
304 304 304 303 302 303 304 304 304 302 301 301 301 302 307 310 311 309 309 317 320 308 318 318 304 290 288 321 328 326 328 328 328 327 327 327 327 326 326 326 328 328 329 328
304 304 304 305 305 302 302 305 304 305 301 302 303 303 303 304 311 313 314 308 299 303 315 314 307 292 287 329 331 330 328 328 329 328 325 309 325 325 325 326 327 328 329 324
305 305 305 305 304 302 303 304 304 305 303 301 301 301 302 305 305 312 313 314 302 306 317 302 292 292 317 325 330 330 330 329 329 329 328 326 326 326 324 326 327 328 328 328
305 304 305 306 304 302 301 303 300 303 300 298 299 300 300 302 306 307 313 307 314 308 315 316 316 321 325 326 327 330 330 330 328 327 324 328 328 330 330 329 327 326 326 327
304 296 303 304 305 304 303 303 301 299 299 298 296 299 299 299 302 303 304 314 315 315 316 317 317 315 325 327 329 328 331 330 318 328 329 330 331 330 329 327 325 323 323 325

GFSNGP_sfc_thetae_012.txt.gz
Theta_e
290 292 293 295 298 299 300 302 298 301 301 307 312 314 317 322 322 322 323 324 325 326 328 330 329 327 327 327 328 331 330 330 332 332 333 333 329 331 330 333 331 332 328 329
288 290 292 292 298 299 301 302 303 303 303 312 317 319 318 320 320 320 322 323 325 327 329 329 327 325 326 326 328 330 330 330 332 332 332 331 330 332 333 333 331 330 332 330
284 290 290 290 298 300 301 305 305 300 307 314 313 314 317 320 321 321 322 323 325 327 328 329 327 327 326 326 328 329 329 329 329 331 330 331 330 330 330 330 331 330 330 330
287 289 284 298 305 305 302 306 308 309 309 311 312 316 318 320 322 322 322 324 326 328 330 330 327 327 328 326 326 327 327 328 329 328 329 330 331 330 332 334 333 329 331 332
286 288 294 299 304 303 301 302 309 307 310 311 313 317 317 319 321 323 329 327 329 331 331 330 327 326 326 325 326 326 326 327 328 329 330 329 330 333 333 334 333 331 333 333
288 285 288 293 304 310 310 297 309 310 310 311 312 305 312 319 321 323 328 329 329 331 331 329 329 327 326 323 325 325 326 327 330 330 330 330 333 334 335 336 331 333 333 333
287 286 291 299 304 310 296 297 309 310 311 312 311 313 317 320 320 324 326 331 332 332 330 330 330 328 326 324 324 327 328 328 331 332 334 335 337 337 336 330 332 332 330 332
291 286 284 301 305 299 305 310 310 310 311 312 315 316 318 319 320 322 324 328 331 331 330 330 329 326 325 324 327 327 328 328 331 334 331 333 336 338 336 332 330 331 330 329
291 288 296 302 302 306 308 307 308 309 311 313 314 315 317 319 321 322 324 328 330 331 330 329 328 326 326 326 327 326 328 331 332 332 334 335 333 335 331 333 330 329 329 326
293 295 298 300 305 307 308 308 310 311 311 312 313 316 317 320 323 323 325 327 332 331 329 327 327 327 328 327 325 325 329 332 333 332 334 333 332 330 328 330 329 329 327 326
291 296 299 300 303 305 307 309 310 311 311 310 312 314 316 318 319 322 327 329 332 331 330 327 327 326 328 327 325 327 329 331 332 331 333 333 332 327 328 331 324 328 329 329
291 298 297 299 304 305 305 306 308 309 310 311 312 312 316 318 318 320 324 330 331 333 332 328 327 326 326 326 326 329 327 328 328 328 329 329 329 324 298 303 301 299 301 322
297 302 302 303 305 306 306 307 308 310 311 310 312 313 314 316 318 316 322 326 329 330 332 330 327 325 326 326 326 329 327 327 326 324 327 329 328 328 325 313 300 300 302 306
303 303 300 303 303 307 308 309 310 310 311 311 311 312 313 314 316 317 319 321 324 329 330 332 328 326 326 326 326 327 329 312 327 325 328 327 328 329 328 324 322 322 306 309
303 305 304 305 305 305 307 308 307 307 309 310 311 311 311 311 312 315 319 321 323 325 330 330 329 327 328 326 326 326 328 325 326 325 325 324 328 328 328 327 325 323 317 308
303 303 303 302 303 304 306 306 306 307 308 309 310 311 311 312 312 314 319 320 319 320 323 328 333 332 329 328 329 326 329 314 317 326 323 324 323 325 327 328 326 324 322 320
299 300 301 301 301 302 303 305 306 306 307 307 308 310 311 312 312 313 315 318 319 321 326 336 336 336 334 330 331 326 326 326 314 324 325 321 321 321 322 324 326 326 325 321
304 303 303 304 302 302 302 303 304 304 304 306 308 308 310 311 311 313 313 316 318 321 329 333 331 327 335 336 333 329 327 326 324 324 323 323 321 321 322 322 322 323 323 318
304 303 302 304 304 303 302 302 304 304 305 305 305 306 307 309 311 313 316 315 315 317 322 328 310 321 334 331 320 333 329 328 327 324 323 316 320 322 321 321 321 322 323 320
304 304 304 303 304 304 303 304 304 304 306 305 304 304 304 306 308 310 314 314 316 318 324 325 322 331 334 323 307 329 332 330 328 326 324 323 323 322 321 311 320 321 321 322
304 304 303 303 303 302 304 306 305 304 306 305 304 303 303 305 306 308 309 311 318 318 314 309 322 321 320 309 312 329 330 331 331 329 325 323 323 323 321 321 321 321 321 321
304 303 303 304 304 303 304 305 306 305 305 304 304 304 303 303 304 305 307 309 312 300 310 316 321 300 307 296 318 326 330 331 331 331 330 326 323 323 323 322 322 320 321 322
304 304 304 304 303 304 305 304 304 304 303 304 303 302 302 302 303 301 301 306 306 304 305 312 300 293 290 316 318 321 330 330 331 331 331 330 326 323 325 323 322 323 322 322
304 304 305 305 305 304 302 303 305 304 303 304 304 304 302 300 301 303 304 300 294 297 302 305 303 293 291 316 317 318 327 330 330 330 330 311 329 327 324 326 324 324 325 317
306 306 305 304 304 303 303 303 305 304 303 304 304 305 303 302 299 300 301 302 294 297 304 299 295 293 306 317 318 318 321 326 332 330 331 330 329 328 328 325 327 327 326 326
306 306 305 305 305 304 303 303 302 303 302 301 302 303 301 301 300 300 299 297 298 297 303 310 311 313 316 317 318 320 326 328 329 332 328 331 332 332 330 331 330 331 332 332
305 300 305 304 305 304 303 303 302 302 301 300 300 301 300 299 299 297 294 297 295 296 301 305 310 312 315 316 317 318 319 322 317 331 331 331 332 333 332 332 332 332 331 330

GFSNGP_sfc_thetae_015.txt.gz
Theta_e
288 291 290 289 289 290 290 293 290 294 296 301 306 309 314 316 318 318 319 320 321 321 322 323 320 322 322 321 322 326 328 328 326 326 329 327 327 324 324 321 324 326 326 328
286 291 290 288 290 290 291 294 295 296 297 306 314 315 315 316 317 318 319 320 321 322 323 322 320 319 320 320 321 327 328 326 327 326 329 327 326 326 326 324 326 325 326 324
283 289 288 284 287 290 293 296 297 294 301 311 310 312 312 314 317 318 319 320 322 323 323 321 320 318 318 319 320 326 327 326 327 327 325 324 327 325 324 323 325 325 325 321
285 287 277 288 296 297 295 301 303 306 307 310 310 312 313 314 316 318 320 321 322 323 322 321 319 318 319 319 320 322 324 324 326 326 326 326 325 322 323 323 324 324 323 320
283 284 288 294 297 297 298 300 307 306 307 310 312 312 311 316 317 318 318 321 323 324 323 319 319 319 318 317 319 321 322 323 325 326 325 326 326 322 323 323 323 322 323 319
287 281 284 292 297 300 302 295 308 309 308 309 309 302 305 313 317 318 319 322 324 324 322 319 318 318 317 316 317 319 322 323 327 326 326 325 323 323 324 323 325 325 325 320
285 283 287 295 296 299 293 296 308 309 308 307 305 307 310 313 315 318 319 322 325 323 320 319 319 318 316 315 316 320 323 323 327 325 324 326 325 325 324 324 324 324 322 320
288 284 281 295 296 297 303 308 307 306 307 308 309 311 312 315 316 318 318 323 324 322 321 320 320 319 316 314 318 321 322 325 328 327 329 328 325 325 325 323 322 320 321 320
289 287 295 297 298 305 308 305 305 306 306 308 309 310 313 315 317 318 321 321 325 322 320 319 319 319 317 316 319 321 321 325 325 325 326 326 324 323 323 323 323 321 321 320
292 295 296 299 302 305 306 305 306 306 306 306 307 310 312 314 314 315 319 321 324 322 320 318 318 318 320 318 319 320 324 323 323 326 325 325 324 324 322 322 322 324 321 320
291 295 298 299 301 302 305 306 306 307 307 306 307 309 312 313 313 314 316 323 325 322 320 319 319 318 321 319 318 320 325 324 322 326 326 323 319 316 320 321 325 324 322 322
290 297 297 298 302 304 303 305 304 305 306 308 308 308 310 311 313 314 316 321 324 324 321 321 320 319 321 319 318 320 324 325 323 324 326 324 315 311 298 300 300 309 310 319
295 300 301 302 304 306 304 305 305 307 307 306 307 307 309 308 310 311 316 318 320 321 325 322 321 320 320 320 320 321 321 322 321 320 323 321 319 315 310 308 301 297 303 305
302 302 299 302 300 305 305 306 307 308 308 307 307 308 309 308 309 310 311 316 320 322 323 325 321 320 321 320 319 321 319 309 321 319 321 321 320 320 316 312 310 309 303 305
302 302 302 302 303 304 305 306 304 304 305 306 307 307 308 308 309 310 312 315 317 318 321 323 327 322 322 321 319 322 320 319 319 319 319 319 321 321 321 316 315 312 307 304
300 300 301 301 301 302 302 303 302 302 303 304 305 305 307 309 310 310 312 313 313 314 318 329 324 325 327 320 319 322 321 311 313 318 317 318 319 321 319 319 317 314 311 313
295 296 299 299 299 300 301 302 302 302 302 303 304 306 306 307 309 310 311 311 313 315 318 323 319 323 330 333 320 320 322 317 313 318 317 316 318 315 321 321 320 318 315 312
300 302 301 300 300 300 301 302 302 303 302 303 304 304 304 305 305 306 308 311 312 313 316 317 316 317 326 312 317 322 322 321 318 319 318 316 313 316 315 318 322 321 319 313
301 301 301 302 301 301 301 301 302 303 303 302 303 302 302 303 304 305 307 308 310 309 309 315 306 316 318 309 308 317 323 319 320 319 319 311 312 314 315 315 315 320 322 318
303 301 302 301 303 302 301 303 302 303 303 302 301 301 300 302 303 303 304 305 308 302 305 305 308 314 315 311 303 314 321 324 320 319 319 318 317 313 314 307 314 315 315 316
302 303 302 301 300 300 301 303 302 301 302 301 300 299 299 300 302 302 301 300 302 301 301 300 304 305 305 300 305 314 315 323 324 321 319 318 317 316 315 314 315 315 315 315
300 300 301 303 302 301 301 300 301 301 301 301 300 299 298 297 298 299 301 299 300 295 297 300 304 297 296 292 308 314 314 315 323 325 322 320 318 317 317 316 315 315 315 314
301 301 302 303 302 302 301 301 300 300 300 300 300 298 297 296 297 295 293 298 300 296 296 298 295 291 290 300 306 310 313 315 318 324 323 323 320 320 319 317 317 317 314 315
301 302 301 302 303 301 298 300 301 300 300 301 300 299 297 295 295 297 297 295 292 291 295 297 295 290 290 301 305 308 312 313 315 319 323 310 323 321 320 319 317 318 317 309
302 302 301 301 300 298 297 300 300 298 299 298 299 299 297 297 295 295 295 296 292 293 295 294 292 293 306 308 308 309 312 313 314 317 320 323 324 324 322 319 319 317 318 318
302 301 303 302 300 299 298 298 297 297 297 296 297 297 296 296 295 294 294 293 293 291 293 294 295 297 299 301 304 310 310 312 313 317 316 322 324 324 323 323 321 319 317 318
302 299 301 299 300 300 298 298 297 296 295 295 294 295 295 295 293 292 291 292 292 290 291 291 292 292 293 295 296 298 301 303 302 307 317 322 323 324 324 323 323 322 322 322

GFSNGP_sfc_thetae_021.txt.gz
Theta_e
284 286 286 286 286 287 286 287 283 286 287 291 294 298 301 312 316 318 319 320 321 321 321 321 320 321 322 322 322 322 323 322 322 322 323 320 319 319 318 319 318 325 324 321
283 287 287 285 287 287 288 289 288 288 288 297 299 304 311 314 317 317 318 320 321 322 322 321 321 321 321 321 321 324 324 322 323 323 322 321 319 318 318 318 322 325 322 319
278 285 285 283 287 287 289 290 289 286 293 298 298 304 311 313 317 318 319 320 320 322 322 322 322 321 318 319 321 325 325 324 326 323 322 323 321 319 318 320 323 323 317 316
280 283 275 286 296 294 290 291 292 294 295 302 304 307 312 314 314 317 319 320 321 322 322 321 320 318 317 317 322 325 324 323 324 323 321 323 323 317 317 323 323 319 315 314
279 279 285 288 293 292 291 290 293 299 304 307 310 310 310 317 317 317 319 320 322 323 322 320 317 316 316 318 321 322 322 322 323 322 319 320 318 317 317 317 317 315 314 313
283 278 277 287 292 296 297 287 305 304 303 306 307 300 305 315 317 316 318 320 322 323 321 318 317 315 316 318 319 320 322 323 323 321 320 319 318 317 317 317 317 318 315 315
281 280 285 291 293 296 287 291 302 304 303 306 304 307 311 315 316 317 316 320 321 322 318 318 315 315 314 317 318 321 323 323 322 320 319 319 318 318 318 318 319 317 315 314
284 282 280 294 291 292 298 303 304 303 303 307 308 310 313 315 315 317 317 320 321 320 317 314 316 316 313 316 319 320 320 321 320 319 323 321 319 318 319 318 317 315 313 313
285 285 290 292 292 300 304 302 303 304 306 309 307 307 309 312 313 317 320 321 320 319 314 314 315 316 313 315 317 318 319 319 319 321 321 320 318 318 317 316 316 314 314 316
289 288 289 296 302 305 304 304 306 307 307 306 305 306 308 310 311 315 318 318 318 315 315 313 312 313 315 313 317 319 319 318 319 320 319 319 320 319 318 316 315 316 315 313
288 292 295 299 301 303 304 306 306 306 306 304 305 305 308 308 310 315 319 317 317 317 315 314 313 313 312 315 319 318 319 319 319 319 319 318 317 316 319 318 317 318 316 316
287 296 296 298 302 305 302 302 304 304 303 304 305 306 308 308 311 313 315 320 320 318 315 313 314 313 313 316 320 320 318 319 319 319 318 317 313 309 298 300 303 305 305 312
295 300 301 302 303 305 303 302 303 303 303 302 304 306 308 309 310 310 312 314 316 320 321 316 314 314 315 316 320 320 319 319 319 317 318 315 312 312 312 305 298 298 299 303
300 300 298 300 298 303 303 303 303 303 303 303 303 304 306 307 308 309 310 312 316 317 323 321 316 315 316 316 320 319 319 308 321 320 320 315 312 311 311 309 310 312 298 302
298 299 298 299 300 300 302 301 300 299 301 301 301 302 302 303 303 306 312 312 309 309 311 314 315 313 315 316 319 318 318 319 322 321 321 317 314 311 309 309 310 313 307 301
296 297 297 297 297 298 298 299 298 298 299 299 300 300 301 302 303 304 309 309 305 304 305 307 308 311 309 308 315 318 319 310 314 321 319 317 316 313 310 308 308 311 312 313
294 294 295 295 296 296 297 299 299 298 298 298 299 300 300 301 301 302 302 304 306 303 302 305 303 308 308 304 305 313 316 315 310 320 319 319 318 317 315 311 309 308 311 310
298 298 297 296 296 297 298 298 298 297 296 297 299 298 298 297 297 299 299 300 301 303 299 301 302 305 307 304 302 307 314 314 314 318 319 318 318 318 317 315 313 311 310 308
298 298 298 298 298 297 297 297 297 297 297 297 296 295 296 296 297 297 297 297 295 295 296 299 298 304 305 303 299 306 312 315 313 314 315 309 312 315 318 318 317 315 314 310
299 299 299 299 299 297 296 297 297 297 297 295 294 294 293 294 295 295 295 293 294 293 295 298 300 301 302 305 300 305 312 312 312 315 312 312 312 311 313 308 317 318 317 315
298 298 298 298 297 297 296 297 297 296 295 294 293 292 292 293 294 293 292 291 293 293 295 294 294 296 296 295 301 309 311 313 313 312 314 316 313 310 311 311 313 317 318 318
297 296 298 298 297 296 296 296 297 296 295 294 293 293 291 290 292 291 292 290 292 289 294 294 293 289 290 290 303 305 307 311 312 313 312 314 316 316 314 311 311 312 313 317
297 297 298 298 296 296 297 296 296 295 294 293 292 291 289 289 290 289 288 290 290 289 292 291 288 287 287 299 300 301 305 304 304 308 311 313 314 316 318 319 317 314 313 311
296 297 297 298 297 296 295 295 294 294 293 293 292 292 290 288 289 291 291 290 287 287 289 287 287 286 288 295 296 297 298 297 297 300 303 298 308 312 315 318 319 319 319 313
297 297 297 297 295 294 294 294 294 293 292 291 291 291 290 291 289 290 291 290 288 288 288 286 286 287 291 291 292 293 294 293 293 295 297 298 298 300 302 305 308 309 313 316
296 296 297 297 297 295 293 293 291 291 291 289 289 289 289 289 289 289 289 289 289 288 289 288 288 288 288 289 289 290 291 291 290 292 293 294 294 296 296 298 300 303 306 307
296 294 295 294 295 294 293 292 291 289 290 289 287 287 287 288 288 288 288 288 288 289 289 288 288 287 287 288 288 288 289 289 288 289 290 291 291 292 292 294 296 298 300 300

GFSNGP_sfc_thetae_024.txt.gz
Theta_e
284 285 285 284 284 285 283 285 281 284 285 290 291 294 296 308 315 317 319 321 320 319 319 319 320 321 321 321 321 322 322 321 320 322 322 320 320 319 320 321 321 326 325 323
282 285 285 283 285 286 286 286 286 287 287 295 297 297 300 311 316 317 319 321 320 321 320 320 320 320 321 321 321 323 322 322 323 323 322 321 321 319 320 320 324 326 324 321
276 284 284 278 284 285 286 288 287 284 290 295 295 298 301 310 316 317 319 320 320 321 321 321 321 321 320 320 323 323 323 324 326 323 322 322 320 320 320 320 325 323 320 320
275 279 270 283 292 293 290 290 291 291 293 296 296 299 305 312 313 317 320 320 321 321 321 321 320 320 319 320 323 324 323 324 325 323 322 324 321 319 320 324 324 322 318 317
276 274 281 286 291 291 289 287 292 291 293 296 303 307 309 314 316 317 319 321 321 322 321 319 319 319 318 319 322 325 322 324 324 323 321 322 319 320 320 322 322 319 317 317
281 275 273 287 293 296 296 284 300 298 295 303 306 300 303 312 316 317 319 321 321 321 320 318 317 317 317 318 321 321 322 323 324 323 321 320 320 319 320 320 320 319 317 319
281 278 282 291 293 294 285 285 301 302 302 302 303 306 309 313 315 318 318 321 321 321 319 319 315 316 316 318 320 322 324 323 323 322 321 321 320 321 320 320 320 319 318 318
283 279 277 292 290 288 295 301 303 302 301 304 307 309 312 313 314 317 317 320 322 320 318 316 315 317 316 317 321 322 324 323 322 321 322 321 320 321 321 320 320 317 316 317
284 284 290 289 288 293 294 293 304 304 306 306 305 306 310 309 312 316 318 320 321 320 316 314 316 317 316 318 320 321 321 321 321 323 321 321 320 320 319 319 319 316 316 317
286 285 286 291 301 300 302 304 305 306 304 303 303 307 307 310 312 315 318 321 320 316 316 313 315 316 318 316 319 320 320 320 321 322 320 321 321 321 320 319 318 318 317 316
288 290 295 297 301 302 303 304 304 305 304 304 305 306 308 308 310 314 318 318 318 317 317 315 314 314 314 317 319 319 320 320 321 321 321 320 319 319 321 321 318 320 319 318
287 296 295 296 302 303 302 302 303 303 302 304 306 307 308 308 310 312 315 318 318 316 316 315 314 313 314 317 320 320 319 320 320 320 320 320 317 313 297 301 302 303 304 313
295 300 300 301 303 303 301 302 303 302 302 301 304 306 308 307 310 310 310 311 316 318 316 316 314 314 314 318 320 320 320 320 320 318 321 319 317 317 316 308 298 298 297 300
299 299 296 298 298 302 302 302 303 302 303 301 302 303 305 307 309 309 308 309 312 317 316 315 313 310 314 319 320 320 320 307 321 321 321 319 318 317 318 316 315 316 299 301
297 298 296 299 299 299 301 301 299 299 300 300 301 301 302 302 305 306 308 308 309 309 307 307 307 307 307 310 320 319 320 320 322 322 321 318 318 316 315 314 315 316 311 303
296 296 296 297 298 298 297 296 295 297 298 298 298 299 301 303 302 302 305 305 302 302 303 304 305 307 307 306 312 319 320 309 313 322 320 319 318 316 314 313 313 316 317 317
294 293 295 294 297 296 296 296 295 295 296 297 297 298 299 300 298 298 298 302 303 302 302 304 303 307 307 305 306 310 317 317 309 322 321 321 320 318 317 314 313 313 317 313
296 295 295 296 295 295 296 296 295 295 295 295 296 296 296 296 295 295 296 296 298 300 301 302 301 307 308 305 305 309 314 316 316 319 321 321 321 322 319 317 316 314 314 311
297 296 296 296 296 296 296 295 295 294 294 294 294 293 294 294 294 294 295 294 293 294 296 299 296 301 304 301 302 310 314 314 315 317 319 312 318 320 320 320 318 317 316 312
298 298 297 297 297 296 295 295 294 293 294 293 293 292 292 292 293 293 294 292 292 293 296 296 297 297 299 299 295 311 314 314 314 315 315 315 316 317 318 310 320 320 319 317
297 297 297 296 295 296 296 295 293 292 293 293 291 290 290 292 292 291 290 290 291 292 293 292 294 292 297 296 305 308 310 312 313 314 314 314 317 315 314 315 317 319 320 320
295 296 296 296 295 295 295 294 294 293 292 291 291 290 290 290 291 291 289 287 290 288 290 291 291 289 292 294 302 302 302 303 306 309 310 313 315 317 320 319 318 317 316 317
295 297 297 297 296 295 295 294 293 292 291 290 290 289 288 289 289 288 286 289 290 288 289 289 286 287 288 297 297 297 297 297 299 301 302 305 307 308 310 311 313 315 317 316
295 296 297 297 297 295 293 293 292 292 291 291 290 290 289 288 289 291 290 289 287 288 288 287 287 286 289 293 293 294 292 293 294 297 298 294 299 300 301 302 304 308 309 308
296 296 296 295 294 293 293 292 291 290 289 289 289 289 289 290 289 289 290 290 287 289 289 286 287 287 290 290 290 290 290 290 291 292 293 294 294 295 296 297 298 300 301 302
296 296 296 296 295 294 293 292 290 289 289 287 288 288 288 289 289 289 289 289 289 287 288 287 287 288 289 288 289 289 289 288 289 290 290 290 291 291 292 293 295 296 295 296
296 294 294 294 294 293 293 292 290 288 288 287 286 287 288 288 287 288 287 287 286 286 286 286 286 286 287 287 287 288 288 287 286 287 288 288 289 289 290 291 292 292 292 293

GFSNGP_sfc_thetae_027.txt.gz
Theta_e
287 287 288 287 286 287 286 288 284 288 289 292 296 299 301 304 306 315 319 322 324 325 328 329 328 328 329 329 330 330 329 330 330 331 331 330 330 331 331 330 330 333 333 332
284 287 287 284 287 288 288 288 288 289 289 296 299 301 301 303 305 314 319 322 324 327 328 328 328 328 328 328 329 330 329 329 330 330 330 330 330 330 330 329 332 332 331 330
280 285 285 281 286 288 289 291 290 286 291 296 297 299 301 305 308 310 322 322 325 328 329 329 328 329 327 328 330 330 329 330 330 330 329 328 329 328 329 331 331 328 331 328
281 283 274 286 294 293 292 294 296 293 294 296 297 301 304 307 308 315 324 327 329 330 329 330 331 330 329 329 330 330 329 329 330 329 328 328 328 329 330 332 328 328 329 327
280 279 283 286 291 291 291 291 297 296 296 298 299 302 303 310 317 321 326 330 331 331 331 331 330 330 329 329 330 330 329 329 329 328 327 327 327 330 332 329 327 328 329 327
283 278 276 289 294 296 296 287 299 298 297 298 299 294 301 316 322 323 328 331 331 331 331 331 331 330 328 329 330 329 330 330 329 328 328 328 329 330 332 333 328 328 327 328
281 280 284 293 294 295 284 291 302 303 302 300 298 302 313 320 321 323 327 330 331 331 329 331 331 330 328 328 328 331 332 331 330 330 329 330 331 331 331 332 329 329 327 328
284 281 279 293 292 288 296 301 298 301 306 307 308 310 316 319 321 322 324 328 329 329 330 331 329 329 328 328 331 331 331 330 330 330 328 329 330 331 331 331 329 328 327 327
285 285 292 291 288 294 298 296 297 299 309 312 312 313 317 317 320 323 325 327 330 329 329 329 329 329 328 330 330 329 330 329 330 330 329 330 330 330 328 330 329 326 326 325
286 288 286 296 299 295 294 294 298 306 308 311 311 314 314 317 321 323 324 326 329 329 327 327 328 328 330 329 330 330 330 329 327 329 329 330 330 330 329 328 327 326 325 325
290 292 295 296 297 301 303 304 304 305 308 311 313 313 314 316 319 322 323 325 328 328 328 327 327 328 329 329 329 330 330 330 330 330 329 330 330 328 331 332 325 327 327 327
289 297 295 295 300 300 301 301 302 302 305 308 310 311 314 314 315 318 319 323 323 326 327 327 326 327 327 328 330 330 329 329 328 329 329 329 328 325 296 301 300 301 305 316
297 300 299 301 301 302 301 301 302 301 302 305 307 311 312 312 314 311 316 319 320 322 324 324 324 324 326 327 329 330 330 330 329 326 329 329 328 327 325 312 295 295 297 299
301 300 296 298 297 301 301 301 302 302 302 302 303 307 309 309 311 312 312 312 313 314 316 318 318 317 321 325 327 329 331 309 330 329 330 330 328 327 328 326 326 326 300 301
300 300 299 300 299 298 298 300 299 299 299 300 302 303 305 304 305 306 310 310 310 310 310 312 314 313 316 319 326 327 328 328 329 330 330 326 329 326 327 326 325 327 322 305
300 301 300 298 298 296 297 297 297 297 299 299 300 301 302 303 303 304 304 306 304 305 306 310 311 313 315 317 324 327 328 310 316 330 329 329 328 327 324 325 324 325 327 327
298 297 298 297 296 295 295 296 297 297 298 296 298 300 301 301 299 299 300 302 302 302 302 304 307 313 314 316 319 326 327 327 312 329 329 329 329 328 327 324 323 324 326 324
302 301 301 299 297 295 294 296 296 296 296 296 298 298 297 296 296 296 297 299 301 300 298 301 302 309 312 310 316 322 325 327 326 327 329 329 329 329 329 328 326 325 325 320
303 301 301 299 298 296 295 295 294 295 295 296 296 295 295 296 296 296 297 296 297 295 295 298 296 302 309 304 303 322 323 323 324 326 327 317 327 329 329 329 329 328 327 323
302 302 301 300 299 297 295 296 295 295 295 296 295 294 293 293 295 296 294 291 291 293 295 296 300 301 304 307 303 319 321 321 321 322 322 324 326 327 328 313 325 329 329 327
301 301 300 299 298 297 296 296 295 294 294 295 294 293 292 292 292 292 292 290 289 291 292 292 296 298 304 302 306 311 314 316 315 316 319 322 325 325 324 322 323 323 325 326
301 301 300 300 298 297 297 296 296 295 294 293 293 293 292 292 293 290 290 289 289 288 290 291 292 288 297 296 303 304 306 307 307 307 307 308 309 310 309 312 314 314 316 320
302 301 301 300 299 297 297 296 295 294 294 293 293 292 291 290 290 290 288 290 290 288 290 290 287 286 288 298 297 297 298 300 300 300 301 301 301 304 303 303 306 308 306 307
303 302 302 301 300 298 295 295 295 294 294 293 293 293 294 291 290 291 291 289 287 288 288 288 288 286 289 293 293 293 293 294 295 296 296 293 296 297 298 298 299 300 300 301
303 303 302 301 299 297 296 296 295 295 294 294 293 293 293 293 292 292 292 291 287 289 289 287 287 288 292 291 291 291 291 291 290 292 292 292 293 294 295 296 295 294 295 295
303 302 302 303 301 299 298 297 295 295 295 293 293 294 293 293 293 293 291 290 291 289 291 290 290 292 291 291 291 291 290 291 291 290 291 291 291 292 292 293 293 293 294 294
304 299 302 301 301 300 299 297 296 294 294 295 293 293 293 292 292 291 290 291 291 291 290 290 290 289 290 291 290 290 290 290 288 291 291 291 291 292 292 293 293 293 293 293

GFSNGP_sfc_thetae_030.txt.gz
Theta_e
290 291 290 289 288 289 289 290 287 290 292 296 300 302 303 305 306 308 322 322 325 327 330 331 334 335 334 334 334 335 333 333 334 336 336 335 334 334 333 333 332 333 333 333
287 290 290 288 290 290 290 291 291 292 291 299 302 302 302 303 305 307 309 322 325 328 329 329 333 332 332 330 329 330 330 331 333 333 333 334 334 334 333 333 334 333 333 332
284 289 289 285 289 290 291 293 293 289 294 299 299 300 301 304 306 307 308 323 325 330 329 329 332 332 328 328 330 331 331 331 332 332 331 332 331 331 331 334 334 334 334 332
285 287 278 289 294 295 293 294 296 296 297 299 299 302 303 305 307 308 310 325 326 330 332 332 333 331 329 330 330 330 330 330 331 329 329 329 329 330 333 333 335 335 334 334
283 283 287 290 293 292 293 293 299 298 300 302 303 302 301 306 309 310 314 328 333 333 334 332 332 328 329 329 330 329 328 330 329 329 328 329 328 331 334 334 334 335 333 334
285 280 278 291 297 300 298 289 301 302 302 302 302 295 299 309 319 320 326 332 331 333 334 334 332 330 329 329 329 327 328 329 330 329 327 328 330 331 334 334 333 331 333 335
283 282 285 294 296 299 286 293 304 305 305 303 301 302 307 311 322 326 329 332 334 334 333 333 331 330 329 330 327 330 331 331 330 331 330 331 332 334 332 332 332 333 332 334
285 282 281 294 292 289 298 304 304 305 306 305 308 308 309 312 317 325 329 331 334 332 332 334 331 329 328 329 331 330 330 330 331 332 331 331 332 333 332 333 332 332 332 331
285 286 293 293 289 294 299 301 303 303 305 306 312 311 313 314 322 326 329 331 334 331 332 332 330 329 329 331 330 331 330 331 332 332 331 333 334 334 334 335 331 331 330 327
287 291 289 293 299 298 297 300 300 300 302 312 314 316 318 321 324 327 330 332 332 330 328 327 328 330 331 332 330 331 330 331 333 332 331 333 333 333 335 335 331 330 328 327
292 295 295 296 298 300 300 301 301 307 311 314 316 317 319 322 326 328 331 332 330 327 325 325 328 329 331 332 332 331 331 332 333 331 332 333 335 331 335 335 327 332 331 329
290 297 294 296 299 301 300 301 302 303 307 312 315 315 318 320 326 328 330 332 331 329 325 325 327 328 330 331 332 332 331 330 329 331 331 330 330 329 297 299 298 300 301 316
297 300 299 299 298 298 298 301 302 302 304 310 313 315 316 317 320 317 326 325 327 331 330 327 326 327 329 330 331 332 330 331 329 326 330 328 330 330 328 315 296 295 298 297
302 300 296 298 295 298 299 301 302 302 303 306 309 312 313 313 315 318 316 316 320 324 328 331 329 327 329 330 330 331 332 312 329 328 330 328 328 329 328 329 327 327 301 301
299 302 300 300 299 298 301 301 300 299 300 301 304 306 309 308 310 312 315 315 315 317 321 322 323 322 327 329 330 330 331 329 330 329 330 326 327 329 328 328 329 329 324 309
300 300 299 299 297 298 300 299 301 297 298 299 300 302 304 305 305 308 309 311 312 311 314 318 319 321 323 329 331 331 331 313 317 331 331 330 329 325 327 327 328 330 329 327
299 296 298 298 295 296 298 300 300 297 298 298 298 299 301 301 302 303 304 305 305 305 307 311 314 320 320 325 330 328 328 330 312 331 330 330 329 328 325 325 325 327 330 326
303 301 300 298 296 297 297 299 298 298 297 300 298 299 298 297 298 299 300 304 301 303 302 305 307 317 319 319 325 331 329 328 328 327 328 329 330 331 330 327 325 324 327 322
303 301 300 298 297 297 298 298 299 300 298 298 297 297 298 298 298 298 296 296 297 295 296 301 299 310 318 311 312 329 330 329 328 328 329 319 330 331 330 330 329 328 328 327
303 302 301 299 298 298 298 299 298 299 300 298 299 297 295 296 299 298 295 291 291 292 296 298 304 309 311 312 306 327 328 327 328 330 331 330 330 332 332 316 329 331 331 330
303 303 300 299 298 298 299 299 297 296 298 299 295 295 294 294 294 295 294 290 290 293 295 295 300 305 307 306 312 316 314 314 314 316 316 319 323 325 326 328 327 328 330 332
305 304 302 300 298 298 299 300 299 298 297 298 297 297 295 295 295 291 291 290 290 289 295 297 296 292 302 298 307 307 306 304 305 305 306 307 306 306 307 308 307 308 310 312
306 305 304 301 299 299 300 300 299 297 297 296 295 294 293 292 293 293 290 290 290 289 292 292 288 289 293 306 303 302 300 299 298 298 299 300 300 301 299 299 300 300 301 301
306 306 305 303 302 300 298 299 299 298 297 297 297 298 297 293 292 292 292 289 288 289 290 290 289 287 292 298 297 296 296 295 295 296 296 293 297 297 296 296 296 296 296 296
307 307 306 305 303 301 300 300 300 300 299 298 297 297 298 298 295 294 293 292 289 293 295 287 287 288 294 294 294 294 292 292 293 294 295 294 294 294 295 295 294 295 295 295
308 307 307 307 305 303 302 302 299 300 299 298 298 298 298 298 297 296 296 295 297 293 296 297 299 298 297 296 294 294 295 295 295 294 294 295 294 294 295 295 296 296 295 296
309 302 308 307 306 305 304 302 300 299 299 299 297 298 298 297 296 296 294 297 297 297 297 297 296 295 297 297 296 297 296 295 293 297 297 298 298 297 297 297 296 295 296 297

GFSNGP_sfc_thetae_033.txt.gz
Theta_e
290 292 292 290 290 290 289 290 286 289 289 292 297 302 305 306 307 309 320 324 325 329 332 335 335 336 336 336 337 338 336 336 338 339 338 337 336 335 334 334 333 332 332 333
287 291 292 289 291 291 291 292 291 291 290 297 301 304 304 305 306 307 313 323 326 329 331 332 333 334 333 333 333 334 332 332 333 333 332 334 334 335 334 332 335 334 333 333
284 290 290 286 290 291 292 294 293 289 294 299 299 301 303 305 306 307 310 323 325 328 330 332 332 333 331 329 330 330 331 331 331 332 331 332 332 332 331 335 336 336 334 333
286 288 280 291 296 295 293 295 296 296 297 299 300 303 305 306 306 307 310 318 326 331 331 333 332 331 330 330 330 329 330 329 330 328 329 330 331 330 336 336 336 335 334 335
283 284 288 291 294 293 293 293 299 298 299 301 302 304 305 308 308 309 311 315 330 333 334 334 331 329 330 329 329 329 329 328 328 328 328 327 328 331 335 334 335 335 335 335
286 281 279 290 296 301 301 290 301 303 301 302 304 298 302 307 312 318 321 322 332 333 332 333 330 331 329 328 329 328 328 329 329 329 328 329 331 332 335 334 333 332 334 335
284 283 287 295 297 300 287 291 305 306 306 307 303 306 310 313 314 316 326 332 335 335 330 332 330 331 328 329 327 329 329 330 328 329 329 333 335 335 334 332 333 334 333 334
287 283 281 296 294 289 298 301 301 305 305 306 309 312 310 311 313 319 324 332 330 329 329 331 331 329 328 329 330 332 330 328 329 331 327 330 334 333 332 334 333 333 333 330
285 286 296 297 293 295 294 294 300 304 307 307 309 311 315 314 316 316 318 328 330 329 331 330 330 329 330 331 331 329 330 330 331 330 331 332 334 334 333 333 330 331 331 328
287 293 292 296 297 299 302 303 303 306 306 308 311 313 317 316 317 317 328 328 331 330 329 327 327 330 332 330 329 329 328 329 331 330 331 334 333 335 336 336 334 333 330 329
292 293 296 296 295 296 300 302 301 304 306 311 316 317 321 320 323 326 330 329 329 329 327 325 327 331 330 330 330 328 330 329 331 328 332 334 332 329 336 329 325 334 332 331
288 295 295 294 296 298 298 300 302 303 305 313 318 318 318 319 326 328 330 328 328 327 326 325 328 331 331 329 331 329 327 329 327 328 329 330 330 328 297 299 296 296 298 317
295 299 298 297 297 299 298 301 302 303 304 308 314 314 317 319 323 322 326 328 323 324 324 326 327 329 330 331 331 330 332 331 328 325 329 327 329 328 326 315 297 295 296 298
301 300 296 298 296 300 302 302 302 302 303 307 311 312 315 316 318 320 322 325 331 325 325 327 327 326 329 330 331 329 333 312 328 327 326 330 330 328 328 326 326 325 301 303
299 301 298 299 300 300 301 302 298 299 300 302 308 306 309 312 313 315 320 323 324 323 325 324 326 327 328 329 330 329 328 327 328 329 328 325 328 328 329 329 326 325 321 308
299 299 298 298 299 299 299 299 297 297 298 299 301 304 306 308 308 309 310 316 314 314 318 322 324 326 328 329 330 330 328 312 316 329 328 327 328 325 327 328 328 327 327 325
297 296 296 296 298 299 298 298 297 298 297 299 299 300 303 304 306 306 306 307 307 308 311 313 319 322 326 331 332 328 328 328 312 328 326 327 325 325 327 327 327 326 327 325
302 301 299 298 298 299 298 298 297 297 297 298 299 299 298 299 298 298 301 304 304 304 306 309 314 322 325 323 325 329 328 326 326 327 327 327 327 327 325 324 325 328 328 322
303 299 298 298 300 300 300 300 298 298 299 298 297 297 298 297 295 295 295 294 295 297 300 308 305 315 324 314 314 328 328 326 325 326 328 320 329 328 327 326 325 325 329 327
302 300 298 298 300 300 299 300 301 298 299 298 297 296 294 296 297 294 293 292 292 295 300 304 314 316 319 318 309 324 326 328 328 328 327 327 327 328 328 318 324 324 329 328
302 300 299 299 299 299 300 300 300 300 300 300 298 297 296 295 294 294 293 289 292 295 297 298 303 312 313 313 313 313 311 312 315 319 321 320 322 320 319 320 320 319 318 322
304 301 300 299 299 299 300 300 300 300 300 299 297 297 298 297 295 291 291 290 293 290 296 299 300 291 305 301 306 303 303 304 304 303 304 305 306 306 306 306 306 307 308 308
305 304 303 300 300 301 301 301 299 299 300 300 298 296 294 293 293 290 288 291 293 291 295 296 289 289 291 306 302 299 298 298 298 298 298 298 298 298 297 298 298 300 301 300
306 306 304 304 303 301 300 301 301 300 299 299 301 301 298 294 292 294 293 291 289 290 292 292 291 289 293 300 298 297 296 296 295 296 296 293 295 296 296 295 295 295 296 295
307 307 307 305 303 301 302 302 302 302 301 299 300 300 300 299 295 294 296 296 290 294 295 288 288 290 298 296 295 295 295 296 296 296 295 295 295 295 295 295 295 296 296 296
308 307 307 307 306 305 303 302 301 301 301 300 299 300 300 300 299 298 298 296 298 295 297 298 298 296 296 297 298 297 296 296 296 295 295 296 296 296 297 297 297 297 297 298
308 302 307 306 307 307 305 302 301 301 301 301 300 300 300 300 299 299 295 299 298 298 298 298 299 297 299 299 298 297 298 298 295 299 299 299 299 299 298 298 297 297 297 297

GFSNGP_sfc_thetae_036.txt.gz
Theta_e
289 290 290 289 288 290 289 290 286 287 288 292 294 296 299 301 305 308 320 323 329 331 333 335 334 336 335 336 339 341 338 336 337 338 338 339 338 338 337 336 335 334 335 332
287 290 290 288 291 291 291 291 290 290 289 296 299 300 300 302 305 305 313 318 326 329 329 330 333 332 333 336 337 338 337 337 337 337 336 336 336 333 336 336 335 331 332 332
284 290 289 285 289 290 291 292 291 287 293 297 296 299 301 304 305 305 307 320 320 328 329 333 330 331 333 333 334 333 332 332 332 333 331 331 332 332 335 335 334 332 331 332
285 288 279 290 296 296 293 294 295 294 297 298 298 301 302 305 306 306 307 321 320 330 331 334 329 331 331 330 329 329 329 328 330 330 330 331 331 332 335 334 335 334 333 333
283 284 288 291 294 294 291 291 299 297 297 299 301 302 302 306 307 308 311 319 327 331 332 333 327 329 329 329 329 328 328 328 330 330 329 329 330 332 334 333 333 334 334 334
285 281 279 290 297 298 297 287 301 300 302 304 302 296 300 310 310 310 317 320 324 330 331 334 327 331 329 328 329 328 328 328 330 329 329 330 330 333 334 334 334 334 332 333
284 282 286 295 296 298 284 289 299 301 299 301 304 307 311 311 312 318 325 324 325 330 330 332 331 332 329 329 329 329 328 329 328 329 329 330 332 333 333 334 333 332 331 331
286 284 281 297 294 289 294 296 296 298 300 301 305 308 311 314 315 315 317 320 331 329 328 330 332 331 329 329 331 331 328 327 330 332 329 331 332 334 333 334 331 330 328 328
285 287 296 297 294 296 296 294 298 298 300 302 304 307 311 312 317 317 319 322 329 330 329 328 331 331 330 332 332 328 328 329 329 328 329 332 333 333 329 333 331 330 327 326
287 293 292 295 297 296 297 298 304 303 302 303 304 308 311 315 318 320 321 323 329 328 324 328 331 333 332 330 331 330 330 329 329 330 330 332 333 334 334 334 333 331 328 327
292 294 294 296 295 296 297 301 303 305 306 306 308 310 315 318 322 324 325 326 328 326 324 328 330 331 329 331 329 330 329 329 328 330 329 325 317 315 328 315 323 330 330 328
288 295 294 294 297 297 297 299 301 302 303 307 313 316 320 320 320 322 321 325 326 326 325 326 328 329 329 330 330 329 327 329 328 328 332 329 326 320 297 296 296 296 302 321
295 299 298 298 298 299 300 300 301 301 302 306 311 316 318 316 318 319 322 319 322 325 324 329 329 329 329 328 329 331 328 331 324 326 327 327 327 325 319 309 297 295 296 303
301 299 296 297 296 300 301 300 301 301 302 308 308 310 312 313 316 318 319 325 326 323 325 329 328 328 329 330 330 329 327 311 325 329 329 327 327 326 326 325 323 320 299 299
298 299 299 300 300 298 300 299 298 298 300 302 307 306 308 308 308 310 314 321 322 325 325 325 327 327 329 328 331 326 327 326 326 330 329 325 329 328 328 327 323 319 314 306
298 298 299 298 299 297 297 297 296 296 298 300 301 303 306 308 307 307 309 311 313 312 315 317 319 323 325 327 331 331 325 313 316 329 328 328 327 328 327 327 324 324 323 317
295 295 296 297 298 297 296 297 297 297 297 298 299 300 301 302 302 303 305 309 310 310 312 314 314 321 324 324 329 329 326 323 313 323 326 329 328 328 329 328 326 327 325 319
299 299 298 299 298 299 297 297 298 297 296 297 298 298 296 296 296 297 299 303 305 304 304 310 311 316 324 319 320 328 326 327 326 325 324 324 328 328 330 328 327 326 327 316
299 297 298 300 300 299 300 298 298 298 298 297 296 295 296 294 294 295 297 296 296 297 298 305 299 315 320 311 320 325 325 326 326 323 327 319 323 325 322 328 328 326 326 323
299 299 299 299 300 300 300 300 299 299 298 298 296 294 292 293 295 294 294 292 293 295 299 301 308 315 315 311 306 319 318 324 327 323 324 326 321 322 321 310 324 325 326 326
300 299 299 299 299 300 300 302 301 298 298 297 297 294 292 292 292 292 292 290 292 293 298 298 303 310 308 307 310 310 311 310 312 316 317 317 316 314 315 314 313 314 314 314
302 300 299 299 300 299 300 301 302 300 297 296 295 295 293 292 292 291 291 291 293 290 296 299 299 292 299 297 306 306 305 303 303 303 301 302 303 304 305 306 305 304 305 305
303 302 300 300 299 300 300 299 300 301 300 297 296 293 291 291 292 291 289 292 293 291 296 295 290 289 290 300 300 300 300 300 299 298 298 298 298 297 298 297 298 298 298 298
305 303 302 302 302 301 299 300 300 300 300 301 300 298 295 292 293 295 295 292 290 291 292 292 291 289 292 297 298 298 298 297 296 296 296 293 297 297 296 297 296 296 296 295
306 306 305 303 301 300 302 302 301 300 300 300 301 300 299 298 296 297 297 295 290 294 295 289 289 289 296 296 296 295 296 297 297 296 297 297 296 296 296 295 295 295 294 294
308 306 307 307 305 303 302 302 300 300 300 299 299 301 300 299 299 299 298 295 297 294 296 296 296 297 297 297 296 296 296 296 296 296 296 296 296 296 296 296 296 295 295 294
308 303 308 305 305 305 303 301 300 299 300 299 298 299 300 300 299 299 295 298 298 297 297 297 297 295 297 296 297 298 298 297 295 297 297 297 296 296 294 294 293 293 293 293

GFSNGP_sfc_thetae_039.txt.gz
Theta_e
288 289 290 288 288 288 286 287 283 286 287 291 294 295 298 299 300 299 300 303 316 320 324 328 332 335 336 337 338 338 337 335 334 335 335 334 332 329 328 326 325 326 329 329
287 289 289 287 289 289 288 288 288 289 288 295 297 298 298 298 299 299 300 309 315 323 323 322 331 333 335 335 334 336 334 333 334 334 333 330 328 327 325 325 326 327 329 327
281 288 288 283 288 289 290 292 290 286 291 294 295 296 296 297 299 299 302 309 316 317 321 320 324 331 333 334 333 332 332 332 333 331 330 327 325 325 327 324 328 329 329 325
280 284 275 287 296 295 291 293 296 297 297 297 297 297 299 300 299 299 302 310 316 318 320 319 323 330 330 331 331 331 330 328 329 327 326 325 326 328 328 328 328 328 325 322
280 277 285 289 292 291 289 289 295 294 297 299 301 302 297 306 308 301 302 308 318 319 320 327 327 326 325 324 323 324 325 326 327 327 326 324 327 327 327 324 323 324 324 321
282 277 277 287 294 297 294 283 294 294 294 295 298 292 296 307 308 312 318 319 319 315 318 327 325 324 322 321 323 323 324 326 326 326 326 327 324 325 323 324 324 326 325 321
282 280 283 293 294 296 283 284 293 294 293 294 293 297 300 306 309 311 314 321 323 324 323 326 326 323 321 323 322 324 325 326 326 324 325 326 327 324 323 323 324 325 323 320
285 281 279 295 293 286 291 294 294 294 295 294 297 299 301 305 308 310 315 319 324 324 323 326 323 325 324 322 323 324 326 325 324 325 328 327 325 327 323 323 323 323 321 320
285 285 293 294 293 297 297 294 294 295 297 299 299 298 301 304 308 310 316 320 323 324 324 325 325 327 324 324 323 325 325 324 324 325 326 326 323 323 323 323 323 322 321 319
287 291 288 294 297 297 296 295 297 298 301 300 297 300 304 306 308 312 316 320 325 323 325 324 326 327 327 324 325 325 323 321 322 325 326 323 325 324 322 321 322 323 321 318
290 293 293 296 297 297 297 298 299 302 304 303 304 305 307 309 314 319 322 325 327 326 323 324 327 326 326 326 326 324 322 323 325 326 320 316 311 312 320 316 317 325 324 320
287 294 292 293 297 298 297 299 300 301 301 304 309 309 315 317 318 320 321 325 324 325 325 325 325 324 326 328 327 325 322 322 324 324 322 319 317 312 296 295 295 304 310 317
294 298 296 297 298 300 299 299 300 300 301 305 307 309 311 311 317 315 320 321 323 323 323 324 324 325 326 327 327 323 321 323 324 324 323 320 318 317 315 307 297 294 295 301
299 298 295 297 296 298 299 299 300 301 301 303 305 307 308 308 311 315 319 321 321 320 321 324 323 323 325 327 325 324 323 313 324 325 326 322 320 318 319 318 315 311 298 298
297 297 298 300 298 297 299 298 297 297 299 300 303 303 305 305 306 309 312 316 318 321 323 323 321 321 324 324 327 323 324 325 323 325 324 322 323 321 322 317 314 311 311 303
297 296 297 298 296 297 297 297 296 296 297 298 298 300 301 301 301 306 307 309 310 311 313 314 315 321 324 325 324 322 322 311 315 322 325 323 323 322 319 317 316 317 316 313
293 292 293 295 296 296 296 297 296 296 296 297 297 298 299 298 297 298 300 304 306 305 308 308 308 319 319 318 323 320 322 322 314 323 321 325 324 322 321 320 320 318 316 313
296 296 295 296 297 297 296 297 296 296 296 296 297 296 295 295 294 295 297 300 303 304 301 304 304 314 316 314 320 322 323 322 321 323 325 323 322 325 323 322 322 319 317 307
296 297 297 297 298 298 297 297 297 297 296 295 294 292 294 295 295 295 295 297 296 298 297 303 303 310 312 305 316 322 323 323 323 323 322 312 316 320 322 323 322 320 318 314
296 297 298 298 298 299 298 298 298 297 298 295 293 292 291 291 293 294 295 293 293 294 300 300 304 306 308 306 304 311 313 318 317 315 314 316 315 317 316 310 322 321 320 318
297 297 298 298 297 298 299 298 298 296 296 296 294 292 292 292 292 292 293 293 293 296 297 296 297 302 305 303 305 307 305 303 305 308 308 309 307 306 306 306 306 306 306 305
297 297 297 298 297 296 298 298 298 297 296 293 293 292 292 291 293 292 292 291 294 292 296 296 296 289 297 297 302 303 303 302 300 300 300 300 300 300 300 299 299 300 298 298
299 299 298 298 297 296 297 297 299 298 296 294 293 292 292 292 292 290 289 293 294 292 295 293 289 288 290 299 299 299 299 299 299 299 298 297 297 297 296 296 296 294 295 294
300 299 299 300 299 297 295 297 297 299 298 297 296 296 295 293 293 294 294 292 290 292 292 292 291 288 293 298 297 297 296 296 296 296 296 294 295 294 293 293 293 294 294 294
303 302 300 299 298 297 297 297 297 298 297 296 296 296 297 297 295 295 295 295 290 294 295 289 289 290 296 296 296 296 296 296 296 296 295 294 294 293 293 293 292 292 291 291
304 303 303 301 299 299 299 297 295 296 296 296 295 295 296 296 296 296 296 294 295 293 296 297 297 297 297 296 296 296 296 295 295 295 295 295 295 294 293 293 292 291 291 290
305 300 302 301 300 299 298 297 296 295 295 295 294 296 296 295 294 295 294 296 296 296 295 296 297 296 297 297 297 296 296 296 294 295 294 293 293 292 292 292 292 292 291 290

GFSNGP_sfc_thetae_042.txt.gz
Theta_e
288 289 289 288 287 288 286 286 281 284 284 288 291 293 295 298 301 301 300 301 302 308 309 319 320 323 333 335 337 337 335 336 334 335 336 335 334 333 333 332 331 328 327 326
284 288 288 286 289 289 288 288 287 287 285 292 294 296 296 298 300 299 300 301 305 311 311 318 324 327 333 334 335 335 334 334 334 333 332 329 328 326 326 323 326 324 323 323
280 286 285 282 288 290 290 291 288 283 288 296 295 297 297 297 298 298 299 300 312 313 311 318 318 324 329 333 334 334 332 333 332 330 329 327 326 324 322 322 323 323 323 321
281 282 275 288 294 293 290 292 293 292 294 294 294 297 300 302 300 303 307 304 315 317 318 320 322 320 326 333 333 332 331 331 330 328 326 323 324 322 323 326 326 324 321 318
279 278 284 289 292 290 288 287 292 290 292 293 295 297 299 303 303 306 310 314 316 318 319 321 320 322 328 330 330 329 328 328 327 324 322 325 326 325 326 327 324 320 317 316
282 276 274 288 293 295 294 282 293 292 291 291 293 288 293 299 301 305 309 314 314 317 318 320 321 323 325 325 325 324 324 324 324 325 326 325 326 325 324 321 323 322 319 317
281 280 282 292 293 295 282 283 292 293 293 291 290 293 296 300 301 305 309 314 318 318 316 316 320 324 322 323 322 323 324 323 323 326 325 326 325 324 321 323 322 319 317 316
284 281 277 294 292 286 291 294 295 294 294 294 295 297 299 302 301 303 307 313 321 319 320 322 324 323 320 320 323 324 324 323 322 323 327 326 324 320 322 322 320 319 318 318
285 283 291 294 291 294 297 294 294 294 296 296 297 299 301 300 301 304 308 314 321 319 320 321 325 322 320 321 325 325 323 321 322 324 326 325 323 321 321 322 320 318 316 316
287 290 289 292 296 297 298 296 297 299 298 300 301 300 300 304 305 307 311 315 320 320 319 320 325 323 323 324 324 324 322 320 319 322 321 320 322 322 322 321 320 319 316 316
289 293 293 293 294 296 297 298 298 301 301 301 302 304 306 309 313 314 316 319 323 320 321 322 324 322 324 324 324 322 320 321 323 320 317 312 307 310 320 318 318 321 318 318
287 294 291 292 296 298 297 297 299 299 299 302 305 306 309 309 310 315 318 320 320 322 324 325 323 324 323 325 324 321 320 323 322 318 317 313 311 307 294 295 298 300 306 313
295 297 295 297 298 298 297 298 299 299 301 300 304 306 307 308 310 316 320 318 319 323 322 324 323 323 323 324 323 321 320 321 320 320 318 316 316 314 309 303 298 295 298 299
299 296 295 297 294 297 298 298 299 300 300 301 301 303 304 304 310 312 315 320 321 321 322 323 323 323 324 325 322 321 322 313 321 320 319 316 316 316 317 317 316 310 297 297
295 296 297 299 297 297 298 298 297 296 297 298 300 300 301 300 304 305 307 314 319 315 314 316 320 322 324 324 323 321 321 321 323 323 320 317 317 317 316 316 313 309 308 300
295 294 296 297 296 296 296 296 295 295 296 297 297 298 300 299 300 301 303 306 310 309 308 309 312 317 324 323 321 320 321 311 316 322 320 320 318 317 315 315 315 316 315 311
292 291 292 296 295 296 295 296 296 295 295 295 296 297 298 298 297 297 299 301 305 304 305 307 308 313 318 320 320 322 321 318 312 323 321 321 319 317 316 317 316 315 315 306
294 295 295 297 296 296 296 297 296 295 294 295 294 295 296 295 294 294 296 299 301 303 303 305 307 313 315 315 318 321 321 320 322 322 323 322 320 319 319 318 317 316 314 308
295 296 296 298 298 297 297 296 296 296 295 294 293 292 293 294 295 295 296 296 296 298 299 302 303 309 310 304 313 322 321 322 320 320 321 313 321 321 321 319 317 316 316 316
295 296 297 297 299 298 296 297 297 295 295 294 293 292 291 292 294 296 296 294 294 296 298 298 304 308 308 305 303 317 316 315 314 313 316 319 318 319 319 310 316 316 313 313
295 296 295 296 295 298 297 297 296 294 294 294 292 292 292 293 293 293 293 292 294 295 296 295 296 302 304 303 305 305 307 309 306 304 307 307 307 307 307 307 307 305 303 304
295 295 295 295 294 294 296 296 297 295 294 293 293 293 292 292 293 293 292 292 294 290 294 296 295 290 300 299 303 303 301 302 303 302 301 301 303 302 300 300 299 298 297 296
295 296 296 295 294 294 296 297 296 296 294 294 294 293 292 292 292 291 290 293 294 291 295 294 289 289 290 300 299 300 299 299 298 298 298 297 298 297 297 295 295 295 294 293
296 296 296 296 296 295 293 295 296 297 296 296 296 296 295 292 292 294 295 293 290 291 292 291 291 289 292 296 296 296 296 296 298 295 294 293 295 295 293 293 293 292 292 292
301 297 296 295 294 293 294 295 295 295 295 295 296 296 296 296 294 295 294 295 291 295 295 289 289 290 296 296 296 296 295 295 294 294 293 292 292 292 292 291 290 290 290 290
301 301 297 296 296 295 294 293 293 294 294 292 293 295 296 297 296 295 295 295 297 294 296 296 296 296 296 296 295 295 294 294 294 293 292 292 291 291 290 290 290 290 289 289
303 300 302 295 296 296 294 294 292 292 293 293 292 293 294 294 294 295 293 295 295 296 296 296 296 295 296 295 294 294 293 293 292 293 293 292 291 291 290 290 289 289 288 288

GFSNGP_sfc_thetae_045.txt.gz
Theta_e
288 288 288 287 286 287 286 287 283 284 284 287 290 291 292 296 297 297 299 299 301 300 304 307 315 321 321 331 332 333 334 334 335 334 335 337 336 335 334 334 334 333 331 330
284 287 287 285 287 288 288 288 287 287 286 292 294 296 297 297 299 297 299 299 301 304 307 309 314 321 325 332 333 335 333 333 334 334 334 335 334 332 331 328 329 329 326 326
280 285 284 281 288 289 289 291 289 283 289 293 291 292 293 294 299 300 302 305 306 307 308 309 315 319 319 330 333 332 331 332 331 330 329 329 328 327 326 325 323 321 319 318
280 282 273 286 294 293 289 290 292 290 292 292 291 293 294 297 300 299 302 304 307 312 313 315 317 317 319 319 318 331 330 329 329 328 325 325 325 324 323 322 319 318 317 318
278 278 283 286 292 289 287 286 292 290 292 292 293 293 294 302 300 300 302 304 309 314 315 318 319 320 318 319 318 325 328 328 328 326 324 324 323 324 322 321 318 317 318 317
282 277 275 285 293 295 293 281 292 292 291 291 292 285 289 297 299 299 303 304 307 315 318 317 321 320 320 320 321 327 328 327 325 326 325 323 324 322 321 321 320 319 316 319
282 280 282 290 293 294 280 282 292 293 293 293 290 292 295 298 299 302 304 304 309 316 317 318 320 321 320 318 324 327 326 324 324 324 323 322 321 324 324 321 317 316 315 316
283 280 276 293 292 286 289 292 294 295 294 294 295 296 297 299 301 303 303 304 310 316 316 319 318 318 319 318 323 322 322 321 322 323 324 325 323 323 322 318 317 315 316 318
285 284 291 295 293 294 293 293 295 295 296 297 297 297 299 300 302 303 305 308 314 318 316 318 322 322 320 321 322 321 321 320 323 324 324 324 322 321 320 319 317 316 316 316
287 290 290 295 295 296 296 296 297 298 298 299 298 300 301 303 305 307 311 313 317 318 316 318 322 323 322 323 322 321 320 320 322 323 322 323 323 322 320 318 317 316 316 316
288 292 294 295 292 295 296 298 297 298 299 299 299 301 303 305 308 311 312 315 318 319 320 320 322 321 323 323 322 321 319 320 321 321 318 310 304 309 319 315 316 318 317 317
288 295 293 291 295 297 295 294 297 297 298 300 301 301 304 304 307 310 312 319 320 320 321 321 323 323 321 323 322 320 319 319 316 315 315 311 311 307 295 297 300 302 305 312
295 298 296 295 297 297 295 297 298 298 299 298 301 301 302 302 304 311 318 318 319 320 321 324 321 322 322 322 321 321 320 318 315 314 314 313 313 314 310 302 296 296 296 297
298 294 292 295 294 296 297 298 299 299 299 299 299 300 301 301 305 310 315 318 318 318 318 322 323 319 321 321 321 321 319 308 319 317 316 316 315 315 317 319 315 310 296 297
294 294 296 296 296 297 298 297 296 296 296 297 298 298 299 299 301 305 308 315 315 313 313 319 319 318 321 322 321 321 321 320 319 318 316 314 316 318 318 317 315 308 306 300
294 294 296 296 296 296 296 295 294 294 295 295 296 296 297 300 300 302 304 307 308 306 308 310 311 312 321 321 321 321 320 306 312 318 317 316 315 316 315 315 314 314 313 308
291 291 292 294 295 295 295 296 295 294 294 294 294 295 296 297 299 299 300 304 306 305 305 306 306 311 319 320 320 320 319 318 308 319 318 317 316 316 317 317 316 314 311 306
294 294 295 297 296 295 295 296 296 295 293 294 294 294 294 295 295 296 297 302 304 303 300 301 303 310 312 317 319 320 321 321 321 320 319 317 317 318 317 317 315 313 312 303
295 295 296 298 298 297 297 297 295 294 294 294 293 293 293 294 296 296 296 295 296 297 296 299 300 306 308 304 316 321 322 321 322 321 319 309 317 318 317 317 316 316 316 313
296 296 296 296 298 297 296 297 295 294 294 294 294 293 292 293 294 296 296 293 293 295 298 298 302 305 306 306 309 318 318 318 319 320 319 319 318 316 314 307 315 314 310 306
295 295 295 295 296 297 296 297 295 294 294 294 293 292 292 294 293 293 293 293 293 294 297 298 297 301 305 304 309 309 309 311 313 313 312 312 314 315 308 305 304 305 303 301
293 294 294 295 295 295 296 297 296 295 295 294 293 293 292 292 293 293 293 291 294 290 296 296 296 292 302 299 304 305 305 303 304 305 306 306 304 302 301 299 297 296 295 294
293 295 294 294 294 295 296 297 296 296 294 295 294 293 292 292 292 291 289 293 293 291 294 294 289 290 292 304 302 302 300 300 299 300 302 300 299 299 297 296 295 293 292 291
295 294 294 295 295 294 293 295 295 295 295 295 295 295 294 293 293 295 295 293 290 291 292 291 290 289 293 298 299 301 299 297 296 296 298 295 296 295 294 293 291 291 290 290
301 296 295 293 292 292 293 294 293 293 293 294 295 296 295 295 293 295 296 296 291 294 295 290 289 290 295 295 295 294 294 295 295 295 296 295 293 292 292 292 291 291 290 289
302 300 296 295 294 293 293 293 292 292 292 291 292 294 296 296 296 296 296 294 296 294 295 295 295 295 295 294 294 293 293 292 293 292 291 292 291 290 290 290 290 289 289 288
296 297 301 296 294 295 293 292 291 291 292 292 291 292 293 295 294 293 292 296 296 296 295 295 294 293 293 293 292 292 292 292 291 291 291 291 290 290 289 289 288 288 288 287

GFSNGP_sfc_thetae_048.txt.gz
Theta_e
287 287 287 286 285 286 284 285 282 284 285 288 291 292 292 294 296 296 298 300 298 301 305 306 307 308 310 318 323 328 328 329 329 331 332 333 333 334 335 336 336 336 334 335
284 287 286 284 287 286 286 287 287 288 286 293 293 294 293 294 294 295 299 301 303 305 306 308 311 310 312 319 328 332 331 331 333 333 335 334 333 334 334 332 333 333 332 332
280 284 284 280 285 287 288 291 290 285 288 291 291 291 292 293 294 295 299 301 302 304 307 307 310 312 316 320 330 333 333 333 334 335 333 333 333 331 329 329 331 329 327 327
282 282 274 284 293 292 289 290 292 291 291 293 293 294 294 295 294 295 300 300 302 304 305 307 311 317 318 321 328 331 332 332 332 332 331 331 330 328 327 325 323 322 321 320
279 278 281 285 289 289 287 286 292 290 291 292 294 294 292 297 298 300 299 300 302 304 306 308 312 318 317 319 319 329 328 328 328 328 327 327 326 325 323 321 319 318 319 320
282 276 274 283 292 294 292 283 292 291 290 290 293 286 289 295 297 297 299 301 303 305 307 307 314 318 317 319 319 327 328 327 327 327 327 326 325 322 321 319 318 319 319 320
281 279 280 290 293 294 282 283 291 292 291 292 290 292 296 299 299 300 301 302 306 307 307 311 318 321 318 318 320 328 327 326 326 326 326 325 324 322 320 319 318 317 317 319
281 278 273 294 292 285 291 292 293 293 294 293 295 296 298 299 300 301 302 304 307 308 311 314 319 320 318 316 322 327 325 325 324 324 325 324 323 321 319 319 317 317 318 318
283 283 292 295 294 296 296 291 293 294 295 296 296 296 298 299 301 302 304 307 311 313 313 315 318 319 318 318 318 324 324 323 323 323 324 324 322 320 318 318 317 316 316 317
287 290 290 294 296 295 294 294 296 295 295 296 295 297 298 300 302 304 307 309 313 314 315 313 318 317 321 321 323 323 321 322 322 322 322 324 322 321 319 317 317 317 317 317
289 291 291 293 294 294 294 296 295 297 297 297 298 298 299 301 302 303 305 308 312 314 318 320 321 322 321 323 322 321 322 322 322 322 318 308 304 314 319 319 318 318 318 318
287 294 293 291 294 296 294 294 296 296 296 298 299 299 300 300 301 303 305 308 312 320 320 320 321 320 321 322 322 321 320 320 319 317 314 313 312 309 295 298 301 302 305 313
293 297 295 294 296 296 296 296 297 297 297 297 298 299 299 299 301 303 311 317 317 319 321 322 321 320 322 322 322 321 317 317 315 315 316 314 315 315 310 301 294 294 295 296
297 293 292 293 292 296 297 297 297 297 298 297 297 298 298 298 301 303 306 314 314 316 321 320 319 319 321 323 322 320 317 306 317 316 317 316 316 316 317 317 313 308 295 296
293 294 294 295 296 296 297 296 296 294 295 295 296 296 297 297 299 300 305 311 312 313 314 318 319 319 323 322 321 320 320 319 319 318 318 315 318 318 319 317 312 306 306 299
294 293 295 293 294 296 295 295 294 294 294 294 294 294 295 298 299 300 304 307 306 304 307 310 313 315 322 323 322 321 318 305 311 318 317 318 319 318 316 314 313 313 309 306
291 291 293 292 295 295 295 296 296 294 294 293 293 295 295 296 297 297 300 305 304 302 301 304 306 314 320 322 321 320 318 317 308 318 316 317 317 317 317 316 314 312 310 307
294 295 295 295 295 295 295 296 294 294 292 294 294 294 294 294 294 295 297 300 303 302 300 301 304 311 320 322 322 321 320 320 320 317 317 318 318 318 317 315 314 312 311 301
294 294 296 295 297 296 296 295 294 294 294 294 293 293 294 294 294 296 296 296 297 298 297 300 298 306 315 312 319 323 322 321 319 318 317 310 317 318 316 315 315 313 312 310
295 296 295 296 297 296 296 295 295 294 294 294 294 293 292 293 293 295 296 293 294 297 299 299 306 308 309 310 310 323 322 321 318 316 316 316 317 316 315 308 314 310 306 303
294 295 295 295 295 296 296 296 296 294 295 294 293 292 292 293 294 293 292 293 293 297 298 297 302 307 306 307 312 319 321 320 318 317 316 315 312 310 308 306 305 303 300 297
293 294 295 295 295 295 296 296 296 295 295 294 294 293 292 292 293 293 293 292 293 291 297 299 301 297 300 300 310 311 310 312 312 312 309 307 304 302 300 298 297 297 296 295
294 294 294 295 294 295 295 295 295 295 294 294 293 293 293 293 293 291 290 293 293 291 295 293 291 292 293 304 304 305 306 305 304 305 305 303 301 299 296 295 293 292 292 291
300 296 294 295 295 295 293 293 294 295 295 295 295 294 294 293 294 296 296 293 290 291 292 291 291 289 293 302 302 300 301 300 298 297 297 294 297 295 294 292 290 290 289 288
299 299 296 294 293 293 294 294 294 293 293 293 294 295 295 296 294 295 296 295 291 293 294 290 289 290 295 295 294 295 297 297 298 297 296 295 294 293 292 291 290 289 289 289
294 294 298 297 294 293 294 294 292 292 292 292 293 294 294 295 295 296 296 294 295 292 293 293 293 294 294 293 293 292 292 292 292 293 292 292 291 291 290 290 289 289 288 287
292 291 293 294 296 298 295 293 293 292 292 291 291 292 293 293 292 293 293 295 294 294 294 293 293 292 292 292 291 291 291 291 290 291 290 290 290 289 289 288 288 288 288 287

GFSNGP_sfc_thetae_054.txt.gz
Theta_e
292 292 292 291 291 291 290 292 286 291 292 296 299 301 302 304 305 304 304 305 305 306 309 311 315 317 317 317 318 321 323 323 324 327 331 335 338 339 340 340 341 343 344 344
289 291 291 289 291 292 292 294 294 294 293 301 302 303 302 301 302 302 303 303 304 306 308 310 313 314 316 316 317 321 321 323 326 329 332 334 339 338 340 341 343 344 345 346
285 290 290 286 291 293 295 296 295 291 296 301 300 299 300 299 301 301 302 302 303 305 307 310 313 314 314 316 318 318 320 322 326 329 331 335 338 338 340 345 348 347 347 347
285 287 279 291 298 297 294 295 298 298 299 299 300 302 301 301 301 301 302 301 302 304 307 310 311 311 313 316 316 316 320 321 326 328 333 337 337 340 346 348 349 348 346 347
283 285 289 291 294 294 292 291 298 297 299 297 297 298 300 303 303 301 302 304 306 307 309 310 310 310 311 314 315 316 318 322 327 328 335 337 338 343 344 346 344 345 345 344
287 282 280 291 296 298 296 288 297 297 295 295 298 289 295 302 301 300 301 303 305 306 309 309 312 312 313 313 315 314 318 324 326 332 334 336 341 341 343 343 342 342 342 342
286 284 288 297 298 299 286 289 298 296 297 295 293 296 301 301 301 301 301 304 306 306 306 310 312 312 312 315 315 316 321 324 324 332 334 337 339 340 340 340 340 338 336 334
286 283 281 299 297 287 296 300 298 297 298 297 298 299 298 298 298 300 301 303 305 305 305 308 312 315 312 314 317 319 322 325 328 332 334 334 336 337 339 339 335 334 329 332
289 290 299 301 299 301 301 298 298 298 298 298 295 295 296 297 299 301 302 303 305 305 307 310 313 313 312 317 319 322 324 324 330 331 331 333 333 334 332 333 330 329 329 329
289 296 296 299 301 300 300 298 300 299 298 296 295 296 296 298 299 300 301 302 303 304 304 305 310 312 316 318 317 323 324 325 328 327 328 332 334 334 330 329 329 328 328 328
290 295 296 298 298 299 298 300 298 298 297 297 296 296 297 298 299 299 300 302 303 304 305 307 312 315 316 316 320 324 326 326 327 327 330 329 324 325 327 329 326 329 329 328
284 291 294 296 299 300 298 298 297 296 296 298 297 297 297 296 298 299 298 300 300 302 303 306 312 314 317 319 320 327 324 324 324 323 322 325 326 319 297 298 298 300 303 320
292 297 298 299 300 300 298 297 297 297 297 296 297 297 296 296 297 298 298 299 302 316 317 310 315 317 316 317 328 328 326 325 325 320 325 326 326 322 315 308 296 295 297 298
299 299 297 298 296 300 297 297 297 298 297 296 296 296 296 296 296 296 298 302 318 322 319 319 320 321 324 330 329 329 327 311 328 327 328 327 326 325 323 320 318 316 299 303
298 300 299 299 299 297 297 296 294 294 295 294 295 295 295 294 295 296 301 310 319 321 323 324 323 326 327 328 329 326 326 325 326 328 328 325 327 324 322 320 316 310 310 302
297 300 298 297 296 297 295 295 294 293 294 294 294 294 295 296 296 299 302 309 310 315 320 321 325 325 327 328 329 328 327 310 319 328 328 325 323 322 319 320 320 318 317 314
297 296 297 296 295 296 295 295 295 294 294 294 294 294 295 294 296 297 301 309 309 315 320 323 323 326 329 329 329 329 327 325 313 327 323 324 323 322 323 320 318 318 315 307
303 301 301 299 296 296 295 295 294 294 292 294 295 294 294 294 293 295 299 303 315 312 311 322 329 330 328 330 330 328 327 327 328 328 324 323 322 321 319 318 317 311 306 301
303 300 300 300 298 297 296 294 294 295 294 294 294 293 294 294 294 295 300 299 300 302 301 313 308 324 331 321 324 329 328 328 327 324 323 314 320 319 320 317 314 309 309 307
302 304 302 301 299 298 297 296 295 295 295 295 294 293 293 294 294 294 299 297 296 298 305 313 329 329 328 321 313 325 325 326 323 323 323 321 318 316 317 310 312 310 308 306
299 303 301 301 299 299 298 298 296 294 294 295 293 293 293 294 295 294 293 294 295 296 301 304 313 327 332 325 326 328 323 323 323 320 319 318 316 315 315 314 309 309 305 305
298 299 302 301 300 299 300 299 297 295 294 294 293 293 293 293 294 295 294 292 295 290 298 302 304 298 321 310 328 324 322 321 319 318 317 316 315 312 312 310 306 305 306 303
296 297 301 302 301 300 300 299 299 297 294 294 293 292 292 293 293 292 291 293 294 291 295 296 289 290 295 322 322 319 316 315 314 314 313 315 313 310 308 306 305 305 303 300
294 297 298 301 302 300 298 298 298 299 296 294 294 294 293 292 293 295 296 293 289 291 293 291 291 290 297 310 311 313 313 311 310 308 306 301 310 308 302 302 303 301 298 296
292 295 297 297 297 298 300 299 298 297 297 296 294 295 294 294 292 294 294 294 290 293 295 290 289 291 301 302 304 306 306 307 306 304 302 301 300 300 300 297 295 295 294 293
290 291 294 295 295 297 300 299 296 296 296 294 297 295 294 294 293 292 293 291 293 291 292 293 294 295 296 296 297 298 300 300 301 299 298 298 297 295 295 294 293 292 291 290
291 290 290 293 294 295 298 300 298 296 295 294 294 295 296 294 292 291 290 291 291 290 291 292 292 291 292 293 293 293 295 296 294 295 294 293 293 292 292 291 291 290 289 288

GFSNGP_sfc_thetae_057.txt.gz
Theta_e
292 293 293 292 292 293 292 294 289 292 293 297 300 301 303 305 306 307 307 308 308 309 310 310 310 311 313 316 318 320 319 319 322 328 329 328 331 335 338 341 341 341 343 345
289 293 293 291 292 293 293 294 293 293 293 299 302 303 303 304 305 305 306 307 307 307 308 309 309 311 313 315 316 320 318 319 322 323 325 329 334 336 340 342 343 344 344 345
286 290 291 288 292 293 294 296 295 291 297 301 301 302 304 305 305 304 305 305 306 306 306 308 309 310 310 312 317 316 317 318 319 322 323 325 328 332 338 344 348 348 347 348
286 289 281 292 299 298 296 297 299 299 300 301 302 304 305 305 304 304 305 304 306 306 307 306 309 308 310 313 314 316 315 317 317 320 322 324 330 332 340 346 349 351 352 352
284 285 289 293 297 296 294 294 299 298 300 300 301 302 301 304 303 304 304 305 306 307 308 307 306 310 309 311 313 313 315 315 316 318 321 325 328 334 342 346 348 351 352 352
289 283 281 292 298 301 300 290 300 299 298 299 299 292 297 302 303 303 304 306 305 305 307 306 309 311 310 310 312 313 314 315 317 319 323 328 332 338 343 348 349 349 347 350
287 285 290 298 299 301 287 291 300 300 300 298 295 297 302 303 303 302 303 305 305 306 306 308 310 309 310 311 312 314 316 317 318 321 327 331 338 342 344 347 341 341 342 341
289 285 283 300 299 291 297 300 300 300 299 297 299 300 300 302 302 303 302 303 304 303 304 306 309 310 310 311 315 316 316 316 318 324 329 333 338 341 342 337 337 339 340 337
290 291 301 302 300 302 301 298 298 299 299 299 299 299 300 299 298 299 300 301 303 303 304 306 308 307 307 310 313 316 316 317 319 328 328 335 338 332 333 336 336 335 335 334
288 297 297 298 301 301 301 300 300 300 300 300 297 296 296 297 298 299 300 300 302 303 302 304 308 311 312 312 314 315 314 316 323 325 327 332 333 334 336 336 336 333 332 329
291 296 296 297 299 300 299 301 300 300 299 297 297 296 296 296 298 297 299 300 300 300 301 304 308 308 309 312 314 315 316 323 325 327 329 329 321 329 335 338 330 332 332 330
286 293 294 295 300 300 298 299 297 296 295 296 297 296 296 295 296 297 297 299 299 300 301 302 306 311 314 318 317 316 318 324 326 327 322 323 323 317 299 301 300 300 308 322
292 297 298 299 301 300 300 297 297 296 296 294 296 296 295 294 295 296 297 297 298 299 300 302 305 308 313 314 317 318 320 325 324 322 326 326 326 322 319 311 299 295 297 298
298 299 296 300 297 299 299 297 297 296 297 296 295 295 294 294 295 295 296 299 310 317 311 304 306 310 313 318 320 324 323 312 329 329 328 327 326 325 327 325 324 321 300 303
297 299 300 301 299 299 299 296 294 293 293 292 292 291 294 293 294 296 301 312 319 316 312 311 312 315 321 320 325 324 325 327 328 330 326 321 327 327 325 325 321 313 311 302
297 299 301 299 297 297 297 295 293 291 292 290 290 293 295 295 296 298 305 312 317 321 322 322 321 325 327 329 329 327 326 310 318 327 324 325 326 325 322 320 319 318 314 310
295 296 300 298 296 296 297 295 294 292 291 291 293 294 295 294 296 297 301 308 318 320 327 327 326 327 328 328 327 325 325 322 314 327 327 326 325 324 323 322 320 318 318 313
298 302 302 301 297 297 298 296 294 293 291 292 295 295 294 294 293 296 299 304 313 320 313 322 326 329 328 329 329 325 327 328 328 326 327 325 324 322 321 319 317 312 309 303
300 302 303 302 300 298 298 296 295 294 293 293 294 293 294 294 294 295 300 299 298 303 301 322 308 321 327 322 325 328 328 328 328 325 325 314 322 321 319 318 315 314 312 311
299 303 304 302 302 300 298 299 296 294 294 294 293 293 293 293 294 294 297 297 296 295 302 315 330 332 330 322 311 325 329 328 326 325 323 322 321 320 318 309 312 310 307 305
297 300 301 302 302 300 299 300 298 294 294 294 292 291 292 293 294 294 292 293 295 294 301 304 318 330 330 323 326 328 327 324 323 322 321 320 320 318 316 312 310 306 303 303
296 298 300 301 301 302 301 300 300 297 294 294 293 292 292 292 292 293 294 291 294 291 298 303 305 301 321 309 326 326 325 323 322 321 320 320 317 315 314 315 310 307 303 300
294 297 298 300 301 301 302 300 299 299 296 294 293 292 291 291 292 290 290 293 292 292 296 296 290 294 298 325 322 321 321 321 320 319 320 320 318 316 315 315 312 310 305 300
293 295 297 299 302 301 300 301 300 299 299 297 295 294 292 290 291 293 294 292 289 290 293 290 291 290 299 318 317 316 316 316 316 316 314 304 315 315 312 311 308 303 300 298
293 293 294 295 298 297 300 303 301 298 297 298 298 296 294 294 291 291 292 292 289 291 293 290 289 291 305 310 312 310 309 310 310 311 312 308 310 310 309 307 305 300 297 296
294 294 291 291 294 296 298 299 301 300 297 295 297 299 297 295 293 292 292 290 291 289 291 292 292 294 297 301 303 303 303 302 302 302 305 308 305 302 301 299 298 296 294 292
294 291 293 292 292 293 295 296 299 300 297 297 296 297 298 297 294 292 290 290 289 289 289 290 291 291 292 294 296 300 300 298 295 297 297 297 298 297 294 294 292 292 290 290

GFSNGP_sfc_thetae_060.txt.gz
Theta_e
291 291 291 290 291 292 290 291 289 291 292 296 300 301 302 305 305 305 306 308 309 310 313 314 313 314 314 314 313 314 315 318 321 327 329 328 327 328 328 329 333 335 337 341
289 292 292 290 292 292 293 293 292 294 294 300 301 303 303 304 304 304 305 307 308 309 310 311 312 311 312 312 313 316 317 317 318 321 322 325 325 328 328 328 330 335 337 338
284 290 290 287 291 293 293 295 293 290 295 300 299 300 302 304 304 304 304 304 306 308 309 311 311 312 312 312 313 313 313 315 317 318 319 321 323 324 326 330 330 332 338 339
285 288 279 291 300 298 295 296 298 296 297 299 300 302 303 304 303 304 305 304 305 308 309 310 311 311 313 312 311 311 311 313 315 317 317 319 321 323 325 328 331 334 338 341
283 285 289 292 296 294 291 291 299 298 299 300 301 301 301 305 305 305 305 305 306 307 307 309 310 310 310 310 309 308 310 311 313 314 316 317 318 323 326 327 329 335 338 342
288 282 280 291 297 300 298 289 299 298 297 297 297 291 296 303 304 304 305 305 303 307 307 305 308 310 309 308 309 309 310 311 314 315 316 316 319 323 325 329 333 335 337 343
286 284 288 297 299 300 286 289 299 299 298 298 295 297 301 303 303 305 305 305 306 306 305 307 308 309 306 307 307 311 312 313 314 316 317 317 320 325 327 329 333 333 337 341
288 285 283 300 297 289 294 299 299 299 299 298 299 300 301 302 302 304 303 303 304 302 302 304 306 307 306 306 309 310 312 313 314 316 317 317 321 324 327 331 332 334 336 337
289 289 299 301 297 300 301 299 299 299 300 299 297 297 299 299 299 300 300 301 302 301 301 303 305 306 305 307 310 311 312 312 314 317 315 318 320 323 328 332 331 333 333 332
291 294 296 297 299 299 301 300 300 301 299 298 296 296 295 296 296 297 298 299 300 300 300 301 303 305 305 308 310 309 310 313 314 315 316 319 321 324 327 330 330 331 332 329
291 295 294 295 297 299 300 301 300 300 297 295 295 294 295 295 295 295 296 297 297 297 298 299 303 304 306 308 308 309 310 312 313 314 315 316 320 322 328 332 331 333 331 329
286 293 293 295 298 300 299 298 299 296 295 295 294 293 294 293 294 294 293 293 293 295 296 297 300 302 305 308 310 310 310 310 312 315 317 319 315 309 300 305 305 306 310 323
290 296 297 299 300 301 299 297 297 296 296 293 293 293 291 288 288 290 292 294 295 296 297 297 299 301 304 307 311 309 311 312 314 313 319 319 319 316 314 307 299 297 301 304
297 298 295 298 297 301 299 298 298 296 294 292 291 290 287 287 291 294 295 297 302 306 302 300 300 302 305 309 311 315 318 307 317 323 322 320 322 323 324 320 317 312 297 299
296 298 298 301 301 299 299 298 295 292 292 290 289 288 292 293 293 296 301 310 306 303 302 301 301 303 308 310 314 318 319 321 326 325 326 324 327 326 324 319 314 312 311 303
297 297 298 298 300 298 298 297 294 292 291 290 289 291 294 295 296 300 303 309 308 305 305 305 305 309 313 318 319 320 322 308 317 325 325 327 325 321 318 318 317 315 312 312
292 292 296 299 299 297 296 297 296 293 291 290 291 293 294 294 295 296 300 305 314 314 315 316 318 319 319 322 317 325 326 325 312 326 325 324 322 319 319 318 315 314 314 310
297 299 302 302 300 297 297 297 296 294 291 292 293 293 293 292 292 293 299 303 303 306 302 311 317 321 321 327 326 327 327 327 325 324 323 323 322 322 319 317 315 312 309 303
298 299 301 301 302 302 298 297 297 295 293 292 292 291 292 292 293 294 297 296 296 296 297 308 307 319 324 316 321 327 326 326 325 325 322 313 319 317 316 314 313 313 312 311
297 299 300 301 302 302 299 298 298 296 294 292 292 291 291 291 292 293 293 295 293 293 299 307 323 328 325 317 310 328 327 326 323 321 320 320 318 315 315 307 310 308 308 309
294 297 298 299 300 302 303 300 297 296 295 294 292 291 291 291 292 293 290 289 292 293 296 301 305 315 327 322 324 328 326 322 321 320 319 316 315 314 312 311 308 305 304 305
293 295 296 298 299 300 303 301 298 298 296 294 293 293 291 290 290 291 293 289 291 290 294 298 300 294 316 310 328 325 323 321 321 319 317 315 313 312 311 307 304 303 302 302
294 294 296 296 298 300 301 303 301 298 297 295 294 293 291 291 291 288 288 291 290 290 294 293 290 293 298 324 324 322 321 320 319 318 317 316 314 312 308 305 302 302 300 299
295 296 294 294 297 298 298 301 303 300 298 298 297 296 293 290 291 292 292 290 288 289 291 289 290 290 298 315 317 318 319 319 318 317 315 305 314 312 310 305 301 301 300 298
296 296 296 293 293 294 296 299 302 302 300 298 296 298 296 295 291 292 291 290 288 289 291 289 289 291 304 307 308 310 311 314 315 315 314 313 312 310 307 306 303 300 297 296
295 294 295 296 293 293 295 296 296 300 300 298 297 297 299 296 294 292 291 289 290 288 290 290 290 292 295 300 302 301 302 303 308 307 308 310 309 307 304 298 297 296 295 293
296 292 294 294 295 294 293 294 296 297 300 300 297 297 298 298 294 292 289 290 289 288 288 289 290 289 291 293 296 296 296 296 295 302 301 301 301 301 298 295 292 292 290 289

GFSNGP_sfc_thetae_063.txt.gz
Theta_e
289 291 290 289 289 290 287 289 285 287 288 292 294 297 300 302 303 303 303 304 306 304 304 305 306 306 308 307 307 307 310 309 308 311 315 319 320 322 324 324 324 324 324 325
286 290 290 288 291 291 291 290 289 291 289 296 297 298 298 299 300 300 302 303 305 306 305 305 305 306 306 306 306 308 308 309 311 312 314 313 317 317 320 321 322 323 323 326
279 288 287 282 290 291 292 294 292 286 290 296 295 297 296 297 298 298 300 302 302 302 302 304 304 305 305 306 308 307 307 309 309 310 311 314 315 317 316 316 320 321 322 323
279 284 276 290 296 296 293 294 295 295 296 295 295 296 297 298 298 299 299 300 300 300 301 301 303 304 305 306 307 307 306 307 308 308 309 312 314 312 312 315 316 322 324 325
277 276 286 290 292 293 290 290 294 293 295 295 296 296 295 298 299 298 299 300 300 302 301 301 302 303 304 305 306 306 305 305 307 308 308 310 310 310 311 315 317 318 322 326
280 278 275 289 295 298 296 283 294 295 293 293 294 287 291 297 299 299 300 301 301 302 301 301 301 302 303 304 304 304 305 306 306 308 309 309 309 310 311 313 317 319 322 326
281 280 285 294 296 296 281 283 294 294 294 293 291 293 296 298 298 299 300 301 302 302 301 302 303 303 303 304 303 305 306 307 308 308 309 310 311 312 310 314 318 319 322 324
282 281 277 297 294 286 291 294 294 294 295 294 296 296 296 295 295 296 297 298 299 299 299 301 302 302 301 301 304 306 307 307 308 308 309 311 310 311 313 314 315 317 320 323
286 282 294 296 292 293 295 293 294 295 296 296 293 293 294 294 294 296 297 297 299 298 298 300 302 302 301 302 304 306 306 306 307 308 310 310 310 309 310 313 316 318 321 323
285 292 292 294 294 295 296 296 297 298 295 294 293 294 294 295 294 294 295 296 297 297 297 298 301 301 302 303 305 305 306 306 307 308 309 310 312 311 311 314 316 319 321 323
287 291 291 293 294 295 297 299 299 298 295 295 294 292 291 291 292 292 292 293 294 295 296 297 298 299 302 304 305 304 305 306 306 307 308 309 310 312 314 316 316 318 322 326
284 290 290 291 294 298 297 297 298 295 294 295 294 291 291 289 289 290 289 291 291 291 292 294 297 297 300 303 304 305 304 304 305 307 309 310 310 310 297 296 297 301 304 321
291 294 294 296 297 299 298 299 297 296 295 293 292 289 288 286 287 289 290 291 293 294 294 294 294 296 299 302 305 306 305 307 309 307 309 311 312 313 312 302 298 300 303 304
294 294 293 296 294 298 299 297 298 295 295 294 290 289 288 289 293 294 295 299 303 303 305 299 296 296 299 301 304 305 308 302 309 310 311 312 314 316 314 315 313 309 300 306
293 295 295 297 299 300 299 296 294 294 293 291 290 290 291 291 292 295 300 308 302 300 300 299 297 297 301 303 302 305 308 311 310 314 316 315 318 319 317 314 310 308 308 301
294 295 296 296 298 299 297 295 293 292 292 290 289 290 291 293 294 296 300 303 306 302 300 300 300 302 304 305 307 307 312 306 307 318 318 318 319 317 316 317 316 315 313 311
291 292 295 296 296 297 297 295 294 293 293 291 291 292 292 292 293 294 296 300 304 303 304 309 305 307 307 308 314 314 315 315 306 317 319 319 318 317 316 315 315 315 315 308
295 296 297 298 296 297 298 296 295 294 293 293 293 292 291 291 290 292 295 297 297 300 298 300 308 317 319 318 317 316 316 321 321 320 320 318 317 316 315 314 312 311 310 304
294 295 297 297 298 298 298 298 295 295 295 294 293 291 291 291 291 292 293 294 292 292 292 299 302 310 320 315 318 324 323 321 319 318 317 310 315 315 313 312 311 312 311 310
293 295 296 297 298 298 298 299 295 295 295 294 294 292 290 290 290 291 291 293 290 291 294 299 309 322 322 317 312 322 320 318 316 315 314 314 313 312 311 305 309 308 308 307
293 294 295 295 295 297 298 299 299 295 295 294 294 293 291 291 291 291 289 288 289 291 294 296 300 306 321 316 320 320 318 316 315 313 312 311 310 308 307 307 307 305 305 304
294 294 295 294 293 295 297 298 298 296 295 294 295 294 292 290 290 290 291 288 289 289 293 294 296 294 307 309 320 319 317 315 314 312 311 310 307 305 304 303 303 302 302 301
293 294 295 293 293 293 295 296 296 299 297 294 294 294 293 291 291 287 286 290 289 288 292 290 288 290 294 319 319 319 317 314 312 311 309 308 306 304 303 301 301 300 299 298
293 294 294 294 293 292 291 293 295 298 298 296 295 297 294 291 291 291 291 290 287 288 290 288 288 290 296 313 317 317 316 315 313 312 307 300 303 301 301 301 299 298 296 295
292 292 292 292 291 291 292 293 294 295 298 298 294 296 296 295 291 291 291 290 288 288 289 289 288 290 299 302 304 306 311 314 314 311 308 305 302 301 300 299 297 295 294 294
291 290 291 291 290 291 293 293 290 292 295 294 295 294 296 296 294 292 291 289 289 288 288 289 289 291 292 295 297 298 301 304 309 308 306 304 303 300 297 295 294 293 292 292
291 291 291 290 291 292 292 292 290 290 293 292 295 293 294 295 293 292 290 289 288 287 288 287 288 288 289 290 293 294 296 297 295 302 301 299 297 295 293 293 291 290 290 290

GFSNGP_sfc_thetae_066.txt.gz
Theta_e
287 289 289 288 287 288 287 286 282 286 286 290 295 295 295 298 301 301 302 303 304 305 306 306 306 306 306 305 305 305 305 305 305 306 309 311 314 315 318 319 320 320 320 320
285 289 288 286 288 289 290 290 288 290 288 296 296 297 296 295 296 296 300 302 303 305 305 304 304 305 304 304 304 305 306 306 308 308 309 309 310 311 313 315 318 320 320 320
279 286 286 281 289 290 291 293 291 286 290 294 292 294 293 293 295 295 297 300 301 300 300 301 302 304 303 304 306 306 305 306 308 308 308 307 309 311 310 311 313 316 317 318
279 282 275 288 296 295 292 293 292 292 294 294 294 294 295 296 295 295 297 297 297 298 299 299 300 302 303 304 304 305 305 306 307 307 307 307 307 308 309 309 310 311 314 316
275 274 283 290 292 291 289 288 292 291 292 293 294 294 292 295 296 295 297 298 299 300 300 301 301 302 302 303 304 304 305 305 306 307 306 306 305 306 308 308 309 311 314 316
281 275 274 288 294 295 293 282 292 291 291 290 292 285 289 295 297 298 299 299 299 299 299 300 302 302 301 301 302 302 304 304 306 306 306 305 305 305 307 308 309 312 314 316
280 280 282 293 294 294 280 281 291 292 292 292 290 292 295 296 295 296 296 297 298 298 297 299 301 302 300 301 301 304 305 305 305 306 305 305 305 307 307 306 310 312 313 314
279 281 276 294 292 284 287 291 293 294 294 294 294 295 294 294 295 295 295 296 298 297 297 299 300 301 300 300 303 304 305 305 305 305 305 306 306 307 308 308 309 310 311 313
283 281 291 293 291 293 293 292 294 295 296 295 295 294 294 293 294 294 295 294 296 296 296 297 299 299 298 300 301 302 302 303 304 305 306 306 305 305 306 308 309 310 311 313
284 289 289 292 293 294 295 295 296 297 297 296 292 293 292 293 292 293 292 292 294 293 293 295 297 299 300 301 302 303 302 303 304 305 306 307 308 307 307 308 308 310 312 313
286 289 291 292 293 294 296 297 298 299 296 294 292 291 291 291 291 290 290 291 291 291 292 292 295 297 300 301 302 302 303 303 304 305 305 306 306 308 309 310 310 311 313 315
284 290 291 291 294 296 296 297 297 295 292 292 293 292 291 288 289 289 288 290 290 291 291 292 294 295 298 301 302 301 301 302 304 305 304 305 305 305 296 300 298 296 296 304
288 292 292 293 296 298 296 299 296 294 293 292 292 291 289 287 288 291 293 294 296 299 300 298 293 294 296 300 301 302 302 303 305 304 304 305 307 307 306 298 295 294 294 295
292 293 292 294 293 298 299 297 297 295 295 293 292 291 290 290 291 293 294 298 303 299 299 298 295 294 297 300 300 303 304 300 305 304 305 306 308 309 310 310 308 307 299 296
293 294 293 296 298 298 298 299 294 292 293 292 292 290 291 290 291 293 295 300 305 299 298 296 295 296 299 300 301 304 305 306 306 308 309 308 309 310 312 313 310 307 305 300
293 294 295 295 296 296 296 297 292 292 293 292 291 292 292 292 292 293 295 297 301 299 300 297 297 298 300 301 302 304 305 300 304 309 309 310 313 314 313 309 307 308 310 305
290 290 292 293 294 294 295 297 294 293 293 292 292 293 292 291 291 292 293 295 298 299 298 299 303 303 303 304 304 305 308 311 306 315 313 315 315 314 313 312 312 309 312 311
294 293 294 295 294 294 294 296 297 295 293 293 294 293 291 290 289 290 292 294 294 295 295 295 302 308 308 309 311 314 313 314 316 318 318 317 316 317 316 315 314 313 313 307
294 293 294 295 294 294 295 295 296 296 295 294 294 293 292 291 290 291 291 293 290 289 290 296 297 307 316 311 312 313 317 318 318 316 315 309 314 315 315 315 314 315 315 315
293 293 295 294 294 293 294 294 295 296 297 294 294 293 291 290 290 290 291 291 289 290 292 295 307 320 318 312 308 319 318 316 316 315 314 313 313 311 310 304 310 310 310 311
291 292 294 293 292 293 293 294 294 295 297 293 294 293 292 291 290 290 288 287 289 290 292 293 295 297 318 314 315 316 315 315 314 312 310 310 310 309 308 308 307 306 305 306
290 291 292 292 292 291 292 293 293 295 296 294 294 294 292 290 290 289 291 288 289 288 292 292 291 289 299 306 315 313 312 312 311 310 308 307 307 306 305 305 304 303 301 301
290 290 291 292 291 291 292 293 292 293 295 295 292 294 292 291 291 288 286 289 289 288 291 289 287 288 291 317 314 313 311 309 307 308 307 305 304 304 302 301 301 300 298 297
290 289 290 290 290 290 290 291 291 292 294 294 293 295 294 291 291 292 291 290 287 288 289 287 288 288 293 307 314 312 311 309 306 305 303 297 302 301 301 299 297 297 295 293
289 289 289 288 288 288 289 292 290 291 292 292 292 292 295 294 291 291 291 289 288 287 288 287 287 288 293 297 300 307 311 308 305 302 302 302 301 299 298 298 296 296 295 293
287 287 287 288 287 288 289 292 289 290 291 290 293 291 293 294 293 292 290 289 288 287 287 287 287 288 290 291 294 297 300 305 304 301 299 300 299 297 295 294 294 294 293 291
287 288 287 287 287 287 288 290 290 289 290 289 291 293 290 292 292 290 289 288 288 287 286 287 287 286 287 289 290 292 294 296 295 299 298 297 296 295 294 293 292 292 291 290

GFSNGP_sfc_thetae_069.txt.gz
Theta_e
285 287 287 287 286 287 284 285 281 285 285 288 292 293 295 294 296 295 296 299 302 303 305 305 304 304 305 304 303 303 303 302 302 302 304 307 309 312 313 315 316 316 316 317
284 288 287 285 287 288 290 289 288 288 287 293 294 294 294 294 294 294 295 296 298 302 303 304 304 305 305 305 304 304 303 303 305 306 308 308 309 309 309 310 311 312 314 317
278 285 285 280 288 290 289 292 290 285 289 292 291 292 292 293 294 294 295 296 297 298 299 299 300 302 303 305 305 304 303 304 306 306 306 306 306 306 306 306 307 308 309 311
277 281 274 285 294 294 289 290 291 290 291 291 291 294 293 294 293 294 295 296 296 297 298 299 298 300 301 303 304 304 304 305 306 306 306 306 305 304 303 303 304 305 306 308
277 274 282 288 292 289 287 285 290 288 290 291 292 292 291 294 294 293 294 296 298 299 299 300 301 301 301 300 301 302 303 304 305 306 305 305 305 305 302 303 303 304 306 308
279 277 275 286 292 294 292 281 289 290 289 290 291 284 288 295 296 296 297 298 297 297 299 300 300 301 299 298 299 299 301 302 305 306 305 304 305 304 302 303 305 306 305 306
280 280 282 291 293 293 280 281 290 291 291 291 289 292 295 297 297 298 298 297 297 297 296 297 298 299 298 298 298 300 302 303 304 305 305 305 304 304 303 302 303 304 306 308
280 279 277 292 291 284 288 291 291 292 293 293 294 295 296 296 295 294 295 296 297 296 296 298 298 298 297 297 300 301 302 303 303 303 303 305 303 303 302 302 303 303 305 307
282 280 290 292 290 292 293 292 293 294 295 295 295 293 292 291 292 293 293 294 295 295 295 297 296 296 296 298 299 301 301 301 302 303 304 304 303 302 301 302 304 304 306 307
282 287 288 291 293 294 295 294 295 297 297 295 292 291 291 291 291 292 292 292 293 291 291 291 294 296 297 298 299 299 300 301 301 301 302 303 304 304 303 304 304 305 305 306
283 287 290 293 293 294 295 296 297 298 295 294 292 290 291 290 289 290 290 291 291 290 289 289 292 294 296 297 299 299 299 300 300 301 301 302 303 304 305 306 306 306 307 309
284 288 289 290 293 295 294 295 297 296 295 293 292 291 290 288 288 288 288 291 293 295 295 294 293 293 295 296 299 299 299 300 301 302 303 303 303 304 297 298 298 298 299 305
286 291 291 293 295 297 295 297 297 296 295 292 292 291 289 286 288 292 292 294 295 298 297 297 299 294 295 296 298 299 298 299 301 302 304 304 305 304 303 300 296 295 293 293
291 293 291 293 292 296 297 297 298 297 296 295 292 291 290 290 291 291 292 294 298 298 296 295 294 294 296 298 298 301 301 298 303 303 305 305 304 304 305 304 304 305 298 295
293 294 293 295 295 295 296 296 294 295 294 294 293 291 292 290 288 291 294 296 299 300 297 296 295 295 297 299 299 301 301 303 304 305 304 303 304 305 306 306 307 306 305 298
292 293 293 292 293 294 294 294 293 293 293 294 292 292 293 291 292 293 293 295 295 296 298 298 297 298 299 299 300 301 303 300 301 305 306 305 306 306 307 307 307 307 303 304
289 289 290 291 292 292 292 293 294 293 293 294 292 294 293 291 291 291 292 294 295 296 294 296 301 301 301 302 302 305 305 305 301 307 306 308 308 307 308 309 308 309 306 303
293 293 293 293 292 291 291 293 293 293 294 295 293 294 292 290 289 290 291 293 292 293 293 293 298 301 304 303 305 305 305 306 307 305 309 310 310 311 313 310 308 310 308 302
291 291 293 294 293 291 292 292 293 293 295 295 292 293 292 291 290 290 291 292 289 288 288 294 295 302 307 306 305 310 311 315 315 315 315 308 314 313 312 311 309 311 309 309
290 291 292 293 293 292 291 292 293 293 294 294 293 293 291 291 290 290 290 290 288 288 291 293 299 306 316 312 305 318 317 316 315 314 314 313 312 311 312 306 313 314 313 312
289 290 291 291 291 291 292 292 292 291 293 293 291 292 291 292 291 290 288 287 288 289 291 291 292 294 312 311 314 315 313 312 311 311 310 310 309 308 309 309 309 308 305 304
288 289 289 289 289 289 291 292 291 292 292 292 291 293 291 291 290 290 291 286 288 287 290 290 289 288 298 303 313 312 311 310 310 309 308 307 306 305 305 304 303 303 302 301
288 289 289 289 288 288 290 291 291 291 291 291 290 290 291 291 291 288 286 289 288 287 289 288 286 288 291 312 311 309 308 308 306 305 305 305 304 303 302 300 299 299 299 298
288 288 288 288 289 288 287 290 290 291 291 291 292 291 291 290 290 291 290 289 286 287 288 286 286 287 290 298 306 308 306 305 304 303 301 296 301 300 300 298 296 295 294 293
287 287 287 287 287 286 287 290 291 290 290 290 291 291 291 293 290 290 290 289 287 287 287 286 286 287 291 292 295 301 304 303 303 303 302 300 299 299 298 298 296 294 294 293
285 285 285 286 286 286 287 288 289 289 289 288 289 290 291 292 292 290 289 288 287 286 286 286 286 286 288 289 291 292 296 301 300 300 299 299 298 296 295 295 294 293 292 291
285 286 284 285 285 287 287 287 288 288 289 288 288 289 289 290 291 290 288 287 286 286 285 285 285 285 285 286 288 289 291 293 291 295 296 295 295 295 294 293 292 291 290 289

GFSNGP_sfc_thetae_072.txt.gz
Theta_e
284 285 285 285 285 285 282 284 281 284 284 288 291 292 292 293 294 294 295 296 296 296 298 302 305 305 306 305 304 304 304 306 307 308 307 308 309 311 313 315 316 318 318 319
283 287 286 284 286 286 287 288 288 288 286 293 295 294 293 292 293 293 293 295 296 297 298 301 301 301 304 305 305 305 305 304 305 305 306 307 309 312 313 314 315 316 317 317
278 283 283 279 285 289 288 290 290 284 287 290 289 290 290 291 292 293 293 295 296 297 297 298 299 300 300 303 305 305 304 305 307 307 308 309 310 310 310 310 310 310 311 313
277 280 274 283 293 293 288 289 290 289 289 290 291 292 293 294 293 293 294 295 296 296 297 298 299 299 300 301 302 302 302 303 305 306 307 308 307 307 307 307 307 308 308 310
278 274 281 287 290 289 287 285 289 287 289 291 291 291 291 293 294 294 295 296 296 298 299 300 300 301 300 301 301 301 301 302 303 305 306 306 306 306 305 305 305 306 308 309
281 276 275 285 291 294 292 281 289 289 288 289 290 284 288 295 298 297 298 298 299 299 299 299 300 300 298 298 299 299 300 301 302 304 304 305 306 306 305 306 306 307 308 308
282 278 281 290 292 293 279 281 290 291 291 290 288 291 294 297 297 298 296 297 298 298 297 298 299 299 297 297 297 299 301 301 301 303 303 305 306 306 305 304 306 306 307 307
282 278 275 292 290 282 286 291 292 292 293 292 293 294 295 295 294 295 294 294 295 295 295 296 297 297 296 297 298 299 299 300 300 302 303 304 305 305 305 304 304 304 304 305
282 279 288 291 289 292 292 292 293 293 294 294 294 293 294 292 292 292 292 293 294 294 294 295 296 297 295 297 299 299 299 299 300 302 303 304 304 304 303 303 303 303 304 305
284 285 286 290 292 294 294 294 295 295 296 295 293 293 293 292 290 290 290 290 291 291 290 291 293 295 296 298 298 298 298 298 299 300 301 303 304 303 303 302 303 304 305 305
284 286 290 293 293 293 295 295 295 296 295 294 294 293 292 290 288 288 289 290 291 290 291 291 292 293 294 295 297 296 296 297 298 300 300 301 302 303 304 305 304 305 305 307
284 288 288 289 293 294 294 294 295 294 294 294 294 291 292 287 288 288 288 291 292 293 295 297 297 296 294 294 295 295 296 297 298 300 301 301 302 303 296 299 298 297 298 305
287 290 291 292 294 296 294 295 295 295 294 293 292 291 289 286 289 292 291 293 293 295 298 296 295 298 297 295 296 296 296 298 298 298 299 300 301 301 301 301 295 294 294 294
290 292 290 293 291 295 295 295 295 295 295 294 292 292 290 290 290 290 291 293 295 298 298 296 295 294 296 297 297 297 298 297 300 301 302 303 304 304 305 304 304 305 297 297
292 293 293 294 294 294 295 293 292 292 292 291 292 291 290 290 289 289 293 295 295 297 297 298 296 295 297 297 297 297 300 300 301 302 303 304 306 306 306 306 306 305 306 297
292 292 292 291 292 293 292 291 291 291 291 291 291 290 292 291 290 291 293 294 292 294 294 296 298 298 300 299 299 301 301 298 300 304 304 305 305 305 306 305 305 305 305 307
287 288 289 289 290 291 290 291 291 291 291 291 291 292 292 291 290 290 291 293 292 294 293 293 297 301 300 301 301 302 303 302 299 305 305 304 305 305 304 304 306 306 307 306
289 290 290 290 291 290 290 291 291 291 291 292 292 292 291 290 288 289 290 292 290 291 291 292 295 296 302 302 304 305 305 305 304 304 305 306 307 306 306 308 309 309 309 305
289 289 290 291 291 290 290 290 291 292 292 292 291 291 291 291 289 289 290 290 287 286 287 292 292 302 303 303 301 304 304 305 306 305 306 303 307 307 309 310 310 311 310 309
289 290 290 289 290 289 289 291 291 291 292 292 291 290 290 290 290 289 290 289 287 287 289 291 293 297 310 308 296 305 305 306 304 305 307 306 307 310 311 304 310 309 310 310
288 289 289 288 288 289 290 291 290 290 291 292 290 289 290 290 290 289 288 286 287 288 289 290 290 291 304 308 310 313 312 311 311 310 310 310 311 311 310 310 309 310 310 308
287 288 288 288 287 288 289 291 291 291 290 290 291 290 289 289 289 288 290 286 287 287 289 288 288 288 294 300 309 309 308 308 308 308 307 307 306 306 306 305 304 304 304 303
287 287 288 287 286 287 289 291 291 290 290 289 289 289 289 290 289 286 285 288 287 286 288 287 286 287 289 300 307 306 306 305 304 304 304 303 303 302 301 301 301 301 300 300
286 287 287 287 287 287 286 288 289 290 290 290 290 290 289 288 289 290 289 288 286 286 287 285 286 286 289 293 296 302 303 303 303 302 302 295 301 300 298 298 297 297 296 296
285 285 285 286 285 284 285 287 288 289 289 289 289 290 290 291 289 289 289 287 286 286 286 285 285 286 288 289 291 293 296 298 299 301 300 299 299 298 297 296 296 295 295 295
284 284 284 285 284 285 285 285 285 285 287 286 288 289 290 291 291 290 289 287 286 285 285 284 285 285 287 287 288 289 291 292 294 296 296 297 296 296 295 294 293 292 293 291
284 285 284 284 285 285 285 284 283 282 283 284 285 287 289 289 289 289 288 287 285 284 283 284 283 283 284 285 286 287 288 289 289 291 292 293 294 293 293 292 291 291 291 291

GFSNGP_sfc_thetae_075.txt.gz
Theta_e
290 290 290 289 288 289 288 289 284 287 288 292 296 298 299 300 300 299 299 300 301 302 303 304 306 308 307 308 311 313 313 315 318 321 321 320 320 321 322 323 324 324 325 326
286 289 289 287 289 290 290 290 290 290 289 297 299 298 298 298 298 297 298 299 300 301 303 303 304 306 306 306 306 308 309 312 313 315 317 319 319 320 322 323 325 325 325 326
282 287 288 285 289 290 292 293 292 287 293 297 295 295 295 296 296 296 298 299 300 301 302 304 304 306 305 306 307 306 306 307 308 312 313 315 317 318 321 323 325 325 324 322
284 287 279 289 295 294 291 292 294 294 294 294 294 295 296 297 297 297 298 299 300 301 303 304 305 305 307 307 306 306 306 306 307 308 310 314 315 317 320 322 322 320 320 320
284 284 287 289 291 291 288 288 294 291 292 293 295 295 295 298 298 298 299 301 302 303 306 306 305 305 305 305 305 305 304 306 307 307 308 310 313 317 319 319 319 318 318 318
285 281 279 288 293 296 293 284 293 292 291 292 292 285 290 296 298 298 299 298 301 301 302 302 303 305 306 304 304 304 305 305 307 308 308 309 312 313 317 317 317 315 316 317
285 283 287 293 294 295 282 285 293 293 292 291 289 291 294 297 296 298 296 299 300 298 297 299 301 301 300 301 303 304 305 305 306 307 308 310 313 314 315 314 314 315 314 316
286 282 280 295 293 287 291 294 294 293 293 292 293 294 294 294 294 295 295 296 297 295 294 296 298 297 296 297 301 302 304 304 305 307 307 306 311 312 312 313 312 313 313 313
287 289 294 297 295 296 296 294 293 293 294 294 293 292 292 292 293 293 293 294 294 292 292 293 294 295 294 296 298 300 302 304 304 306 305 306 307 308 307 311 309 309 308 309
289 292 294 295 297 297 296 295 295 296 295 294 291 291 291 291 291 291 292 290 291 291 290 291 293 293 293 295 297 297 299 302 303 303 304 305 305 306 307 308 308 308 308 308
289 293 294 295 295 296 296 296 296 296 295 293 292 291 290 289 289 289 289 290 291 291 292 293 295 296 295 295 295 296 297 298 301 301 301 303 305 307 307 312 309 308 309 309
288 294 291 292 295 297 295 295 295 293 293 293 292 289 289 287 289 289 290 292 292 293 294 296 297 296 297 297 295 295 295 297 298 299 299 300 303 305 297 299 298 297 299 306
291 295 294 295 296 297 295 295 295 295 294 292 291 289 287 286 290 292 291 292 293 294 296 298 296 296 298 298 296 295 295 297 298 297 299 300 303 303 303 301 295 295 295 297
295 294 292 295 293 296 296 296 296 295 294 293 292 291 290 290 291 291 291 293 294 295 297 298 297 295 296 296 296 295 296 295 298 298 299 301 303 304 305 305 304 306 296 297
294 295 294 295 295 295 296 295 293 292 292 291 291 290 289 289 288 289 292 294 293 294 295 295 298 297 298 298 297 297 297 299 301 300 301 302 305 305 305 306 306 307 309 297
293 293 294 292 292 293 294 293 291 292 292 291 290 290 290 290 289 289 291 293 290 291 293 292 295 299 300 299 297 298 300 296 298 303 304 304 305 305 306 307 307 308 308 309
289 289 291 290 291 291 293 293 293 292 292 291 291 291 290 290 289 289 290 292 290 292 291 291 293 295 301 302 299 300 302 302 298 304 305 305 306 306 308 307 308 307 308 309
293 292 292 291 290 291 292 293 293 292 291 292 292 291 289 289 288 288 289 291 290 290 289 290 292 297 301 304 305 305 305 305 305 305 306 305 307 308 308 306 305 308 309 307
292 291 292 292 292 292 292 292 293 293 293 292 291 290 290 290 289 288 289 290 287 285 286 290 291 298 303 302 301 307 306 306 307 306 306 302 308 309 306 306 310 311 311 312
291 292 291 292 293 292 292 293 293 292 293 292 291 290 289 289 289 289 289 288 286 286 289 289 290 293 303 304 296 304 305 305 306 307 308 310 311 309 309 302 311 313 314 314
291 291 290 290 291 292 293 293 292 290 292 291 290 289 289 290 290 289 287 284 286 287 289 289 288 289 298 304 303 309 310 307 305 305 306 308 310 311 311 314 313 315 316 314
291 290 289 289 290 291 292 293 292 291 291 290 290 290 289 289 289 288 289 285 287 286 288 287 287 286 291 295 305 305 306 306 306 307 307 309 309 309 310 312 313 314 312 311
291 290 289 288 288 289 291 291 291 290 290 290 289 289 289 289 290 287 285 287 286 285 287 286 285 286 288 295 297 300 302 303 302 303 304 303 303 303 303 304 306 308 308 311
290 290 289 290 289 288 286 288 290 290 290 290 290 291 290 288 289 290 291 288 285 284 285 285 284 285 287 291 292 294 294 297 300 301 301 295 300 300 301 299 299 300 299 299
290 289 289 288 287 286 287 288 288 288 289 289 289 290 291 291 289 290 290 290 287 285 284 284 284 284 286 288 289 289 291 292 293 297 297 298 297 297 298 299 298 297 297 297
289 289 288 288 287 287 286 287 286 287 287 287 289 290 290 290 290 291 289 288 289 287 285 284 283 284 284 285 286 287 288 290 290 292 293 295 295 294 295 296 295 294 294 294
289 288 288 287 287 287 286 285 285 284 286 286 287 289 289 290 289 289 287 288 288 288 287 287 285 283 283 283 283 285 286 287 287 288 290 291 291 291 291 291 292 294 293 292

GFSNGP_sfc_thetae_078.txt.gz
Theta_e
293 293 293 292 292 292 291 292 288 291 292 296 299 300 301 304 304 303 304 304 305 306 307 308 309 310 311 312 313 312 314 317 321 324 324 326 328 328 327 326 325 325 325 325
291 293 292 290 292 293 294 294 293 293 293 299 300 301 300 301 301 300 301 302 303 304 306 307 308 309 310 311 312 312 309 312 313 319 323 324 325 326 326 325 325 324 324 323
287 291 292 289 293 293 294 296 294 290 296 299 298 299 299 298 299 299 301 302 303 304 306 307 308 310 309 310 311 311 309 309 313 313 315 321 323 324 325 326 330 328 326 326
288 291 283 294 298 297 295 295 297 297 297 298 297 298 298 298 298 299 300 301 302 303 303 306 306 308 309 311 310 310 310 307 308 311 312 315 320 323 327 327 330 330 330 329
286 287 291 293 294 294 292 292 297 296 295 295 296 296 295 299 299 298 298 300 300 303 301 306 304 306 308 308 309 309 309 308 308 308 309 311 317 321 324 327 329 330 328 328
289 284 282 293 296 299 297 287 297 296 295 294 293 285 289 296 297 296 298 298 300 299 301 301 302 304 303 304 306 307 308 309 310 310 310 310 313 320 323 325 326 325 326 326
288 286 290 297 298 299 286 289 297 297 296 293 289 291 294 296 296 297 296 296 298 298 298 298 299 302 299 300 302 305 306 308 311 312 312 315 318 319 321 321 322 324 323 324
290 285 283 299 298 291 296 299 297 296 295 293 293 294 294 294 294 294 294 295 295 294 294 296 297 297 296 294 298 302 303 304 306 311 311 311 315 316 317 320 319 320 320 319
292 293 300 302 300 301 300 296 296 296 295 294 292 292 292 292 292 292 292 292 293 292 292 293 294 294 292 295 296 298 301 302 304 308 310 311 313 313 313 317 314 314 314 315
293 296 298 300 301 301 299 297 298 297 295 295 293 292 291 291 291 290 291 291 292 292 292 292 293 293 293 294 296 296 297 299 302 304 306 310 310 311 311 312 313 313 314 313
294 297 298 299 300 299 298 298 298 297 296 295 293 291 290 289 288 289 290 292 293 292 293 294 296 297 298 297 296 295 295 297 300 302 304 304 308 310 310 315 311 312 314 314
290 298 296 297 299 298 296 296 298 296 295 295 292 290 289 287 288 290 290 291 292 292 294 295 298 299 298 298 298 296 294 296 298 300 301 303 304 307 299 298 297 297 297 307
296 300 298 298 299 299 298 298 298 297 297 293 292 291 289 286 289 291 290 291 292 293 294 296 296 297 297 298 299 296 295 296 298 298 299 301 303 303 304 302 296 295 297 297
300 298 296 298 296 299 299 299 299 298 297 295 293 291 290 289 289 289 289 290 293 293 295 293 295 297 297 297 297 297 297 296 299 298 299 300 302 303 304 306 305 308 296 299
298 299 298 299 299 297 299 299 297 295 295 294 293 291 290 287 287 289 291 292 291 292 292 291 294 296 299 298 297 296 297 298 299 300 300 301 303 302 303 305 306 308 309 298
297 298 297 295 295 296 297 297 295 294 293 295 291 291 290 290 290 290 291 292 288 289 290 290 293 297 300 300 299 298 299 296 298 303 302 301 302 301 304 307 307 307 308 307
294 292 293 293 294 295 296 295 295 295 294 293 293 291 291 289 289 289 290 290 289 290 289 290 290 299 303 303 303 303 303 301 297 303 302 302 302 304 305 306 305 306 308 309
295 295 295 296 295 295 294 295 294 295 294 294 295 292 290 288 288 288 288 290 288 288 288 289 291 296 305 305 305 305 304 305 305 305 305 304 305 307 307 307 309 309 310 306
295 294 294 294 296 296 295 294 294 295 297 294 293 292 290 290 289 289 288 288 286 284 285 288 290 293 303 302 302 308 307 305 306 305 306 302 306 309 307 309 309 310 309 311
294 295 293 294 296 296 295 295 294 294 295 295 294 292 291 290 290 289 288 287 286 285 288 288 289 290 297 304 297 304 307 309 308 307 307 307 308 310 309 304 310 311 314 313
294 293 292 292 294 295 296 295 294 292 293 294 293 292 292 292 291 289 287 284 286 286 287 287 287 287 293 296 303 306 305 306 307 309 310 310 309 309 309 309 311 313 315 317
294 292 292 292 292 292 294 296 295 293 293 292 293 292 292 291 292 290 290 286 286 286 287 286 285 285 289 291 298 298 301 304 305 306 308 312 313 313 313 312 313 315 315 314
294 293 293 292 291 292 293 293 294 294 293 292 291 291 293 292 292 288 288 291 288 286 286 285 284 285 286 291 292 294 294 296 300 301 301 304 306 309 311 312 314 316 314 317
294 293 292 292 292 291 290 292 293 293 294 294 294 293 292 291 292 294 294 292 288 288 286 285 284 284 285 288 288 290 291 291 292 296 298 294 300 302 303 308 307 310 312 309
293 292 292 291 291 290 291 292 292 292 293 294 294 294 295 294 290 292 293 293 289 292 293 287 285 284 285 285 285 286 288 289 289 290 293 294 295 296 298 300 301 302 307 310
293 292 292 292 291 291 291 290 290 290 290 290 292 293 294 295 294 292 292 290 294 292 293 292 290 287 284 284 284 284 285 285 286 288 289 290 291 292 293 294 295 295 296 299
292 289 292 292 292 291 290 290 290 289 290 288 290 292 292 293 293 293 289 291 292 293 294 293 292 289 290 286 284 283 283 283 284 285 287 288 288 288 289 291 292 292 293 294

GFSNGP_sfc_thetae_081.txt.gz
Theta_e
295 296 296 294 294 294 293 294 290 293 293 297 300 302 304 305 305 304 302 303 304 305 307 308 308 310 311 312 313 315 315 317 320 319 328 331 331 332 334 332 330 328 327 326
292 295 295 292 294 295 295 295 295 296 295 302 303 303 302 301 299 300 301 302 303 304 305 306 307 308 310 311 312 314 313 314 317 317 316 325 330 331 331 329 330 328 328 325
288 294 294 290 295 296 296 298 297 293 297 301 300 299 298 298 299 299 300 301 301 303 304 305 306 307 307 309 310 312 312 313 314 315 316 316 323 327 329 333 333 331 330 329
289 292 284 295 301 299 296 297 299 298 299 299 299 299 299 301 299 299 299 299 299 301 301 303 302 303 307 306 307 308 310 312 313 314 314 316 317 321 330 334 335 334 330 330
288 289 293 294 298 297 295 294 299 297 299 298 298 299 296 299 299 298 297 298 298 300 300 302 301 303 302 301 305 307 306 310 312 313 313 313 315 316 318 331 333 333 333 331
292 285 284 295 299 301 300 290 300 298 298 296 296 286 290 296 297 296 297 297 297 298 298 298 299 302 299 301 301 300 306 308 310 312 313 313 313 315 320 323 329 327 331 334
290 288 292 300 301 302 288 292 300 300 297 295 291 292 295 297 297 297 296 295 296 296 295 296 298 298 296 299 301 301 304 307 308 310 313 315 318 315 315 319 324 328 330 334
292 288 285 303 300 292 298 301 299 298 297 295 295 296 295 295 294 294 293 293 293 292 293 294 296 295 294 294 298 301 302 303 306 306 309 312 317 317 314 315 316 318 325 329
294 295 302 304 301 302 301 299 298 297 299 298 296 295 294 292 292 291 290 290 291 291 291 293 294 295 293 294 296 297 298 301 301 304 309 309 316 315 314 313 313 316 319 321
296 298 299 302 304 302 302 300 300 300 300 299 295 294 292 291 290 289 289 289 291 292 291 292 294 295 296 296 295 295 295 296 298 300 304 307 310 315 314 315 313 314 315 318
295 297 301 301 301 301 301 301 301 300 299 299 296 293 292 289 288 288 289 291 292 291 291 293 295 296 299 300 298 294 295 295 296 299 303 305 307 312 315 319 315 319 318 320
292 298 297 298 301 303 301 299 300 299 299 298 295 292 291 288 288 289 290 291 291 292 292 294 294 295 299 298 298 297 295 295 296 299 301 303 304 306 300 301 299 298 299 308
297 301 300 301 303 303 300 300 301 301 300 296 296 292 290 287 289 292 291 291 291 291 292 293 293 296 298 298 300 298 296 296 296 298 300 302 302 303 304 305 298 298 295 298
302 302 299 301 299 301 300 301 302 302 300 298 295 294 292 289 290 290 290 291 291 291 292 293 296 297 299 298 298 297 297 295 298 298 301 301 302 304 304 305 306 307 296 298
300 302 301 300 300 299 301 301 299 299 298 297 296 293 292 289 287 289 291 291 290 291 290 292 294 297 301 299 298 298 298 299 299 299 301 302 302 303 303 303 305 307 310 300
300 299 299 297 298 299 299 299 296 297 297 296 296 293 292 291 290 290 290 290 287 287 288 289 292 295 302 301 299 299 299 295 297 300 301 300 302 301 302 302 302 306 308 310
295 295 295 295 297 297 298 298 297 296 297 296 296 295 292 291 289 289 289 290 289 288 288 288 289 293 298 305 304 303 302 301 296 301 301 302 301 301 302 302 304 306 308 309
298 297 297 296 297 297 298 298 297 296 297 296 297 297 293 290 287 288 288 289 288 287 287 288 288 292 300 306 307 304 303 301 301 303 305 303 301 303 303 303 304 305 308 307
297 296 296 297 298 297 298 298 297 296 297 298 297 296 296 292 291 289 289 288 286 284 285 287 288 290 295 298 300 307 307 306 306 305 305 300 304 305 306 305 306 307 308 309
296 295 295 296 297 297 297 298 299 298 296 298 298 297 296 295 294 290 289 288 287 286 287 287 286 287 291 294 295 304 305 307 306 306 306 307 307 307 307 303 309 310 311 311
295 295 294 294 295 295 297 297 297 297 297 297 297 296 297 297 296 294 290 288 289 288 288 287 286 286 289 290 295 297 302 306 308 309 309 307 309 308 311 311 311 311 311 313
295 295 294 294 294 294 296 296 296 296 296 296 296 296 296 295 296 295 296 292 292 288 289 287 286 284 286 288 291 292 293 295 299 301 303 309 311 310 311 311 311 313 317 318
295 295 295 294 294 294 296 296 295 295 295 296 295 296 296 296 295 294 293 297 296 291 291 288 285 285 285 287 287 288 289 290 292 294 296 299 302 305 309 314 315 316 317 314
295 294 294 295 295 294 293 294 295 295 295 296 296 296 296 295 295 296 297 294 290 292 296 288 287 285 286 285 285 285 285 286 287 289 291 291 294 297 300 302 306 310 313 311
295 295 295 294 293 293 294 294 295 294 294 294 295 296 296 296 295 296 296 295 291 295 299 290 288 288 288 287 285 284 284 284 284 285 287 288 290 291 292 295 296 298 303 310
295 295 295 295 294 294 293 293 293 293 292 292 294 295 295 296 296 296 296 293 295 293 296 295 294 293 293 289 287 286 285 284 283 283 284 285 287 288 288 290 292 293 296 300
294 291 295 294 295 294 294 293 292 293 292 290 292 294 294 294 293 294 292 294 294 293 294 294 292 291 291 291 291 288 286 285 284 282 282 283 284 286 286 288 289 290 291 293

GFSNGP_sfc_thetae_084.txt.gz
Theta_e
295 296 296 295 294 295 293 293 290 292 292 296 301 302 302 303 302 301 301 302 303 304 304 306 306 307 309 310 311 311 309 310 314 320 322 322 323 328 334 326 324 328 322 323
292 296 295 292 295 295 294 294 294 294 294 301 302 302 301 301 300 300 300 301 302 303 304 304 305 305 305 304 305 308 307 308 311 315 318 319 320 320 317 321 319 323 329 322
288 294 294 289 295 296 297 298 296 291 296 300 299 299 299 299 300 299 299 300 300 300 300 301 301 303 302 302 303 304 304 307 309 310 313 317 317 317 317 318 325 328 326 326
289 291 282 294 302 300 297 298 299 298 298 299 299 300 299 299 298 297 297 297 297 297 298 299 300 300 300 301 303 302 301 304 306 309 309 314 316 316 317 316 320 329 328 327
287 288 292 294 299 297 294 294 299 297 298 298 298 297 296 299 299 298 297 297 297 297 297 297 297 298 299 300 301 300 302 302 304 308 308 310 315 316 318 314 315 330 331 330
290 285 283 295 299 303 301 289 299 298 297 295 295 288 292 299 299 297 297 296 294 294 294 294 295 296 296 297 297 299 301 302 304 307 307 307 314 315 315 315 314 321 331 330
288 287 291 300 301 302 288 290 299 299 297 295 293 296 299 299 297 297 295 294 294 293 292 292 293 293 292 294 294 297 299 303 303 304 305 310 308 318 313 314 315 317 324 331
291 288 285 302 300 293 297 301 300 299 298 297 298 299 298 297 294 294 292 291 292 291 291 293 294 293 292 292 295 297 297 298 301 303 304 307 307 313 316 312 311 312 319 322
294 294 301 303 301 302 302 300 299 298 300 299 298 298 295 293 292 291 291 290 291 291 292 293 294 294 293 293 295 296 296 295 296 301 302 304 305 307 313 313 310 310 315 319
297 298 300 302 303 303 303 301 301 301 301 300 298 296 293 292 291 290 290 290 292 292 291 292 294 295 296 297 297 296 295 295 296 297 301 304 303 307 310 312 312 312 313 315
295 299 300 301 301 302 302 302 300 300 301 299 297 295 292 291 290 290 290 291 291 291 290 291 294 294 295 297 298 298 297 295 295 296 298 300 302 304 309 314 313 312 313 314
293 298 298 298 301 303 300 299 298 299 300 299 298 293 292 290 290 290 290 291 290 290 290 292 293 295 298 299 298 298 296 295 295 296 296 298 301 303 299 298 298 301 302 310
298 301 301 302 303 302 299 299 300 301 300 298 297 294 293 289 290 291 290 290 289 289 291 291 293 295 298 298 299 298 296 295 295 296 297 298 301 303 304 301 296 296 297 296
301 301 299 300 297 300 301 301 301 301 300 299 297 295 294 291 290 290 289 290 290 290 290 290 291 292 295 299 299 298 297 295 297 296 299 300 300 304 304 305 304 307 298 299
300 301 300 299 300 299 301 300 298 297 297 298 298 295 294 290 288 289 291 291 289 289 288 289 289 290 293 300 299 299 299 298 299 299 299 300 301 303 304 305 305 304 308 298
300 299 298 297 297 298 298 298 296 295 296 298 297 297 294 292 290 290 290 290 287 286 287 287 288 289 293 299 302 302 301 295 297 300 300 301 301 302 303 303 303 303 303 306
295 294 295 294 295 296 297 298 297 295 296 297 298 299 297 293 291 290 290 290 289 288 287 287 287 289 294 298 297 304 302 302 296 301 301 301 301 301 302 302 302 301 302 304
298 297 296 297 296 296 297 298 298 296 296 298 299 299 298 295 291 290 290 291 290 288 288 287 288 289 292 294 295 303 304 302 302 303 301 301 302 303 302 302 302 303 302 303
297 295 296 296 296 297 297 297 298 298 297 297 297 297 298 297 296 293 292 291 289 286 286 288 288 288 289 290 292 299 305 306 306 304 304 299 301 302 302 302 302 302 305 306
295 295 295 295 296 296 295 296 297 296 297 297 296 297 297 296 296 296 294 291 290 288 289 288 288 287 288 288 290 293 296 302 306 307 306 304 305 304 304 299 303 303 305 305
295 295 294 294 294 295 295 296 295 295 296 296 295 295 297 298 297 297 294 291 294 292 290 289 288 286 287 286 288 289 290 292 294 298 301 306 307 307 308 309 307 307 309 310
296 295 294 294 294 294 295 296 295 295 296 296 295 295 296 297 297 297 297 294 295 291 291 289 288 286 285 286 286 286 287 287 288 291 292 295 298 301 309 311 310 310 311 312
295 295 295 294 294 294 295 295 295 294 294 296 296 296 296 296 297 295 293 296 294 292 294 291 287 286 286 287 286 285 285 285 285 286 288 289 291 293 295 298 303 309 315 316
295 295 295 295 295 294 293 294 295 294 294 295 297 297 296 294 295 298 298 294 289 291 294 289 288 287 288 288 287 285 284 284 283 284 285 285 287 288 289 292 294 296 300 305
296 296 295 295 293 293 294 294 295 294 294 294 296 296 296 296 293 294 296 295 290 292 295 289 288 287 292 290 288 286 285 284 283 283 283 283 284 285 286 288 289 291 293 297
296 295 295 295 294 294 293 293 292 293 292 290 293 294 295 295 293 294 296 293 295 292 293 292 290 289 290 290 289 287 286 285 283 283 282 282 282 283 284 285 286 288 289 291
294 292 295 294 294 294 293 293 292 292 291 289 290 293 293 293 291 291 291 294 294 293 293 289 289 287 288 288 288 287 286 285 283 283 282 282 281 281 282 283 284 286 287 288

GFSNGP_sfc_thetae_087.txt.gz
Theta_e
292 294 295 294 294 294 291 290 285 287 287 292 294 294 295 296 297 297 297 298 299 298 298 299 299 300 300 301 302 304 303 303 302 305 306 307 310 315 316 317 320 324 321 319
289 295 294 292 294 294 293 293 291 290 290 294 296 297 296 295 295 295 295 296 297 298 298 297 298 298 299 300 301 302 301 301 302 302 304 305 307 312 313 315 317 322 319 321
284 293 292 287 293 295 296 295 293 287 290 295 293 294 293 294 295 294 295 296 297 297 298 298 297 298 298 299 300 300 300 300 300 302 302 303 305 308 312 311 312 315 316 322
285 288 278 293 300 299 294 295 295 294 294 294 293 294 294 295 294 295 296 296 297 296 296 295 296 295 296 297 297 297 298 299 301 301 301 302 303 306 311 310 311 313 314 320
282 283 289 293 297 295 292 291 295 292 293 294 294 294 294 297 298 296 297 296 296 296 295 294 294 295 294 294 294 295 296 298 299 300 300 301 302 303 308 311 313 312 315 317
285 282 281 293 299 302 297 285 295 294 292 291 293 286 290 297 297 296 296 295 294 294 293 293 293 294 293 293 293 292 294 296 298 299 300 300 301 303 308 312 313 315 315 316
285 282 289 298 299 300 284 284 295 294 292 291 290 293 296 298 295 295 295 293 293 293 292 292 294 294 293 293 292 294 295 295 297 298 298 301 301 302 303 309 312 313 313 314
287 282 282 300 298 290 292 295 294 293 293 294 295 296 295 294 293 293 292 292 292 292 292 293 294 294 293 293 295 296 296 296 296 296 298 300 300 300 303 307 306 310 311 311
291 290 299 298 295 299 297 294 294 293 294 296 295 293 293 292 292 292 291 291 292 291 291 292 293 293 292 294 296 297 297 295 296 297 296 298 300 299 302 305 305 308 310 309
293 297 297 299 298 297 297 295 296 295 297 295 293 293 292 292 292 290 290 290 291 290 289 289 292 293 294 295 297 297 296 297 296 296 296 296 299 301 301 301 309 306 309 308
294 296 298 297 296 297 297 297 296 298 297 295 294 292 293 292 291 290 290 290 290 290 289 289 291 292 294 297 298 297 297 297 297 296 296 295 298 300 300 305 305 309 308 310
288 294 293 293 296 298 295 295 297 297 295 296 294 293 293 291 291 290 290 290 289 289 289 290 290 291 294 295 297 297 296 296 296 295 296 296 296 298 297 297 296 296 297 306
294 297 296 297 297 298 296 297 298 297 296 294 294 294 293 291 291 291 290 290 289 289 289 289 289 290 292 293 296 297 296 296 296 295 296 295 295 296 298 300 296 295 296 298
298 299 295 295 292 297 298 298 298 297 296 295 294 295 294 292 291 290 289 290 290 289 289 288 288 289 291 293 297 299 298 295 296 296 296 298 298 298 299 302 299 299 298 297
298 297 294 295 295 296 297 296 295 294 294 294 294 293 293 292 290 290 291 291 290 289 288 288 287 288 291 294 296 300 299 299 299 299 298 299 300 300 301 302 302 302 301 297
296 294 293 293 294 296 295 295 293 292 294 294 293 294 293 294 293 292 292 292 289 287 288 287 287 288 291 293 293 298 301 295 297 299 299 299 301 300 301 299 302 302 302 302
291 289 290 292 293 294 294 295 294 293 294 294 294 295 294 293 293 293 292 293 291 289 288 288 287 289 291 291 290 296 302 301 297 300 300 298 299 300 299 299 298 298 301 301
293 292 293 293 293 294 295 296 295 294 293 295 295 294 292 291 291 291 292 293 291 289 289 288 289 289 289 289 290 294 297 304 303 302 301 299 300 301 297 300 299 299 299 301
293 292 293 293 294 294 293 294 293 293 294 295 294 292 293 291 292 291 292 291 290 287 288 289 290 289 288 288 288 291 292 294 297 302 303 298 299 301 300 300 301 301 299 301
293 292 293 293 294 293 292 293 293 294 294 293 292 292 291 291 292 292 291 289 291 289 289 289 289 288 288 288 287 287 288 289 291 292 294 297 303 302 302 298 301 298 300 302
293 292 292 292 292 293 293 293 292 292 294 293 292 291 290 291 292 291 288 287 290 291 289 289 288 288 288 287 287 286 286 286 287 287 289 290 292 294 299 305 305 304 304 303
292 291 291 292 292 292 293 292 292 292 292 293 293 292 290 289 289 290 289 286 289 289 289 287 287 286 287 287 287 286 285 284 284 285 285 286 288 289 290 293 296 303 306 306
292 293 292 292 291 291 293 293 292 291 290 291 292 291 289 288 288 286 286 288 289 288 287 286 285 286 285 288 287 286 284 284 283 283 283 284 285 286 287 288 290 292 295 298
292 292 292 293 293 291 290 291 291 291 290 290 293 292 289 286 286 288 289 290 288 288 287 285 285 285 286 287 286 285 285 283 282 282 282 282 282 283 284 285 286 288 290 292
293 292 292 291 289 289 290 290 291 289 288 287 290 291 290 288 285 287 289 290 288 288 287 286 285 284 285 285 283 283 283 283 282 281 282 281 281 281 282 283 284 285 287 288
292 291 291 291 290 289 288 289 288 286 286 285 287 288 288 288 287 288 289 289 289 288 286 287 286 284 283 283 283 282 282 282 281 281 281 281 281 281 281 281 282 284 285 286
290 291 290 289 289 289 288 287 286 285 286 285 286 287 287 286 286 287 288 288 287 287 286 286 287 284 283 282 282 282 281 281 280 280 280 280 280 280 281 281 281 283 284 284

GFSNGP_sfc_thetae_090.txt.gz
Theta_e
290 292 293 293 293 294 292 292 285 289 287 289 291 291 291 293 294 293 294 295 296 296 297 297 298 299 300 299 300 300 299 299 299 300 302 303 303 305 308 309 315 316 317 320
287 293 293 291 293 293 293 293 292 290 287 293 292 292 292 292 293 293 294 296 296 297 297 296 297 297 297 297 296 297 297 298 299 300 301 302 302 303 305 306 311 314 316 319
282 292 291 285 291 293 293 293 291 287 289 291 290 292 291 291 292 294 295 295 295 295 295 295 295 295 294 295 296 295 295 296 298 298 298 299 300 301 303 305 307 310 312 314
283 287 278 291 298 297 293 293 293 292 292 292 290 292 292 292 293 295 294 294 294 294 294 294 295 295 295 295 295 295 295 295 296 296 297 300 299 299 300 305 309 308 309 312
283 280 288 291 296 295 291 290 294 292 292 291 292 291 290 296 296 294 293 294 295 295 294 294 294 295 294 294 294 294 294 295 296 296 296 298 299 299 299 302 307 308 311 311
286 279 278 292 299 302 298 286 295 292 290 289 289 284 289 295 295 293 294 295 294 294 294 293 294 294 294 294 294 294 295 296 296 296 296 296 298 300 298 302 309 311 311 313
285 282 286 298 300 301 286 284 294 292 290 289 287 290 294 295 293 294 294 293 294 293 292 292 294 294 292 293 293 295 297 297 297 297 296 297 297 298 299 302 306 308 309 311
287 283 279 299 298 291 292 293 293 291 290 290 292 293 293 292 293 293 292 292 292 291 291 292 293 292 291 292 295 296 297 297 297 298 298 299 297 298 300 300 302 305 307 309
289 287 297 297 295 295 295 293 292 290 292 291 292 291 292 292 292 292 291 291 291 291 290 291 292 292 291 292 294 296 296 298 298 299 298 298 296 296 299 301 302 305 308 307
292 296 297 297 297 296 296 293 292 294 293 293 290 292 291 292 291 290 290 290 291 290 289 289 291 291 292 293 295 295 296 297 298 298 297 297 297 297 299 300 300 305 308 308
294 297 297 297 296 296 294 295 295 294 294 292 292 292 292 291 290 290 290 290 291 289 289 289 290 290 292 293 294 293 297 296 296 297 296 296 297 297 300 301 300 304 307 310
289 296 294 292 294 295 294 294 294 293 293 294 293 291 291 291 291 291 290 291 290 289 289 289 289 290 291 292 292 293 296 296 296 295 296 296 296 296 297 295 296 295 296 305
294 297 295 294 295 296 295 294 294 294 294 292 293 292 290 291 292 292 291 291 290 289 289 289 289 289 290 291 293 295 297 297 296 296 296 296 296 295 295 298 295 294 293 296
297 295 292 293 291 296 296 295 296 295 295 295 293 292 291 292 292 292 291 292 291 290 289 289 288 288 289 291 292 292 295 297 298 298 297 297 297 299 295 295 299 299 295 293
295 295 292 293 295 294 295 294 292 292 293 294 293 292 291 290 290 291 293 293 291 290 289 288 288 287 290 291 290 291 295 300 298 299 298 299 300 300 298 300 299 299 298 297
292 292 292 293 293 294 293 292 291 291 292 293 292 292 291 291 290 290 291 292 289 287 288 288 288 289 290 289 289 292 296 296 297 300 300 299 300 300 301 299 298 301 298 298
288 288 290 290 293 293 292 292 292 292 292 292 292 292 290 290 290 289 289 291 290 288 288 288 288 289 289 289 288 291 292 295 294 301 301 299 298 299 300 299 297 300 298 298
291 290 290 291 292 293 293 294 292 291 291 293 293 292 290 288 287 287 289 290 290 288 287 288 289 289 289 288 288 288 289 291 293 295 296 300 300 301 296 295 295 297 300 299
291 290 291 293 292 292 292 291 291 291 292 292 291 290 290 289 288 287 288 288 287 285 285 287 289 289 289 288 288 287 287 287 288 290 290 292 294 299 300 300 298 296 296 298
290 290 291 292 292 291 290 291 292 291 292 291 291 290 288 288 289 287 285 285 286 286 286 286 286 287 288 289 287 286 285 285 285 286 287 287 289 290 293 293 299 299 297 297
290 290 290 290 290 291 290 290 291 291 291 292 290 289 288 287 288 286 284 284 284 286 285 285 285 285 287 287 287 286 284 284 283 283 284 284 285 286 288 290 292 294 301 301
288 289 290 290 289 289 289 289 290 290 290 291 291 288 286 285 285 285 286 282 285 287 285 283 283 283 285 285 284 284 284 283 282 282 282 282 282 283 284 286 287 290 291 294
289 289 290 289 288 288 290 289 289 288 288 290 288 286 285 284 283 283 283 286 285 286 285 284 283 283 283 283 283 282 282 281 280 281 281 281 281 282 282 282 284 286 287 289
289 289 288 289 289 288 287 288 287 287 287 290 288 287 285 283 285 286 286 288 286 285 286 284 283 283 283 282 282 281 281 280 279 280 280 281 280 280 281 281 282 283 285 286
289 288 287 286 285 285 286 286 286 285 286 286 286 286 286 285 283 286 287 287 286 285 285 285 283 283 282 281 281 280 280 280 279 279 279 279 279 279 280 280 281 282 283 284
287 286 286 287 285 285 285 284 283 283 284 284 284 284 285 285 286 287 286 286 286 285 284 286 284 283 282 281 281 280 280 280 279 279 279 278 279 278 279 279 280 281 281 282
287 287 286 286 286 285 285 284 283 282 284 283 283 283 283 284 284 285 285 284 284 283 283 285 285 283 282 281 281 280 280 279 279 279 279 278 278 278 278 279 279 280 281 281

GFSNGP_sfc_thetae_093.txt.gz
Theta_e
289 291 291 291 292 293 291 290 286 288 289 289 291 292 291 291 292 292 292 294 295 295 295 296 296 297 298 296 296 297 296 296 296 296 296 298 299 299 301 303 304 306 308 312
286 291 291 289 292 292 292 292 292 292 286 292 294 293 291 292 291 291 293 295 295 295 295 295 296 295 295 295 295 296 295 295 296 296 296 297 299 299 300 300 301 303 305 307
282 290 290 284 289 291 291 291 289 285 288 291 290 292 291 290 291 292 293 293 293 293 294 295 294 294 294 295 295 295 295 296 296 297 296 296 297 297 299 300 300 301 303 307
281 285 279 288 296 295 291 291 291 290 291 291 291 292 291 291 291 292 292 292 293 294 295 294 294 295 295 295 295 295 295 295 296 297 297 297 296 296 298 299 298 299 301 307
283 282 286 291 294 293 290 288 293 292 293 292 292 289 288 294 293 292 292 293 293 294 294 293 294 294 294 294 294 295 295 295 297 297 297 297 296 296 297 298 299 301 303 305
286 276 278 288 298 300 296 284 295 293 290 288 288 280 285 292 292 292 294 294 293 293 293 293 293 294 293 293 293 293 295 296 297 298 298 297 297 296 297 298 300 300 302 308
285 282 285 296 299 300 285 285 294 292 289 286 285 288 290 291 293 294 293 293 293 293 292 292 293 293 291 292 292 294 295 296 297 299 299 299 298 297 297 297 298 300 302 305
286 283 280 299 298 291 293 295 293 291 289 288 288 290 290 292 292 292 291 291 292 291 291 292 292 292 291 291 293 294 295 296 297 298 300 301 299 298 297 297 298 298 299 303
288 286 296 297 295 296 294 292 291 291 290 290 289 288 291 291 291 291 291 291 292 291 290 291 292 292 290 291 293 293 294 295 297 298 298 299 298 297 296 297 298 298 300 304
292 295 296 297 298 296 294 291 293 292 292 290 287 289 290 290 290 290 291 291 291 291 290 289 290 291 291 292 293 292 292 294 298 297 296 298 298 298 296 296 298 300 305 303
293 296 297 298 297 294 294 295 293 293 292 291 289 290 290 290 290 291 291 292 291 290 289 289 290 290 291 292 291 291 292 295 298 297 296 296 297 297 297 299 299 300 302 307
287 296 295 294 295 296 294 293 293 292 290 291 291 290 291 291 292 291 291 292 290 290 289 289 289 290 290 291 291 291 291 294 298 297 297 296 296 295 295 294 294 293 293 296
292 298 297 294 295 296 293 293 294 292 292 290 291 291 291 290 290 292 292 291 290 290 290 289 289 289 290 290 291 290 290 293 297 298 298 297 297 296 294 297 296 293 292 296
295 294 292 294 292 294 294 294 295 293 293 293 292 292 291 290 290 290 290 291 290 290 289 289 289 288 290 290 290 290 292 294 297 299 299 299 299 299 298 296 296 300 296 295
295 294 293 295 294 293 293 292 291 291 292 292 293 291 290 289 288 288 290 291 289 288 288 288 288 288 290 290 288 290 291 293 294 299 300 299 300 301 301 300 300 300 299 299
293 294 294 292 292 292 291 290 289 289 291 290 291 290 290 289 288 287 288 290 287 285 285 286 287 289 290 288 288 289 290 290 292 296 299 300 299 299 300 300 300 300 298 298
290 289 291 291 291 290 290 291 290 290 290 290 291 291 290 289 287 286 287 288 287 285 285 285 286 288 289 288 287 287 288 289 289 291 291 294 299 297 298 298 298 299 299 296
292 291 292 292 291 290 291 291 290 289 289 291 292 291 289 287 285 285 285 286 285 283 283 284 286 287 288 288 287 286 286 286 287 287 288 289 290 293 297 296 295 295 297 298
292 292 292 292 291 291 291 289 289 290 290 290 289 288 288 288 286 285 284 284 283 281 281 283 285 285 286 286 287 285 285 285 284 285 285 286 287 288 289 291 292 297 295 296
291 291 291 290 290 289 289 290 290 290 290 289 288 287 286 287 287 285 283 282 283 282 283 283 283 283 284 285 285 284 283 283 283 283 283 283 284 284 285 286 288 291 293 297
290 290 289 288 288 288 288 290 290 289 290 289 286 285 284 285 287 286 283 281 283 284 283 283 282 282 283 283 283 282 281 281 281 281 281 281 281 282 283 283 285 287 288 290
288 288 288 288 287 287 287 287 288 290 288 287 286 286 284 283 284 285 284 282 283 286 283 281 282 282 282 282 281 281 280 279 279 279 279 280 280 280 281 281 282 284 285 286
288 288 288 287 287 286 286 286 286 288 286 286 285 284 283 282 283 283 282 284 283 285 283 281 282 282 281 281 280 280 280 279 278 278 278 279 279 279 279 280 281 282 283 284
286 286 286 287 286 285 283 283 286 287 285 285 285 285 284 283 284 285 285 286 285 284 284 282 282 282 281 281 280 279 279 279 278 278 278 278 278 278 278 279 279 280 281 282
287 286 285 284 284 283 282 283 284 284 284 283 283 284 285 285 283 283 284 284 284 283 284 284 283 281 281 280 280 279 279 279 278 278 278 278 278 278 278 278 278 279 280 281
284 284 283 284 283 282 282 282 281 282 282 281 282 282 283 284 284 283 283 283 282 282 283 284 282 281 281 280 279 279 278 278 278 278 278 278 278 278 278 278 278 278 279 280
284 285 283 282 284 283 283 283 282 281 282 281 280 281 281 282 282 282 282 281 281 282 281 283 281 280 280 279 278 278 278 278 278 278 278 278 278 278 278 278 278 279 279 279

GFSNGP_sfc_thetae_096.txt.gz
Theta_e
287 290 290 289 290 291 290 290 286 288 288 289 291 291 291 291 292 292 292 294 295 294 295 295 296 297 297 296 296 297 296 296 296 297 297 298 298 298 298 299 301 302 303 304
284 289 290 288 290 291 291 292 291 292 288 291 292 292 291 291 291 291 292 294 294 294 295 295 295 296 296 296 296 297 295 295 296 298 298 298 298 299 298 298 299 299 300 301
282 288 288 284 288 290 290 291 290 287 290 291 289 291 290 290 291 291 292 292 292 294 294 294 294 294 294 295 296 295 295 296 298 298 298 298 298 298 298 298 298 298 301 301
282 283 278 287 294 294 290 290 290 289 290 290 289 291 290 291 291 290 291 292 293 294 294 294 294 295 295 295 294 294 295 296 297 297 297 298 298 298 298 298 297 297 298 300
282 279 285 289 293 291 289 287 291 290 291 290 291 290 288 293 292 291 292 293 294 294 294 294 294 294 294 293 294 294 294 295 296 297 297 297 297 298 298 298 297 297 298 299
284 280 277 286 296 298 294 284 293 292 290 289 289 281 284 290 291 293 293 294 293 293 293 293 293 294 292 292 293 293 294 295 296 296 297 297 298 299 299 299 298 298 298 299
284 282 283 292 297 298 285 284 292 291 289 287 287 287 289 290 293 293 293 292 293 293 292 292 293 293 291 291 291 294 294 295 295 296 297 299 299 300 299 298 298 297 298 300
286 283 280 297 297 290 291 294 294 291 290 289 289 289 289 292 291 292 291 292 293 292 291 292 293 292 290 290 292 293 293 294 294 296 298 300 298 298 299 298 296 296 298 300
287 283 292 296 296 296 295 293 291 291 291 290 288 288 290 290 291 291 292 292 293 292 291 292 292 291 289 290 292 292 292 292 294 296 299 299 297 297 297 297 296 296 298 300
291 296 295 298 297 297 295 293 293 292 290 290 288 288 289 290 291 291 292 291 292 291 290 289 291 291 291 291 292 291 290 292 294 296 299 299 298 298 297 297 297 298 299 300
293 296 297 298 298 295 295 294 293 292 291 290 289 288 290 290 290 291 291 292 291 290 290 289 290 290 291 291 291 290 290 292 293 295 298 299 299 298 298 299 298 296 298 300
284 294 292 292 295 296 294 293 292 291 290 291 290 289 290 289 291 291 291 291 289 289 289 289 290 290 290 290 290 289 289 291 292 295 298 300 299 299 296 294 294 294 292 293
292 297 293 293 295 296 293 293 293 291 292 291 292 290 290 289 290 291 291 290 288 288 288 289 288 289 290 289 289 289 289 291 293 294 297 299 299 300 298 299 297 295 293 293
295 294 291 293 291 294 294 295 295 293 293 292 291 290 290 289 289 289 289 290 289 288 287 287 287 287 289 289 288 289 289 291 291 293 298 300 300 301 300 299 299 301 298 293
293 293 293 293 292 293 293 292 291 291 292 291 291 290 290 288 287 288 289 289 288 286 285 285 286 286 289 288 287 288 288 289 289 292 294 295 299 300 300 300 301 300 302 300
293 293 293 291 291 291 291 290 289 289 290 291 289 289 289 289 288 287 288 287 284 282 282 283 284 286 288 287 286 286 287 287 287 289 290 291 292 295 298 298 299 299 300 299
290 290 290 290 290 290 289 290 290 290 290 290 290 290 289 288 287 286 286 286 285 283 282 282 283 285 286 286 286 285 285 285 286 286 286 287 288 289 291 293 294 297 299 299
295 294 293 292 290 290 290 290 289 289 289 290 290 290 288 286 285 285 285 285 284 283 282 282 284 284 284 284 285 283 283 284 284 284 284 285 285 286 287 288 290 292 295 298
294 293 292 292 291 291 289 288 288 289 289 289 288 287 288 286 286 285 285 284 282 281 281 282 283 283 282 283 283 282 282 281 282 282 283 283 283 284 284 284 286 288 290 292
292 292 292 291 291 290 289 289 290 288 288 287 286 285 286 286 286 285 284 283 283 283 283 282 282 282 282 283 282 281 280 280 279 280 280 280 281 281 282 282 284 285 286 287
290 290 289 288 287 289 290 290 289 287 287 287 285 284 283 286 286 285 282 281 284 284 283 283 282 282 282 281 281 280 279 279 279 279 279 279 279 280 280 281 282 283 283 284
288 288 287 287 286 286 287 288 288 286 286 286 286 285 284 284 285 285 285 282 284 284 282 282 282 281 281 281 280 279 279 279 278 278 278 278 278 279 279 279 280 281 282 282
288 288 287 286 285 284 286 287 285 285 285 285 284 284 284 284 284 282 281 284 284 285 282 282 281 281 281 280 280 279 279 279 278 278 278 278 278 279 279 279 279 280 280 281
287 286 286 286 284 284 283 284 284 284 284 284 284 285 284 282 283 284 284 284 283 284 284 282 281 281 279 279 280 279 279 279 278 278 278 278 279 279 279 279 279 279 279 280
286 285 284 283 282 281 283 284 283 283 283 282 283 285 285 285 283 283 283 283 283 282 283 281 280 280 279 279 278 278 278 278 278 278 278 278 278 278 279 279 279 279 279 280
284 283 283 283 282 282 282 282 281 282 282 282 282 283 283 283 283 283 283 283 282 281 281 282 280 280 279 278 278 278 278 278 278 278 278 278 278 278 279 279 279 279 279 279
283 283 282 282 282 282 282 282 281 280 280 280 280 281 281 281 281 281 282 282 281 280 280 280 280 280 278 278 277 277 278 278 278 278 278 278 278 279 279 279 279 279 279 279

GFSNGP_sfc_thetae_102.txt.gz
Theta_e
297 298 297 298 298 299 298 298 294 296 296 302 305 305 306 308 307 306 305 306 306 305 306 307 307 307 307 308 308 310 309 309 309 310 310 310 307 306 306 307 307 306 305 305
295 299 298 296 298 298 298 298 296 298 298 305 306 309 307 307 305 305 305 304 303 304 305 305 305 304 305 306 307 308 308 308 308 308 308 307 307 306 306 307 306 306 306 306
291 296 295 291 295 297 298 300 299 295 300 304 304 305 307 306 304 304 303 302 302 303 303 303 303 302 302 303 306 307 307 307 307 308 308 306 306 306 305 306 306 305 307 304
290 292 284 295 301 300 298 300 302 302 302 304 305 306 306 305 304 303 302 302 302 302 301 301 301 301 301 302 304 306 306 306 307 307 306 307 307 307 305 304 303 305 306 306
290 289 292 294 297 298 297 297 302 302 303 303 304 304 302 302 302 302 302 302 301 300 299 300 300 299 299 298 302 302 303 305 306 305 305 307 305 304 305 303 301 303 306 307
291 284 283 296 301 304 303 293 303 304 303 302 302 298 299 302 302 301 301 300 299 299 299 299 298 298 295 296 299 298 300 302 303 303 304 302 302 302 303 301 302 303 304 305
289 287 291 299 302 304 292 295 304 305 304 302 299 302 302 301 301 300 299 299 299 299 296 295 295 295 294 295 295 296 298 299 301 304 304 303 303 304 302 301 303 304 304 303
290 287 284 302 302 295 303 306 305 304 303 301 301 300 300 299 298 297 297 297 297 297 297 297 296 294 293 292 294 295 295 297 301 303 302 301 304 302 302 304 306 302 302 305
295 294 304 306 305 308 309 305 304 303 303 302 300 299 299 297 298 298 298 297 298 296 296 295 294 292 291 292 293 293 294 295 299 301 300 301 303 302 302 305 303 306 304 304
298 301 302 305 305 305 304 303 304 304 302 301 299 299 298 298 298 297 297 297 298 297 295 294 293 292 291 291 292 291 292 294 298 296 296 301 300 302 306 305 304 302 302 304
295 300 302 303 304 303 301 301 302 301 300 298 298 297 297 297 296 297 296 297 296 295 294 293 293 292 292 291 290 289 290 292 294 293 294 298 300 301 303 306 304 303 302 302
292 302 303 303 305 305 303 301 302 300 297 296 296 295 296 296 296 295 295 295 294 293 292 292 292 291 291 292 290 288 288 289 291 291 293 297 299 299 299 297 296 294 293 295
300 306 305 308 306 306 303 302 302 301 297 295 295 296 296 295 295 293 293 292 291 291 291 291 291 291 290 291 291 288 287 288 289 290 291 292 294 296 298 303 299 298 294 295
305 306 304 305 303 305 303 302 302 299 298 297 296 296 296 295 295 293 291 290 291 290 289 290 290 290 291 291 291 291 288 287 287 289 289 289 291 293 297 298 298 302 301 294
305 307 307 306 305 303 303 302 298 297 297 296 297 296 295 294 293 291 290 290 291 289 288 289 289 289 291 291 291 290 291 287 286 287 287 288 288 289 290 293 293 295 301 295
305 305 305 303 302 302 301 300 297 296 297 297 296 295 295 295 294 292 291 290 289 287 287 288 287 289 290 290 292 292 291 289 288 286 285 285 286 286 286 288 290 292 294 294
302 300 301 300 300 300 299 299 298 297 298 297 296 296 295 294 293 291 290 291 290 289 287 287 286 289 290 289 291 291 292 292 288 291 290 285 285 285 285 285 286 288 289 291
304 304 304 302 300 298 297 297 296 296 295 297 297 295 294 293 290 290 290 290 290 288 287 287 286 288 289 288 289 291 291 291 291 291 290 290 288 286 285 285 284 284 285 288
305 302 302 300 299 298 296 295 295 295 295 296 295 294 294 293 291 291 291 289 288 286 287 288 286 288 289 286 287 290 290 290 290 290 290 289 290 290 289 288 287 284 283 285
302 301 300 298 296 295 294 294 295 294 294 295 295 294 293 292 291 291 291 288 288 288 290 288 289 289 289 288 286 289 289 289 288 288 288 289 289 289 290 287 288 288 287 284
299 298 296 295 295 295 295 295 294 293 293 294 294 293 292 292 291 290 289 287 286 289 290 287 288 286 288 286 288 288 287 287 287 286 287 287 287 288 288 288 288 288 286 286
297 296 296 296 295 294 295 295 294 293 293 293 293 292 291 290 290 290 289 288 289 284 288 288 286 283 285 282 289 288 287 286 285 284 283 283 284 285 286 286 286 287 286 286
297 297 297 296 295 295 295 294 294 293 293 293 292 291 290 290 290 288 286 288 290 286 289 287 282 282 282 289 288 288 287 286 284 283 283 282 282 282 283 284 285 286 285 285
296 296 296 297 296 294 292 293 293 293 293 292 292 291 291 291 290 291 290 286 284 285 287 285 284 282 282 288 288 287 287 286 285 284 283 282 283 283 283 282 283 284 284 284
295 296 296 295 294 294 294 293 293 293 292 292 291 290 290 291 290 290 290 289 284 286 289 283 283 283 288 287 287 287 287 286 285 285 283 283 282 283 283 282 282 282 283 284
296 295 296 296 295 294 293 293 292 292 292 290 290 290 291 292 291 292 290 287 289 287 288 288 287 287 288 287 287 287 287 287 285 285 284 283 282 282 282 282 282 282 282 282
296 294 296 295 295 294 293 292 291 290 291 290 288 290 290 291 289 290 286 290 289 288 288 288 288 286 286 286 287 287 286 286 284 283 284 283 282 281 281 281 282 282 282 283

GFSNGP_sfc_thetae_105.txt.gz
Theta_e
301 300 298 300 299 300 299 301 295 297 298 302 303 306 309 311 311 310 309 310 310 310 310 310 310 310 311 311 313 314 313 313 313 314 314 313 312 311 311 311 310 310 309 309
298 302 301 298 300 300 301 301 300 300 299 309 310 310 309 308 309 308 309 310 308 308 308 308 309 309 309 310 311 312 312 312 312 312 311 311 312 310 310 309 309 309 308 308
290 298 297 294 298 300 300 302 301 296 301 306 305 308 308 309 309 307 308 307 306 307 307 308 308 308 307 307 308 309 310 311 311 310 309 309 310 310 310 310 311 309 309 308
292 297 286 297 303 301 300 301 303 303 305 306 306 307 310 311 309 308 306 306 306 306 306 307 306 305 305 305 305 306 308 308 309 309 309 309 309 309 311 309 309 308 306 304
292 292 294 296 299 299 297 297 304 303 304 306 308 309 306 307 307 306 305 305 305 306 304 304 302 302 301 302 302 302 305 305 307 308 307 307 306 307 308 307 306 304 304 305
294 288 285 298 303 305 305 295 305 305 306 305 306 300 299 306 305 305 305 305 304 304 303 302 301 300 299 299 299 300 300 301 304 305 305 305 305 307 306 308 305 305 306 309
292 291 293 302 304 306 294 295 305 306 306 305 301 305 306 306 304 304 304 302 302 301 301 300 300 298 297 296 296 296 297 299 301 303 304 306 307 306 307 306 307 307 307 309
293 289 286 304 303 297 304 308 306 306 305 305 305 304 304 303 302 302 302 300 301 300 298 299 298 297 294 293 294 295 296 296 298 301 304 304 305 305 306 307 307 306 305 306
296 295 307 309 308 310 309 305 305 306 306 305 304 302 302 302 302 302 301 301 301 301 300 300 298 296 292 293 292 292 293 294 297 301 304 304 304 303 302 304 305 305 305 305
299 303 303 307 309 310 308 307 307 306 305 304 302 302 301 301 300 299 299 299 300 299 299 298 298 296 294 293 292 291 290 292 295 298 299 303 303 303 302 302 302 304 304 303
298 303 303 304 306 307 307 306 305 304 303 302 301 300 299 298 298 298 298 298 299 297 297 296 296 295 293 293 293 290 289 290 291 294 296 299 303 302 302 305 302 300 302 299
298 304 304 302 305 308 305 303 303 301 299 300 299 298 298 297 297 297 296 297 296 296 294 294 294 293 293 293 293 292 288 288 288 292 294 295 296 299 298 296 295 293 294 294
304 308 307 306 309 306 304 304 304 301 299 297 298 298 298 297 297 295 295 295 294 293 292 292 292 292 292 293 293 293 292 288 287 290 290 292 290 292 292 299 297 296 293 293
307 307 305 306 302 305 305 305 303 301 300 299 298 299 298 297 296 295 293 294 294 292 291 292 291 291 293 293 294 294 294 291 289 288 288 287 289 289 288 292 294 298 298 293
305 308 307 306 305 304 305 303 300 299 298 298 299 298 297 296 294 293 294 293 293 291 290 291 290 291 293 293 294 295 295 293 293 291 287 287 288 289 288 288 290 292 297 295
305 308 305 303 302 303 303 301 299 298 299 299 297 297 297 296 295 293 293 292 290 288 290 290 289 292 293 291 293 294 295 289 292 295 294 293 289 287 287 287 286 286 288 290
302 301 301 300 301 302 301 301 300 299 299 299 297 297 296 295 294 293 292 293 292 290 290 290 289 292 293 291 293 293 294 294 290 294 294 294 293 292 289 289 287 286 286 287
306 306 305 303 302 301 300 300 299 299 299 299 298 297 295 293 293 292 292 292 292 291 291 291 290 292 293 290 291 293 293 293 293 293 293 293 293 294 293 291 290 289 286 287
305 303 303 303 302 300 299 298 298 298 298 298 297 295 295 294 294 294 293 292 290 289 290 291 290 292 292 289 289 292 292 292 291 291 291 290 292 292 292 292 292 291 289 286
303 304 303 301 300 298 297 298 298 297 297 297 296 295 294 293 294 294 293 289 290 290 292 291 291 291 291 291 288 292 291 291 289 289 289 289 289 290 291 288 291 291 290 289
302 301 299 297 297 297 297 297 296 295 296 297 295 293 293 294 292 292 292 291 290 291 291 289 289 288 291 289 290 292 291 290 289 287 287 287 287 287 288 289 290 290 289 289
300 298 297 297 296 296 297 297 296 296 295 294 294 294 293 293 293 292 291 291 291 284 290 289 288 284 286 282 292 291 291 290 288 287 284 285 285 285 286 287 287 288 289 289
298 298 298 297 297 297 297 296 295 295 294 294 294 294 293 292 293 291 288 289 291 289 290 288 284 283 283 291 291 291 290 289 288 287 286 284 284 284 283 284 285 286 287 287
299 298 299 298 298 296 294 295 296 296 294 294 293 294 295 294 292 294 291 286 285 286 289 287 285 283 283 291 291 290 290 289 288 287 286 284 285 285 285 283 282 284 285 286
298 298 298 297 296 295 295 295 295 295 294 293 293 293 294 294 293 292 292 291 285 289 292 282 284 285 290 290 290 290 290 289 287 288 287 286 285 285 284 284 283 283 283 284
297 296 297 298 297 296 296 296 295 295 294 292 292 293 294 294 293 295 293 290 291 289 291 291 289 289 290 290 290 289 289 289 288 287 287 286 285 284 284 283 283 283 283 283
298 296 298 297 297 296 296 295 294 293 294 293 291 293 293 293 291 291 286 292 292 291 291 291 290 288 289 289 289 289 289 288 286 286 286 285 284 283 283 283 284 283 283 284

GFSNGP_sfc_thetae_108.txt.gz
Theta_e
299 299 299 299 299 300 298 301 296 298 296 302 306 308 309 313 311 310 309 310 311 310 311 310 310 310 310 311 312 313 312 313 315 317 316 315 314 314 314 312 311 310 309 308
297 297 299 297 297 300 300 301 300 299 297 304 309 310 308 310 310 309 309 308 309 308 308 308 308 308 309 308 309 310 310 311 313 314 313 313 313 313 312 312 312 311 310 309
292 298 296 291 295 296 301 303 302 297 302 307 307 307 308 309 309 309 309 308 307 307 307 307 307 307 305 305 307 307 307 310 310 311 310 311 311 311 310 310 310 308 309 308
292 296 285 298 304 302 301 303 304 303 305 307 308 309 310 310 309 308 307 306 306 306 305 305 305 304 303 303 304 304 305 307 308 307 308 309 309 308 308 307 306 307 307 307
291 290 293 297 300 299 298 297 303 303 305 307 307 306 304 307 307 305 305 305 305 305 304 303 301 301 300 300 301 301 301 301 302 303 305 306 305 304 307 306 307 307 307 307
294 288 286 297 302 306 303 294 306 306 306 306 307 300 300 306 306 305 305 304 304 303 302 301 300 300 298 297 298 296 297 298 299 301 302 303 304 305 305 306 306 307 307 308
292 292 294 303 304 305 292 296 307 307 307 307 304 305 306 305 304 304 303 302 303 302 300 299 299 298 296 296 294 295 295 296 297 298 301 302 305 304 306 306 306 305 307 309
294 290 288 305 303 298 306 308 308 307 306 305 306 305 304 304 303 303 302 302 302 301 300 300 299 296 294 293 294 294 293 294 295 298 300 302 303 303 304 305 305 304 304 305
297 297 307 309 309 311 310 307 307 306 307 306 304 303 303 302 302 301 300 300 301 300 300 300 299 297 293 293 294 293 291 292 294 295 298 299 301 303 302 304 302 301 301 302
300 303 305 307 307 308 307 306 307 307 306 305 302 302 301 300 299 299 299 298 299 298 297 296 297 296 295 294 294 294 291 290 291 292 295 298 301 301 300 301 301 300 301 300
300 303 304 305 305 306 306 306 305 305 304 303 302 300 299 298 298 297 297 298 298 296 295 294 295 295 294 294 294 293 292 290 289 290 294 296 297 297 295 298 296 297 300 297
297 304 304 303 306 306 304 303 303 301 300 301 301 298 298 297 296 296 295 296 295 294 294 293 294 293 293 294 294 294 292 291 289 289 291 292 293 293 292 292 293 293 293 292
305 308 307 307 308 306 303 303 301 300 299 298 299 298 297 296 296 295 294 294 293 292 292 293 293 292 293 293 294 295 293 292 291 289 289 288 289 291 289 291 293 292 292 291
309 308 305 305 302 305 304 302 302 300 299 299 299 299 298 296 295 293 293 294 293 292 291 292 291 291 292 293 295 295 296 292 294 293 289 288 288 289 290 288 287 289 292 291
307 309 307 305 305 303 303 301 299 297 298 298 299 298 297 294 293 292 293 293 292 291 291 290 290 291 292 292 293 294 294 293 295 296 295 292 292 290 290 290 288 288 289 289
306 305 305 303 302 302 301 300 298 297 298 297 297 296 296 295 294 293 293 292 290 289 289 288 289 292 291 291 292 294 295 290 292 294 294 294 295 294 292 291 290 288 287 287
303 300 301 301 301 301 300 301 300 299 299 298 297 297 296 295 293 292 292 292 291 290 290 289 289 292 291 291 291 293 293 294 290 293 293 292 293 293 292 293 292 289 287 287
307 305 305 303 301 300 300 300 300 300 298 298 297 296 294 294 292 291 292 292 292 291 290 290 291 292 291 290 290 293 292 291 292 290 291 291 291 292 291 291 291 291 290 288
306 305 304 303 302 301 300 299 299 299 298 298 296 294 294 294 294 292 292 291 290 289 289 290 290 291 291 291 288 292 291 290 289 289 289 289 290 290 290 289 290 290 290 289
305 304 303 301 301 299 297 298 298 298 298 297 296 294 292 293 294 294 291 288 289 290 290 289 290 290 291 292 286 291 290 289 288 287 287 287 287 287 288 286 288 289 289 289
303 302 300 298 298 298 297 297 297 297 297 297 295 293 292 292 292 293 292 288 289 290 290 289 289 287 289 288 289 291 290 289 288 286 285 285 285 285 286 286 286 287 287 287
301 299 298 297 296 296 297 297 297 296 295 294 294 294 293 293 291 289 290 290 289 286 289 288 288 285 285 284 291 291 290 289 288 287 284 284 283 283 283 283 283 285 285 286
299 298 297 297 297 296 296 296 296 295 294 294 294 293 292 292 293 290 286 290 291 288 289 288 285 284 283 291 291 291 290 288 289 288 287 285 285 285 283 281 282 283 283 284
299 298 298 298 297 296 294 295 296 295 294 294 294 295 295 293 292 291 289 287 285 287 288 287 286 284 283 291 290 290 290 288 287 289 288 286 287 286 285 283 282 282 283 283
299 299 298 297 296 294 295 296 294 294 293 293 293 294 294 294 293 292 293 290 287 289 290 283 284 285 290 290 290 289 289 287 286 288 288 286 285 285 284 284 283 283 283 283
299 297 297 298 296 295 295 295 294 294 293 292 293 294 294 294 293 294 292 290 292 290 291 290 289 289 290 289 289 289 288 287 286 286 286 286 285 284 284 283 284 283 283 283
298 296 298 296 296 296 296 296 294 293 293 293 291 293 293 293 292 290 287 292 291 291 291 290 289 288 288 289 289 288 288 287 285 285 285 285 284 283 283 283 283 283 283 283

GFSNGP_sfc_thetae_111.txt.gz
Theta_e
297 298 299 298 298 298 296 297 291 295 294 299 301 305 305 308 308 308 307 307 305 303 304 303 303 304 305 305 305 305 306 306 306 308 307 306 306 305 307 306 306 307 306 307
294 299 298 296 299 298 299 299 298 298 297 305 306 306 305 307 307 307 304 304 304 304 304 303 303 303 303 302 303 304 303 303 306 306 306 305 306 306 304 304 304 305 306 307
288 295 295 290 295 298 299 301 299 292 297 304 303 306 306 306 307 304 303 303 302 302 302 300 300 300 298 299 301 301 301 303 304 303 303 303 304 303 302 302 303 306 305 303
288 290 284 297 302 302 299 301 303 299 302 305 304 303 303 304 302 301 301 301 300 300 299 298 298 298 300 298 298 299 298 298 299 299 299 301 301 300 301 305 304 304 304 305
285 285 292 296 300 299 298 297 304 301 301 301 300 299 298 301 301 300 300 300 299 299 298 297 298 299 298 298 298 296 295 295 296 297 298 299 299 301 303 304 304 304 305 306
290 284 284 295 302 306 304 292 303 302 300 300 301 291 294 300 300 299 299 299 297 297 297 297 296 297 296 295 293 292 293 294 295 296 296 298 300 301 303 303 304 305 305 304
288 287 293 302 303 304 288 289 302 303 302 300 296 296 298 299 299 299 298 298 297 296 293 293 293 292 293 292 290 293 293 293 294 296 296 299 300 301 301 303 304 304 302 301
291 286 283 304 304 295 298 302 302 301 300 299 299 299 299 299 298 298 297 297 297 295 293 293 292 290 289 290 293 293 290 291 293 293 295 297 298 300 302 302 302 299 298 298
292 291 301 304 302 304 304 301 301 301 300 300 298 298 298 297 295 295 295 295 295 294 292 292 292 290 287 288 293 293 291 290 291 290 293 295 297 297 296 298 296 295 296 296
295 300 300 301 302 303 303 302 302 302 300 300 297 297 295 295 294 293 294 293 293 292 290 289 291 290 289 290 292 293 289 290 290 290 291 294 294 295 291 292 292 293 295 290
297 299 300 301 302 301 301 302 301 301 300 298 296 295 294 293 293 293 292 292 291 290 289 289 290 289 289 290 290 290 290 290 289 290 290 291 293 293 291 291 291 290 291 289
292 299 299 300 302 301 299 298 298 298 296 297 295 293 292 291 291 291 290 290 289 288 288 289 289 288 289 289 289 290 289 289 289 289 289 289 288 290 292 291 291 290 291 289
301 303 301 302 303 301 297 296 297 296 296 294 294 293 292 290 290 294 290 289 288 288 289 288 288 288 288 289 290 290 289 290 289 289 289 288 289 289 288 291 291 290 290 289
306 304 300 301 297 298 298 298 298 297 297 296 295 294 292 290 291 290 289 289 289 288 288 288 288 287 288 290 291 290 290 292 289 290 288 288 288 288 289 289 287 288 289 289
305 305 300 300 299 298 298 297 295 294 295 295 295 293 292 289 288 289 290 289 289 287 287 288 288 287 289 290 290 290 290 290 290 290 288 289 288 287 287 288 288 288 287 287
304 302 301 299 298 298 296 295 294 294 294 294 293 292 292 291 290 290 289 289 286 285 286 287 288 289 289 289 288 290 290 290 290 289 288 288 288 287 287 286 286 287 286 285
300 298 299 298 298 297 296 296 296 295 295 294 293 293 292 291 289 289 289 288 289 287 287 287 287 290 289 288 287 289 288 289 288 288 287 287 287 286 286 286 286 285 284 287
303 302 302 299 298 298 297 298 297 296 294 295 295 294 292 289 288 289 289 289 288 287 286 287 289 289 290 288 286 289 288 287 287 285 286 285 285 286 284 285 285 285 285 286
304 303 301 301 299 297 297 296 295 295 296 295 293 291 292 290 289 288 288 287 287 284 284 287 290 289 288 288 286 288 287 286 285 284 284 284 284 284 283 283 283 284 284 284
303 303 301 298 297 296 295 296 295 295 295 293 292 291 290 292 290 288 286 285 285 283 285 286 285 284 285 286 286 287 286 285 283 283 283 281 281 281 281 281 282 282 282 283
301 299 296 295 295 295 295 296 295 294 294 294 291 289 288 288 291 289 285 282 284 286 285 287 285 283 283 283 284 286 285 284 283 282 281 282 282 281 280 280 281 281 281 281
297 295 295 294 294 293 294 294 294 294 292 292 292 291 289 287 287 286 288 284 284 287 285 284 284 283 283 284 286 285 285 284 282 282 282 283 283 281 280 280 280 280 280 280
295 295 295 294 293 292 293 293 292 292 292 292 291 290 290 288 286 283 282 286 286 285 284 283 283 283 283 285 285 284 283 282 279 279 277 278 283 281 281 280 281 281 281 280
295 295 294 294 294 293 290 291 291 291 291 293 293 293 290 287 285 286 285 286 284 286 283 282 283 284 284 284 284 283 282 282 280 278 277 280 276 275 278 281 281 281 281 281
295 295 294 293 291 291 291 290 290 290 290 289 290 291 291 290 287 287 286 285 285 285 284 283 284 285 285 284 284 283 282 281 279 278 278 276 275 274 274 274 277 279 279 281
294 293 294 293 292 291 291 291 289 290 290 289 289 289 289 289 289 289 288 288 287 287 285 284 284 284 284 283 283 283 282 281 280 280 278 278 277 277 277 276 277 276 278 280
295 294 294 293 293 293 292 292 290 288 289 288 287 288 288 288 287 287 287 287 286 287 285 284 283 283 282 283 283 282 281 281 280 279 279 275 275 275 277 276 277 278 278 279

GFSNGP_sfc_thetae_114.txt.gz
Theta_e
296 298 297 298 297 296 292 292 290 293 294 299 302 303 306 308 310 310 307 303 302 301 301 300 301 301 301 301 301 301 301 301 302 303 304 303 303 303 303 303 303 304 304 304
294 298 297 296 297 298 297 298 297 297 295 302 305 308 307 308 308 307 302 302 302 302 300 299 299 298 299 298 299 300 300 300 300 300 301 301 301 301 301 301 302 302 303 302
289 297 295 290 296 297 298 300 299 293 299 304 303 305 306 307 307 302 301 301 300 298 297 296 296 297 295 296 297 297 296 298 298 298 298 298 300 300 299 299 300 301 300 304
289 292 282 295 303 302 299 300 302 301 303 300 299 300 304 305 301 300 300 299 297 297 295 295 295 295 296 296 294 294 294 294 296 295 296 297 297 298 298 299 300 300 302 305
284 286 292 296 299 299 296 296 303 301 297 297 298 298 296 299 300 298 297 297 296 296 295 293 294 294 294 292 292 292 292 292 293 294 294 295 296 299 298 298 301 301 301 302
286 284 284 295 302 304 303 291 302 299 297 297 300 290 291 298 299 298 298 298 296 296 293 292 291 292 291 290 289 289 291 291 292 294 296 296 298 299 301 301 302 304 302 301
285 287 292 301 304 305 289 289 301 300 299 299 293 296 297 298 297 298 298 297 295 293 290 290 290 290 288 288 288 292 290 290 292 294 293 296 297 298 300 300 298 299 298 298
286 286 284 302 302 294 296 298 299 299 297 296 297 297 298 297 296 296 295 295 294 291 290 289 289 288 287 286 289 294 289 289 290 292 292 295 296 296 295 295 295 293 294 293
291 293 298 301 299 301 300 298 299 298 299 299 298 296 296 295 293 293 293 294 293 291 290 289 288 287 285 286 289 290 289 288 289 291 292 294 293 290 289 291 290 291 292 288
295 297 297 299 300 300 300 298 299 300 298 298 295 293 292 292 291 291 291 290 289 289 288 287 287 288 287 288 289 289 288 289 291 290 291 292 293 293 289 289 288 289 289 287
294 296 297 298 298 299 299 299 298 297 296 294 292 291 291 290 290 290 289 288 288 287 286 286 287 287 286 287 287 287 288 290 290 290 290 290 290 292 290 291 289 288 289 288
292 297 295 295 297 298 296 295 295 293 292 292 292 290 290 289 289 288 287 287 286 286 286 286 287 286 286 287 287 286 287 287 287 288 289 290 289 290 291 291 290 289 289 289
297 299 297 297 297 297 294 294 294 293 292 290 290 290 290 288 288 290 287 287 286 286 286 286 286 285 286 287 288 288 288 288 286 289 288 288 288 289 288 291 291 290 289 289
300 297 293 294 292 295 295 296 296 294 293 292 291 290 289 288 288 287 286 286 286 286 286 287 287 285 287 289 289 288 287 290 288 288 289 288 286 286 286 287 287 287 289 288
300 299 295 295 295 294 295 295 293 292 292 291 290 289 289 287 286 286 287 287 286 285 286 287 287 286 288 288 287 288 288 287 287 288 288 288 286 284 284 285 285 286 286 287
297 296 295 293 293 294 294 293 292 291 291 290 289 289 289 288 287 287 287 287 284 283 285 285 286 288 288 287 287 288 288 288 288 286 286 286 285 284 284 284 283 283 284 283
296 294 294 293 293 293 293 294 293 292 292 290 289 290 289 288 287 286 285 286 286 285 285 285 286 289 289 287 287 287 286 285 286 285 284 284 284 282 282 283 283 282 283 283
301 299 298 295 294 294 294 295 294 293 292 292 292 290 288 287 285 286 286 285 285 284 284 286 288 288 287 287 287 286 285 284 284 283 283 282 282 281 281 281 281 281 281 283
301 299 297 297 296 296 295 294 293 293 293 293 290 288 288 287 286 285 286 285 283 281 281 285 287 285 284 287 286 285 284 283 282 282 282 282 280 279 279 279 279 279 280 280
300 297 297 296 296 295 294 294 293 292 292 291 291 289 287 286 286 285 284 282 283 281 283 284 283 282 283 285 286 284 283 282 281 280 281 280 279 278 278 280 279 279 279 279
296 296 295 295 294 294 294 293 292 290 291 290 288 288 287 286 286 284 281 280 282 284 284 285 283 281 282 283 283 282 281 280 279 279 282 280 278 278 279 278 279 279 279 279
294 293 293 293 293 292 292 292 292 291 290 289 289 288 286 285 286 284 283 281 282 286 283 282 281 282 283 285 283 282 282 282 281 279 279 280 278 277 278 278 279 279 279 279
293 292 292 292 291 290 291 291 291 291 290 290 288 287 284 284 284 283 281 284 283 284 282 282 283 283 284 283 282 281 281 280 277 276 275 274 274 275 277 278 279 279 278 279
292 292 291 292 291 290 288 288 288 289 289 289 289 289 286 283 282 283 284 286 285 283 282 282 283 283 283 281 281 280 279 279 275 274 274 276 271 273 272 275 276 277 277 277
292 292 291 289 288 287 286 287 287 287 287 287 288 289 287 286 284 284 284 283 285 284 283 282 283 283 282 281 280 279 279 278 275 273 274 273 272 272 272 271 273 275 276 276
291 290 290 290 289 287 287 286 285 285 286 286 286 288 287 287 286 285 285 285 284 284 282 281 282 281 281 280 280 280 279 278 278 276 273 272 272 272 272 271 273 273 275 276
291 291 289 288 288 289 288 287 286 285 287 287 286 286 286 286 286 285 285 284 284 283 282 281 281 281 280 280 279 279 278 278 278 277 277 273 272 273 274 274 273 274 275 276

GFSNGP_sfc_thetae_117.txt.gz
Theta_e
295 296 297 296 295 296 291 291 289 292 294 298 301 302 303 305 304 302 302 302 302 301 301 300 299 299 298 298 299 299 299 298 297 298 300 301 301 300 300 301 301 302 302 302
292 297 297 295 297 297 295 294 295 296 293 302 305 306 305 306 305 301 301 301 301 300 299 298 297 296 296 296 296 296 295 295 297 297 297 297 298 299 299 299 300 300 301 301
289 295 294 289 295 297 298 298 297 292 296 303 302 304 305 305 308 303 301 301 298 297 296 295 295 295 293 293 294 293 293 295 295 295 295 296 297 297 297 297 298 298 299 300
290 292 283 295 301 302 299 299 300 299 298 302 301 300 306 308 305 300 298 297 295 294 293 293 293 293 292 292 292 292 291 292 293 293 293 294 294 295 296 296 297 297 299 300
286 287 292 296 298 297 296 295 301 296 296 296 298 299 296 300 300 298 297 296 295 294 293 293 293 293 291 289 289 290 289 290 291 292 292 293 294 296 296 295 297 301 302 302
287 283 283 293 301 304 301 289 300 298 297 298 301 292 293 298 298 296 296 296 294 294 293 292 291 290 288 288 288 288 289 289 290 294 294 294 296 295 298 299 300 300 299 296
286 285 292 299 302 303 287 289 300 300 299 297 292 294 295 297 297 297 296 295 294 293 291 291 289 287 286 287 287 290 289 289 289 292 292 294 295 296 294 295 296 295 294 292
287 284 283 301 300 292 294 299 299 297 295 294 294 295 295 296 296 296 295 294 294 290 288 287 287 286 285 286 287 290 289 288 288 289 292 294 294 292 291 289 288 289 289 288
292 291 297 298 296 298 298 296 296 296 297 296 295 294 295 293 294 295 294 291 291 289 287 287 286 286 285 286 288 289 288 287 290 292 292 293 293 290 289 287 286 288 289 288
293 294 294 296 298 299 299 298 298 299 298 296 294 293 291 291 291 291 290 288 289 288 286 285 286 286 285 286 287 287 286 287 288 292 291 292 292 291 289 288 286 287 287 287
292 294 295 295 297 298 298 299 298 297 295 293 292 290 289 288 288 288 287 286 287 286 285 284 285 284 284 286 286 285 285 286 286 286 287 290 291 291 290 289 288 287 287 288
291 294 294 292 295 297 294 293 294 292 291 291 291 289 288 287 287 286 285 285 285 284 284 284 284 284 285 286 286 285 285 285 284 286 286 288 289 290 291 291 290 289 289 288
294 296 294 294 295 295 292 291 291 290 290 288 289 288 287 285 286 288 285 285 284 284 285 284 284 284 285 286 287 286 284 285 286 288 287 286 288 287 287 290 291 289 288 288
296 295 291 293 290 293 292 292 292 290 290 289 288 288 287 286 286 285 284 284 285 286 285 285 285 284 285 287 287 286 285 289 286 285 285 285 285 286 286 285 284 284 287 286
295 295 293 293 293 292 292 291 289 288 288 288 288 287 286 285 284 284 285 285 285 285 285 285 285 285 287 287 286 286 286 285 286 286 286 285 284 284 284 283 282 283 283 283
294 294 293 291 291 291 291 290 288 287 288 288 287 287 287 286 285 285 285 285 282 281 284 284 285 286 287 286 286 286 285 287 286 284 284 283 283 282 282 281 281 281 281 280
292 290 291 290 291 291 290 290 289 289 288 288 287 287 287 286 285 284 283 283 283 283 284 285 284 287 288 286 285 285 284 284 284 283 282 282 280 280 280 280 279 279 279 281
295 294 293 293 292 291 291 292 291 290 289 289 289 288 286 284 282 282 282 282 283 282 283 284 285 286 287 286 285 284 283 283 282 281 281 280 279 279 279 279 278 278 278 280
297 295 295 294 294 293 292 291 291 291 291 290 288 286 286 286 285 284 283 281 281 280 281 283 286 285 285 287 284 283 282 282 281 281 280 280 279 279 279 278 278 277 278 278
297 296 295 295 295 293 291 292 292 291 290 289 288 286 285 285 284 283 282 280 281 279 282 283 282 283 284 285 284 281 281 281 280 280 280 278 278 277 277 279 279 278 278 278
295 296 295 294 293 293 292 292 291 290 290 289 287 285 284 284 284 282 279 278 281 283 283 284 282 282 283 282 281 280 279 279 279 278 278 277 276 277 277 278 278 278 278 279
294 294 293 293 292 291 291 290 290 289 288 288 288 286 285 283 282 281 281 279 281 285 283 281 281 283 283 283 281 280 280 280 279 277 278 277 277 276 277 277 278 278 277 278
293 293 293 292 291 290 290 290 289 288 287 287 287 286 284 282 281 280 279 282 281 283 281 281 282 282 282 281 280 280 280 278 275 273 272 273 272 273 274 275 276 277 276 276
292 292 290 290 290 289 287 287 287 288 287 287 287 286 284 282 281 282 283 285 284 283 281 281 282 282 281 279 279 278 278 277 273 272 272 273 269 269 269 272 273 275 275 276
292 291 289 288 287 285 285 286 286 286 287 286 286 286 285 283 282 282 283 283 284 282 281 281 282 281 280 279 278 277 277 276 271 271 272 271 270 270 269 269 271 272 274 275
290 289 288 288 287 286 286 286 284 284 285 284 284 284 285 285 284 284 283 284 283 282 280 280 280 280 280 278 278 278 277 277 277 275 272 271 270 271 271 271 272 272 273 274
288 288 286 285 285 286 285 286 285 284 285 284 284 285 285 285 284 284 284 282 282 281 280 280 280 280 279 278 278 278 277 277 277 276 276 272 271 272 272 271 271 273 274 274

GFSNGP_sfc_thetae_120.txt.gz
Theta_e
292 296 295 294 294 292 291 291 287 290 294 299 301 301 303 303 303 302 301 302 301 300 299 299 299 299 299 299 299 299 298 298 297 299 300 301 301 302 302 302 303 303 303 304
289 295 295 293 295 295 294 294 295 296 295 303 303 303 301 302 302 301 302 301 300 300 299 298 297 296 297 295 295 297 296 296 297 297 298 298 299 300 301 301 301 302 302 303
286 293 294 290 294 295 296 297 297 292 296 302 301 302 301 302 302 301 301 300 300 299 297 296 295 294 293 293 294 293 293 294 294 295 295 296 297 298 299 299 299 300 301 302
287 291 282 294 301 301 298 299 299 299 302 303 302 303 304 304 302 302 300 298 297 295 295 294 293 292 292 293 292 291 291 292 293 293 294 295 296 297 297 298 299 299 301 303
286 287 292 295 299 297 296 295 300 299 302 299 300 299 296 303 301 298 296 295 294 294 292 292 292 291 291 291 291 290 289 290 291 293 294 295 296 297 298 298 299 301 300 299
287 285 283 293 301 304 302 291 300 299 298 299 302 296 293 297 297 295 295 294 293 292 292 290 290 291 290 289 290 289 289 289 290 293 293 294 296 296 296 297 297 298 297 295
284 284 291 298 302 304 288 291 300 301 302 302 296 298 296 297 295 295 293 293 292 291 289 289 290 290 289 288 288 290 290 290 290 291 293 295 295 293 293 292 293 294 293 292
284 284 283 298 300 293 296 300 300 296 296 295 295 296 295 295 293 293 292 292 292 290 289 288 288 288 287 287 289 290 290 290 290 291 293 295 293 292 290 290 290 292 290 290
289 288 295 296 295 299 300 297 296 295 296 296 295 294 293 292 292 292 292 291 290 288 286 286 287 287 286 286 288 289 289 289 290 292 293 293 291 290 288 289 288 288 288 288
291 292 294 296 298 298 298 296 297 297 297 295 292 292 292 292 291 291 291 290 288 287 286 285 285 286 286 287 288 288 288 288 289 290 292 292 292 290 288 287 287 287 287 287
290 293 294 295 297 297 296 296 295 295 294 293 292 291 290 289 288 288 288 287 287 285 285 284 285 285 286 287 287 287 287 288 288 288 289 290 292 291 289 289 288 286 286 287
288 293 292 292 295 296 294 292 292 291 290 291 290 288 288 286 286 286 285 285 285 284 284 284 285 285 286 287 287 287 286 286 287 288 288 289 289 290 291 290 289 287 288 288
290 293 292 292 293 294 291 291 291 290 289 287 287 287 286 285 286 288 285 285 285 285 285 285 285 285 286 288 288 287 285 286 286 286 287 287 288 287 286 288 289 287 286 286
295 294 289 291 288 291 290 290 291 289 288 288 287 287 286 285 285 285 284 285 286 285 285 285 285 285 287 288 287 286 286 287 285 286 285 285 285 285 285 284 283 283 285 284
293 292 290 290 290 289 290 289 287 286 286 286 286 285 285 284 283 284 285 285 285 285 285 286 285 285 287 287 286 286 286 285 285 285 285 285 284 284 283 282 282 281 282 283
292 291 291 289 289 289 288 288 286 286 286 286 285 285 285 285 284 284 284 285 284 283 284 285 285 286 287 286 286 285 286 286 285 284 283 282 282 281 281 281 280 280 280 280
290 288 289 288 288 288 287 288 287 287 286 286 285 286 285 284 284 283 283 284 284 284 284 284 285 288 287 286 285 284 284 283 283 282 281 281 281 280 280 280 279 279 279 280
293 293 292 291 290 289 289 289 288 288 286 287 287 286 284 283 282 282 282 283 283 282 283 285 286 287 285 285 284 284 284 283 282 281 281 281 280 280 280 280 280 279 279 280
294 293 292 292 292 291 289 288 288 288 289 288 287 285 285 284 283 282 282 283 282 281 282 285 287 285 285 285 284 284 283 282 281 281 281 280 280 280 280 280 279 280 280 279
294 294 294 293 293 291 290 290 290 289 289 288 287 286 285 284 284 282 282 281 282 282 284 284 285 284 284 285 283 282 282 282 281 281 280 279 279 279 280 280 279 279 279 280
294 294 293 292 291 292 291 291 289 288 288 288 286 285 283 283 283 282 281 281 282 284 284 285 285 284 284 283 283 282 282 282 281 280 280 279 279 279 279 279 280 279 278 279
293 293 292 292 290 290 290 290 290 289 288 287 286 285 284 281 281 281 282 281 283 284 283 283 284 284 284 283 283 282 282 282 281 280 279 279 279 278 277 278 278 278 278 278
293 293 292 291 290 289 290 289 289 289 288 287 286 285 283 282 282 281 281 283 283 284 283 283 282 281 281 283 283 282 282 281 280 279 278 277 277 277 277 277 277 278 277 277
292 292 291 291 291 289 287 287 287 287 287 287 287 286 284 282 282 283 284 284 284 284 284 283 282 280 280 282 282 282 281 280 279 279 278 276 277 276 276 276 276 277 277 277
291 290 290 289 288 287 286 286 286 286 286 285 285 286 285 284 284 284 284 284 284 283 283 281 280 280 282 281 281 281 280 280 279 278 279 278 277 276 276 275 275 276 277 277
289 289 288 289 287 287 286 286 285 285 285 284 285 285 284 285 285 285 284 284 284 283 283 282 283 282 282 281 281 281 281 281 280 279 278 278 277 278 277 276 275 276 276 276
288 287 286 285 285 285 286 286 285 285 286 286 285 285 285 285 285 285 284 284 283 283 283 283 282 282 282 282 281 281 281 281 280 280 279 279 278 278 277 276 276 276 276 276

GFSNGP_sfc_thetae_123.txt.gz
Theta_e
291 291 290 295 294 295 293 295 291 294 298 303 305 305 307 307 307 307 307 307 306 306 306 306 306 306 306 306 307 308 308 307 307 309 310 310 310 310 310 310 310 310 310 310
288 294 296 294 296 296 297 297 298 298 299 308 309 307 305 305 305 305 306 305 305 304 304 304 304 303 303 303 304 306 305 304 305 306 306 306 307 307 308 309 309 309 309 309
286 294 294 290 295 296 297 299 300 296 303 307 304 304 305 305 307 305 304 303 302 300 300 300 301 302 301 301 302 302 302 302 302 303 303 303 305 306 306 307 308 308 309 310
286 290 284 295 302 301 298 300 303 302 304 306 306 307 307 308 306 304 302 302 300 296 295 297 300 299 299 298 298 299 299 300 301 302 302 303 304 304 306 306 307 308 308 306
284 288 293 296 300 300 298 297 303 303 305 305 304 303 302 306 307 305 302 299 297 296 296 296 296 296 296 295 297 297 297 298 299 300 301 302 302 301 302 304 305 305 305 302
289 288 285 295 302 306 305 294 303 307 301 302 304 294 295 299 298 298 297 295 294 293 294 296 296 297 297 296 297 295 296 297 298 300 301 301 299 300 301 301 301 302 300 299
291 289 292 297 301 307 292 296 306 306 306 306 304 300 297 297 295 295 294 293 293 292 291 292 295 297 295 296 295 296 297 297 298 300 300 300 299 298 297 297 297 296 297 299
292 290 286 297 302 297 302 305 306 307 306 298 297 296 297 295 293 292 291 291 292 292 293 295 294 295 295 294 296 298 298 298 298 299 299 298 296 295 293 292 292 291 294 296
289 288 296 299 299 305 305 304 303 301 300 299 296 295 294 292 291 292 291 291 292 292 290 293 295 295 294 294 296 297 297 298 298 298 298 296 294 291 289 289 288 289 290 293
291 293 295 298 301 303 304 304 303 301 300 298 296 295 293 293 293 292 291 290 291 290 291 291 294 294 294 295 295 296 296 296 297 296 296 296 295 294 292 289 290 292 291 290
291 294 295 295 298 300 301 301 299 299 298 296 296 295 294 293 293 292 291 291 291 292 291 292 293 294 295 295 296 295 295 296 296 296 296 296 296 294 293 289 288 289 288 289
288 293 292 292 295 298 297 296 297 297 296 297 297 295 295 293 292 290 290 292 291 291 292 292 293 294 294 295 297 296 295 295 294 296 296 295 294 293 289 288 287 286 286 286
289 294 292 292 293 295 295 295 295 295 294 293 294 293 293 292 292 291 291 291 291 291 292 293 293 293 294 294 295 294 293 293 293 293 293 293 292 291 289 290 288 286 285 284
296 296 291 291 288 292 293 293 294 294 293 293 292 293 292 291 291 291 290 291 292 292 292 292 292 291 293 294 294 293 292 290 292 291 291 291 290 289 289 287 286 286 286 285
293 293 292 293 294 293 294 293 291 290 291 290 291 291 291 290 290 290 290 291 292 291 291 291 290 290 292 293 292 292 291 291 291 290 289 289 289 288 287 286 285 285 285 285
293 293 293 292 292 292 292 292 290 289 290 290 290 290 290 290 290 290 290 291 291 289 290 290 290 291 291 292 291 291 289 286 288 289 288 287 287 286 285 285 284 284 284 282
292 291 291 291 291 291 291 291 291 290 290 289 289 289 289 289 289 289 289 291 291 290 291 290 289 290 290 290 289 289 288 287 285 287 286 286 285 284 285 284 284 284 283 282
298 297 296 294 292 291 291 291 291 290 289 289 289 289 288 289 288 288 289 290 290 290 291 290 290 289 289 289 289 288 287 286 286 285 286 285 285 285 284 284 284 284 284 284
297 295 295 294 294 292 291 291 291 291 290 290 289 288 288 288 289 289 290 289 289 288 289 290 288 289 289 287 288 288 287 286 286 285 285 284 285 285 284 284 284 284 284 284
296 296 295 294 294 293 291 292 292 291 291 291 290 289 287 287 288 289 289 288 289 290 291 290 290 289 288 287 287 288 287 286 285 285 284 284 284 284 284 283 284 283 283 284
296 296 295 295 293 293 293 293 292 291 292 292 291 289 288 288 288 289 288 287 289 290 291 289 290 289 289 287 288 287 287 286 285 285 284 284 284 284 283 284 284 283 283 283
297 296 296 295 294 293 294 294 293 292 292 291 290 289 288 287 287 288 290 289 290 285 290 291 290 287 287 286 288 287 286 286 285 285 284 283 283 282 282 282 282 283 283 283
298 297 297 296 295 294 295 294 293 292 291 290 289 288 287 288 288 288 287 289 291 287 291 291 285 283 283 289 288 288 287 286 285 284 284 283 282 282 281 281 281 282 282 282
298 298 297 297 296 295 293 293 293 293 292 292 291 290 289 288 288 290 290 286 284 288 291 288 286 282 284 289 289 288 287 286 285 285 284 281 283 283 282 281 281 281 282 282
297 297 295 295 294 294 293 293 293 293 293 292 292 291 291 292 290 290 290 290 284 289 290 282 282 283 290 289 289 287 287 286 285 285 285 284 283 283 282 281 281 281 281 281
296 295 296 296 295 294 293 293 292 293 293 291 291 291 291 291 291 290 290 288 290 287 289 288 289 289 290 290 288 288 288 287 287 286 284 284 283 283 282 282 281 281 281 281
294 292 294 293 294 295 295 294 293 292 292 292 291 291 291 291 291 290 288 289 290 289 289 289 289 287 290 289 289 288 288 288 285 286 286 285 284 283 282 282 282 282 281 281

GFSNGP_sfc_thetae_129.txt.gz
Theta_e
295 295 295 294 293 296 297 296 292 298 298 303 313 310 310 312 314 315 317 317 318 317 319 320 320 320 321 321 321 322 321 321 321 322 322 321 320 320 319 320 319 318 317 317
291 296 293 294 295 297 299 299 298 295 300 312 311 311 310 311 313 313 313 313 314 315 316 316 316 316 317 317 317 318 317 317 318 318 318 318 318 318 317 317 317 316 315 313
288 294 291 288 296 297 299 301 300 294 299 310 307 308 309 311 311 311 311 311 312 313 313 314 314 315 314 314 315 314 313 313 314 314 313 314 315 315 315 312 313 312 311 310
286 287 283 298 303 302 301 300 301 298 297 308 309 310 312 313 311 309 309 309 310 311 311 311 312 311 312 312 311 311 310 310 311 311 312 313 312 311 310 310 310 310 310 310
286 286 295 299 300 301 299 299 303 304 306 308 309 309 307 310 311 309 309 309 310 309 309 308 308 308 308 308 308 308 307 308 309 311 310 311 310 308 308 308 308 308 307 306
287 285 286 298 303 305 302 291 309 308 306 306 307 297 300 308 309 308 308 307 307 308 307 307 307 307 306 304 304 304 306 308 309 309 309 308 308 306 307 307 307 306 305 304
285 284 291 298 303 308 290 298 311 309 307 307 300 301 302 305 305 305 304 303 302 302 301 302 304 305 303 303 302 304 306 308 308 308 308 307 306 305 305 304 303 302 300 301
290 289 287 303 303 298 308 314 312 311 307 300 296 296 297 297 298 299 300 300 300 302 303 304 306 305 302 303 306 306 306 306 306 306 306 305 305 305 304 305 305 303 304 301
289 287 296 306 307 312 316 313 312 308 305 298 293 292 291 291 293 295 297 297 297 300 302 303 305 305 303 304 305 306 306 305 305 305 304 304 303 301 299 300 299 299 299 299
291 293 299 306 310 312 314 310 310 306 301 296 292 291 290 291 292 293 296 298 300 301 300 301 302 302 303 304 304 304 304 304 303 303 303 302 301 299 294 292 293 294 294 295
289 293 297 299 304 306 306 306 302 300 297 295 293 292 292 292 293 294 294 296 299 299 300 300 301 302 303 304 304 303 303 303 304 303 303 301 299 297 295 291 288 289 289 292
286 294 295 295 300 302 301 300 298 296 295 294 294 293 294 294 295 296 297 299 300 301 300 300 301 301 302 304 304 303 301 300 300 301 300 300 299 294 287 287 286 286 286 286
291 297 296 296 296 297 297 297 297 295 295 294 296 297 296 296 297 299 299 300 300 299 300 300 300 300 301 302 302 302 301 301 299 299 298 297 297 296 295 288 286 286 286 286
296 296 293 295 292 296 295 295 295 294 294 295 296 298 297 298 299 299 298 300 300 300 299 299 298 298 300 301 300 299 298 292 298 297 297 296 296 295 295 294 294 292 288 288
294 296 296 297 297 296 297 297 295 295 296 296 298 298 298 298 298 298 299 299 299 298 297 297 297 297 299 300 299 299 298 298 297 296 295 295 295 295 295 294 294 293 292 290
296 297 298 298 300 301 300 299 297 297 298 298 297 297 298 299 298 298 299 299 297 295 296 296 296 298 299 299 298 296 294 289 292 296 295 295 294 294 293 293 293 293 291 289
296 295 297 298 298 298 298 298 298 297 297 297 297 298 298 298 298 297 297 298 297 296 296 296 296 297 297 298 297 296 295 294 287 295 294 294 294 293 293 293 292 292 292 289
302 300 298 298 297 296 296 296 297 297 296 297 297 297 297 297 296 296 296 296 296 295 296 297 297 297 297 297 297 296 295 295 294 293 293 292 293 293 293 292 292 291 292 291
301 298 298 297 296 296 296 295 296 296 297 297 297 296 297 297 297 297 297 295 294 293 293 295 292 295 295 291 294 296 295 294 293 293 293 290 293 293 291 292 292 291 291 291
299 299 298 297 297 296 295 296 296 296 297 297 297 296 296 296 297 297 298 295 295 295 297 296 296 295 294 294 292 295 294 294 293 292 291 292 292 291 292 289 290 291 291 291
298 298 297 297 297 297 297 298 296 295 296 296 296 295 296 297 297 297 296 293 295 296 296 293 295 294 294 293 294 294 294 293 292 292 291 291 291 290 290 290 290 290 290 290
300 298 298 297 297 297 298 298 297 296 296 295 296 296 296 295 296 297 298 296 295 289 296 295 294 287 291 286 294 293 293 292 292 292 291 290 290 290 290 289 289 289 290 290
303 301 299 298 298 298 298 298 298 297 295 295 295 296 296 296 297 295 293 296 296 294 297 293 286 285 284 296 294 294 293 292 292 292 291 291 291 291 290 289 289 289 289 289
304 303 301 301 300 299 297 298 298 297 296 296 296 296 296 295 296 297 295 290 288 291 295 290 288 285 282 295 294 293 293 293 292 292 292 284 292 291 291 290 289 290 289 289
305 305 302 300 299 298 299 299 298 297 296 296 296 296 297 298 296 295 295 294 287 292 294 284 285 284 294 295 294 293 292 292 291 293 292 292 291 291 291 291 290 289 289 289
305 304 303 302 301 300 299 299 297 297 296 294 295 296 297 297 297 296 295 293 295 292 294 292 293 293 296 295 294 293 293 292 292 292 290 292 291 291 290 290 290 290 289 289
305 300 303 302 301 300 299 299 298 297 297 297 296 297 297 297 296 296 293 295 295 296 296 295 294 291 295 294 294 294 294 295 289 291 292 293 292 291 290 290 290 290 289 289

GFSNGP_sfc_thetae_132.txt.gz
Theta_e
294 295 295 294 294 295 294 295 292 295 296 299 308 312 313 315 319 319 320 321 321 320 320 321 320 320 322 322 323 323 322 322 321 322 322 322 321 321 322 321 320 319 317 315
290 296 296 293 296 296 296 296 296 295 295 307 311 313 313 316 318 318 318 317 316 316 316 316 317 317 319 319 319 320 318 318 318 318 318 319 319 319 317 315 315 315 313 310
286 294 292 289 294 296 297 299 298 293 297 302 305 310 312 314 312 311 311 311 311 311 312 313 314 315 315 316 316 315 314 314 314 314 314 315 315 313 312 312 313 312 311 306
286 288 283 297 302 301 298 300 302 302 303 304 304 310 310 310 309 308 308 308 309 310 311 313 314 314 313 313 311 311 311 311 312 312 312 312 311 310 310 312 310 308 306 303
284 284 291 298 299 299 297 297 304 302 302 306 306 306 304 308 308 307 306 307 308 309 310 310 309 310 309 309 309 308 308 310 310 310 310 309 308 307 308 308 308 306 305 304
286 284 285 293 302 307 305 292 305 308 303 303 305 295 299 306 306 306 307 308 307 307 307 307 308 308 307 306 306 306 307 308 309 309 308 306 307 306 307 307 305 305 304 304
286 286 291 300 303 307 293 291 306 306 305 304 300 301 303 304 304 306 306 306 308 308 306 306 307 306 304 304 304 305 307 306 306 307 305 306 307 307 306 306 305 304 303 304
287 284 286 301 305 299 302 309 302 302 301 299 299 300 299 300 300 301 302 303 304 304 304 306 307 306 304 303 306 306 306 305 305 306 304 305 305 304 302 302 307 306 305 302
288 287 297 303 307 309 311 306 301 299 298 296 295 295 297 297 298 299 302 302 303 302 303 303 305 306 304 305 306 306 305 304 305 305 305 303 298 295 294 296 296 296 297 297
291 292 298 304 305 310 309 305 302 300 298 296 293 293 294 296 297 298 299 301 302 302 301 301 303 304 304 305 306 305 303 303 305 302 300 300 297 293 291 290 291 290 292 291
289 293 297 300 300 301 302 301 298 297 295 295 293 292 293 293 294 297 297 300 300 300 299 300 303 303 304 305 305 304 305 304 304 302 301 297 293 294 289 287 287 286 288 289
288 294 293 295 298 299 296 295 295 294 293 295 295 293 293 293 295 297 299 300 299 300 300 301 302 303 304 305 306 304 302 301 301 301 301 296 293 288 287 287 287 287 287 287
291 294 293 294 296 297 295 295 295 295 295 294 295 295 295 295 297 299 299 299 299 298 300 300 300 300 301 302 304 303 302 301 300 299 298 298 297 293 287 286 286 286 286 287
297 295 291 293 291 294 295 296 297 297 297 297 297 298 298 299 300 298 298 299 299 299 299 299 298 298 300 299 300 300 300 295 298 298 297 296 296 296 295 294 290 289 288 287
295 295 294 295 295 294 295 295 294 294 296 297 299 299 298 298 298 298 300 300 299 298 297 297 297 297 300 300 298 299 298 297 296 296 295 295 296 295 295 294 294 292 290 290
297 296 295 295 295 295 295 295 294 294 297 299 298 299 300 300 299 299 299 298 297 296 297 296 297 298 298 297 296 295 295 292 295 296 295 295 295 294 293 294 293 292 289 289
298 297 298 298 298 298 297 298 297 296 296 297 298 299 299 299 298 297 297 297 298 297 297 297 296 298 297 298 298 296 295 295 292 295 294 294 294 293 293 292 292 291 291 290
298 299 299 298 297 297 297 297 297 297 297 298 299 299 298 297 296 296 296 297 296 296 296 296 298 297 297 296 298 296 295 294 294 293 293 292 293 293 293 292 291 291 291 291
298 296 296 297 297 297 297 296 297 297 298 298 298 297 298 297 297 296 296 293 292 291 293 295 293 295 295 292 295 295 295 294 293 293 293 291 293 292 291 291 291 291 291 291
298 298 297 296 297 296 296 297 298 298 298 298 297 297 296 297 297 297 296 294 294 295 296 296 296 295 296 296 293 295 294 293 292 292 291 291 292 291 291 289 290 290 290 290
298 298 297 296 296 296 296 296 296 296 297 297 296 296 296 298 298 296 294 291 294 296 296 294 295 294 294 292 294 294 293 293 292 292 291 291 291 290 290 290 290 290 290 289
298 297 297 297 297 296 297 297 296 296 297 297 297 297 296 296 297 297 297 294 294 289 295 294 293 286 289 286 294 293 293 292 292 292 291 290 290 290 290 289 289 289 289 289
299 299 298 297 297 297 298 297 296 296 295 296 296 296 296 297 297 294 292 295 296 293 294 291 286 285 284 294 294 293 293 292 293 291 292 292 291 291 289 288 289 289 289 289
301 300 300 300 299 298 296 297 297 297 296 297 298 298 297 296 296 297 296 291 290 293 291 289 288 285 283 294 294 293 293 293 292 293 291 287 293 292 291 289 289 289 288 289
304 302 300 299 299 298 298 298 297 297 296 296 297 297 298 299 296 295 295 294 288 293 291 284 285 285 292 294 293 292 292 290 290 292 293 293 291 291 292 292 290 289 289 289
304 302 301 302 301 300 299 298 296 296 295 294 296 297 297 297 297 295 294 292 295 292 292 289 291 293 295 294 293 292 292 290 291 291 290 293 291 291 292 292 290 290 290 289
306 300 303 302 301 301 300 299 298 296 296 296 295 297 297 297 296 295 293 295 295 295 295 294 293 292 294 293 293 293 293 293 289 291 291 294 293 292 292 291 292 290 289 289